<?xml version="1.0" encoding="UTF-8" standalone="no" ?>
<gpx xmlns="http://www.topografix.com/GPX/1/1" xmlns:xsi="http://www.w3.org/2001/XMLSchema-instance" xsi:schemaLocation="http://www.topografix.com/GPX/1/1 http://www.topografix.com/GPX/1/1/gpx.xsd" version="1.1" creator="VisuGPX - https://www.visugpx.com">
  <metadata>
    <name>boucle massif de l\'étoile</name>
    <desc><![CDATA[départ de Logis Neuf  en passant par Piton du Roi et Tête du grand Puech]]></desc>
  </metadata>
  <trk>
    <name><![CDATA[JAN-15-12 02:34:04 PM]]></name>
    <trkseg>
      <trkpt lat="43.36162" lon="5.49363">
        <ele>173.66</ele>
        <time>2012-01-15T09:10:21Z</time>
      </trkpt>
      <trkpt lat="43.36163" lon="5.49363">
        <ele>170.29</ele>
        <time>2012-01-15T09:10:24Z</time>
      </trkpt>
      <trkpt lat="43.36163" lon="5.49362">
        <ele>171.73</ele>
        <time>2012-01-15T09:10:25Z</time>
      </trkpt>
      <trkpt lat="43.36163" lon="5.49362">
        <ele>175.1</ele>
        <time>2012-01-15T09:10:33Z</time>
      </trkpt>
      <trkpt lat="43.36163" lon="5.49362">
        <ele>169.81</ele>
        <time>2012-01-15T09:10:39Z</time>
      </trkpt>
      <trkpt lat="43.36163" lon="5.49362">
        <ele>173.66</ele>
        <time>2012-01-15T09:10:40Z</time>
      </trkpt>
      <trkpt lat="43.36163" lon="5.49362">
        <ele>165.48</ele>
        <time>2012-01-15T09:10:46Z</time>
      </trkpt>
      <trkpt lat="43.36163" lon="5.49362">
        <ele>173.66</ele>
        <time>2012-01-15T09:10:47Z</time>
      </trkpt>
      <trkpt lat="43.36163" lon="5.49362">
        <ele>178.94</ele>
        <time>2012-01-15T09:10:48Z</time>
      </trkpt>
      <trkpt lat="43.36163" lon="5.49362">
        <ele>171.73</ele>
        <time>2012-01-15T09:10:49Z</time>
      </trkpt>
      <trkpt lat="43.36163" lon="5.49361">
        <ele>176.06</ele>
        <time>2012-01-15T09:10:50Z</time>
      </trkpt>
      <trkpt lat="43.36163" lon="5.49361">
        <ele>172.69</ele>
        <time>2012-01-15T09:10:52Z</time>
      </trkpt>
      <trkpt lat="43.36163" lon="5.49361">
        <ele>172.69</ele>
        <time>2012-01-15T09:10:53Z</time>
      </trkpt>
      <trkpt lat="43.36162" lon="5.4936">
        <ele>173.66</ele>
        <time>2012-01-15T09:10:57Z</time>
      </trkpt>
      <trkpt lat="43.36162" lon="5.49359">
        <ele>168.85</ele>
        <time>2012-01-15T09:11:08Z</time>
      </trkpt>
      <trkpt lat="43.36162" lon="5.49359">
        <ele>172.21</ele>
        <time>2012-01-15T09:11:09Z</time>
      </trkpt>
      <trkpt lat="43.36162" lon="5.49359">
        <ele>175.1</ele>
        <time>2012-01-15T09:11:12Z</time>
      </trkpt>
      <trkpt lat="43.36162" lon="5.49359">
        <ele>172.69</ele>
        <time>2012-01-15T09:11:14Z</time>
      </trkpt>
      <trkpt lat="43.36163" lon="5.49356">
        <ele>171.73</ele>
        <time>2012-01-15T09:11:15Z</time>
      </trkpt>
      <trkpt lat="43.3617" lon="5.49345">
        <ele>177.98</ele>
        <time>2012-01-15T09:11:24Z</time>
      </trkpt>
      <trkpt lat="43.3617" lon="5.49345">
        <ele>177.02</ele>
        <time>2012-01-15T09:11:25Z</time>
      </trkpt>
      <trkpt lat="43.3617" lon="5.49345">
        <ele>177.98</ele>
        <time>2012-01-15T09:11:55Z</time>
      </trkpt>
      <trkpt lat="43.3617" lon="5.49344">
        <ele>176.06</ele>
        <time>2012-01-15T09:11:57Z</time>
      </trkpt>
      <trkpt lat="43.36172" lon="5.49338">
        <ele>179.42</ele>
        <time>2012-01-15T09:12:00Z</time>
      </trkpt>
      <trkpt lat="43.3619" lon="5.49318">
        <ele>172.69</ele>
        <time>2012-01-15T09:12:15Z</time>
      </trkpt>
      <trkpt lat="43.36191" lon="5.49318">
        <ele>179.42</ele>
        <time>2012-01-15T09:12:16Z</time>
      </trkpt>
      <trkpt lat="43.36192" lon="5.49316">
        <ele>178.94</ele>
        <time>2012-01-15T09:12:17Z</time>
      </trkpt>
      <trkpt lat="43.36193" lon="5.49316">
        <ele>180.87</ele>
        <time>2012-01-15T09:12:18Z</time>
      </trkpt>
      <trkpt lat="43.36203" lon="5.49309">
        <ele>183.27</ele>
        <time>2012-01-15T09:12:24Z</time>
      </trkpt>
      <trkpt lat="43.36204" lon="5.49308">
        <ele>183.27</ele>
        <time>2012-01-15T09:12:25Z</time>
      </trkpt>
      <trkpt lat="43.36213" lon="5.49285">
        <ele>186.15</ele>
        <time>2012-01-15T09:12:38Z</time>
      </trkpt>
      <trkpt lat="43.36214" lon="5.49279">
        <ele>186.63</ele>
        <time>2012-01-15T09:12:40Z</time>
      </trkpt>
      <trkpt lat="43.36213" lon="5.49267">
        <ele>187.59</ele>
        <time>2012-01-15T09:12:48Z</time>
      </trkpt>
      <trkpt lat="43.36218" lon="5.49231">
        <ele>189.04</ele>
        <time>2012-01-15T09:13:04Z</time>
      </trkpt>
      <trkpt lat="43.36223" lon="5.49207">
        <ele>188.08</ele>
        <time>2012-01-15T09:13:13Z</time>
      </trkpt>
      <trkpt lat="43.36231" lon="5.49171">
        <ele>190</ele>
        <time>2012-01-15T09:13:29Z</time>
      </trkpt>
      <trkpt lat="43.36231" lon="5.4917">
        <ele>187.11</ele>
        <time>2012-01-15T09:13:30Z</time>
      </trkpt>
      <trkpt lat="43.36232" lon="5.49165">
        <ele>187.11</ele>
        <time>2012-01-15T09:13:33Z</time>
      </trkpt>
      <trkpt lat="43.36238" lon="5.49157">
        <ele>189.04</ele>
        <time>2012-01-15T09:13:38Z</time>
      </trkpt>
      <trkpt lat="43.36244" lon="5.49148">
        <ele>186.15</ele>
        <time>2012-01-15T09:13:45Z</time>
      </trkpt>
      <trkpt lat="43.36245" lon="5.49146">
        <ele>187.59</ele>
        <time>2012-01-15T09:13:46Z</time>
      </trkpt>
      <trkpt lat="43.36246" lon="5.4914">
        <ele>186.63</ele>
        <time>2012-01-15T09:13:50Z</time>
      </trkpt>
      <trkpt lat="43.36255" lon="5.49129">
        <ele>185.19</ele>
        <time>2012-01-15T09:13:57Z</time>
      </trkpt>
      <trkpt lat="43.36262" lon="5.49124">
        <ele>190.48</ele>
        <time>2012-01-15T09:14:00Z</time>
      </trkpt>
      <trkpt lat="43.36283" lon="5.49109">
        <ele>190</ele>
        <time>2012-01-15T09:14:07Z</time>
      </trkpt>
      <trkpt lat="43.36298" lon="5.49103">
        <ele>188.56</ele>
        <time>2012-01-15T09:14:12Z</time>
      </trkpt>
      <trkpt lat="43.36305" lon="5.491">
        <ele>187.11</ele>
        <time>2012-01-15T09:14:14Z</time>
      </trkpt>
      <trkpt lat="43.36328" lon="5.49074">
        <ele>187.11</ele>
        <time>2012-01-15T09:14:27Z</time>
      </trkpt>
      <trkpt lat="43.36351" lon="5.49046">
        <ele>186.15</ele>
        <time>2012-01-15T09:14:38Z</time>
      </trkpt>
      <trkpt lat="43.36352" lon="5.49042">
        <ele>188.56</ele>
        <time>2012-01-15T09:14:39Z</time>
      </trkpt>
      <trkpt lat="43.36353" lon="5.49039">
        <ele>188.56</ele>
        <time>2012-01-15T09:14:40Z</time>
      </trkpt>
      <trkpt lat="43.36355" lon="5.49037">
        <ele>187.11</ele>
        <time>2012-01-15T09:14:41Z</time>
      </trkpt>
      <trkpt lat="43.36357" lon="5.49034">
        <ele>186.63</ele>
        <time>2012-01-15T09:14:42Z</time>
      </trkpt>
      <trkpt lat="43.36359" lon="5.49031">
        <ele>186.15</ele>
        <time>2012-01-15T09:14:43Z</time>
      </trkpt>
      <trkpt lat="43.3636" lon="5.49029">
        <ele>185.19</ele>
        <time>2012-01-15T09:14:44Z</time>
      </trkpt>
      <trkpt lat="43.36363" lon="5.49026">
        <ele>186.15</ele>
        <time>2012-01-15T09:14:45Z</time>
      </trkpt>
      <trkpt lat="43.36365" lon="5.49024">
        <ele>187.59</ele>
        <time>2012-01-15T09:14:46Z</time>
      </trkpt>
      <trkpt lat="43.36367" lon="5.49022">
        <ele>187.11</ele>
        <time>2012-01-15T09:14:47Z</time>
      </trkpt>
      <trkpt lat="43.3637" lon="5.4902">
        <ele>188.08</ele>
        <time>2012-01-15T09:14:48Z</time>
      </trkpt>
      <trkpt lat="43.36372" lon="5.49018">
        <ele>185.19</ele>
        <time>2012-01-15T09:14:49Z</time>
      </trkpt>
      <trkpt lat="43.36374" lon="5.49016">
        <ele>185.67</ele>
        <time>2012-01-15T09:14:50Z</time>
      </trkpt>
      <trkpt lat="43.36375" lon="5.49014">
        <ele>185.67</ele>
        <time>2012-01-15T09:14:51Z</time>
      </trkpt>
      <trkpt lat="43.36378" lon="5.49012">
        <ele>187.11</ele>
        <time>2012-01-15T09:14:52Z</time>
      </trkpt>
      <trkpt lat="43.36381" lon="5.49011">
        <ele>186.15</ele>
        <time>2012-01-15T09:14:53Z</time>
      </trkpt>
      <trkpt lat="43.36383" lon="5.4901">
        <ele>188.08</ele>
        <time>2012-01-15T09:14:54Z</time>
      </trkpt>
      <trkpt lat="43.36384" lon="5.49009">
        <ele>188.08</ele>
        <time>2012-01-15T09:14:55Z</time>
      </trkpt>
      <trkpt lat="43.36385" lon="5.49008">
        <ele>186.15</ele>
        <time>2012-01-15T09:14:56Z</time>
      </trkpt>
      <trkpt lat="43.36386" lon="5.49007">
        <ele>185.67</ele>
        <time>2012-01-15T09:14:57Z</time>
      </trkpt>
      <trkpt lat="43.36388" lon="5.49006">
        <ele>185.19</ele>
        <time>2012-01-15T09:14:58Z</time>
      </trkpt>
      <trkpt lat="43.36389" lon="5.49005">
        <ele>187.11</ele>
        <time>2012-01-15T09:14:59Z</time>
      </trkpt>
      <trkpt lat="43.3639" lon="5.49004">
        <ele>186.15</ele>
        <time>2012-01-15T09:15:00Z</time>
      </trkpt>
      <trkpt lat="43.36391" lon="5.48997">
        <ele>185.67</ele>
        <time>2012-01-15T09:15:08Z</time>
      </trkpt>
      <trkpt lat="43.36356" lon="5.49019">
        <ele>186.63</ele>
        <time>2012-01-15T09:15:22Z</time>
      </trkpt>
      <trkpt lat="43.36337" lon="5.4901">
        <ele>187.11</ele>
        <time>2012-01-15T09:15:33Z</time>
      </trkpt>
      <trkpt lat="43.36339" lon="5.49007">
        <ele>185.19</ele>
        <time>2012-01-15T09:15:36Z</time>
      </trkpt>
      <trkpt lat="43.36337" lon="5.48994">
        <ele>184.23</ele>
        <time>2012-01-15T09:15:41Z</time>
      </trkpt>
      <trkpt lat="43.36336" lon="5.48992">
        <ele>183.75</ele>
        <time>2012-01-15T09:15:42Z</time>
      </trkpt>
      <trkpt lat="43.36335" lon="5.48988">
        <ele>183.27</ele>
        <time>2012-01-15T09:15:43Z</time>
      </trkpt>
      <trkpt lat="43.36335" lon="5.48984">
        <ele>185.19</ele>
        <time>2012-01-15T09:15:44Z</time>
      </trkpt>
      <trkpt lat="43.36334" lon="5.48981">
        <ele>182.31</ele>
        <time>2012-01-15T09:15:45Z</time>
      </trkpt>
      <trkpt lat="43.36334" lon="5.48978">
        <ele>182.79</ele>
        <time>2012-01-15T09:15:46Z</time>
      </trkpt>
      <trkpt lat="43.36328" lon="5.4896">
        <ele>186.15</ele>
        <time>2012-01-15T09:15:57Z</time>
      </trkpt>
      <trkpt lat="43.36319" lon="5.48937">
        <ele>187.11</ele>
        <time>2012-01-15T09:16:11Z</time>
      </trkpt>
      <trkpt lat="43.36319" lon="5.48936">
        <ele>186.63</ele>
        <time>2012-01-15T09:16:12Z</time>
      </trkpt>
      <trkpt lat="43.36319" lon="5.48933">
        <ele>187.59</ele>
        <time>2012-01-15T09:16:13Z</time>
      </trkpt>
      <trkpt lat="43.36319" lon="5.48931">
        <ele>187.59</ele>
        <time>2012-01-15T09:16:14Z</time>
      </trkpt>
      <trkpt lat="43.36319" lon="5.48928">
        <ele>188.08</ele>
        <time>2012-01-15T09:16:15Z</time>
      </trkpt>
      <trkpt lat="43.36319" lon="5.48925">
        <ele>187.11</ele>
        <time>2012-01-15T09:16:16Z</time>
      </trkpt>
      <trkpt lat="43.36319" lon="5.48923">
        <ele>187.11</ele>
        <time>2012-01-15T09:16:17Z</time>
      </trkpt>
      <trkpt lat="43.3632" lon="5.48921">
        <ele>187.59</ele>
        <time>2012-01-15T09:16:18Z</time>
      </trkpt>
      <trkpt lat="43.36321" lon="5.48918">
        <ele>188.08</ele>
        <time>2012-01-15T09:16:19Z</time>
      </trkpt>
      <trkpt lat="43.36322" lon="5.48916">
        <ele>187.59</ele>
        <time>2012-01-15T09:16:20Z</time>
      </trkpt>
      <trkpt lat="43.36323" lon="5.48914">
        <ele>188.56</ele>
        <time>2012-01-15T09:16:21Z</time>
      </trkpt>
      <trkpt lat="43.36329" lon="5.48909">
        <ele>189.04</ele>
        <time>2012-01-15T09:16:25Z</time>
      </trkpt>
      <trkpt lat="43.36335" lon="5.48908">
        <ele>187.11</ele>
        <time>2012-01-15T09:16:29Z</time>
      </trkpt>
      <trkpt lat="43.36341" lon="5.48907">
        <ele>188.56</ele>
        <time>2012-01-15T09:16:34Z</time>
      </trkpt>
      <trkpt lat="43.36359" lon="5.48908">
        <ele>190</ele>
        <time>2012-01-15T09:16:47Z</time>
      </trkpt>
      <trkpt lat="43.36374" lon="5.48904">
        <ele>190</ele>
        <time>2012-01-15T09:16:56Z</time>
      </trkpt>
      <trkpt lat="43.36379" lon="5.48904">
        <ele>189.52</ele>
        <time>2012-01-15T09:17:00Z</time>
      </trkpt>
      <trkpt lat="43.36381" lon="5.48904">
        <ele>190.96</ele>
        <time>2012-01-15T09:17:01Z</time>
      </trkpt>
      <trkpt lat="43.36382" lon="5.48904">
        <ele>191.44</ele>
        <time>2012-01-15T09:17:02Z</time>
      </trkpt>
      <trkpt lat="43.36415" lon="5.48905">
        <ele>190</ele>
        <time>2012-01-15T09:17:19Z</time>
      </trkpt>
      <trkpt lat="43.36431" lon="5.48908">
        <ele>189.52</ele>
        <time>2012-01-15T09:17:32Z</time>
      </trkpt>
      <trkpt lat="43.36433" lon="5.48908">
        <ele>190.48</ele>
        <time>2012-01-15T09:17:33Z</time>
      </trkpt>
      <trkpt lat="43.36457" lon="5.48902">
        <ele>190.96</ele>
        <time>2012-01-15T09:17:50Z</time>
      </trkpt>
      <trkpt lat="43.36476" lon="5.48897">
        <ele>189.04</ele>
        <time>2012-01-15T09:18:07Z</time>
      </trkpt>
      <trkpt lat="43.3648" lon="5.48896">
        <ele>189.04</ele>
        <time>2012-01-15T09:18:09Z</time>
      </trkpt>
      <trkpt lat="43.36482" lon="5.48896">
        <ele>190</ele>
        <time>2012-01-15T09:18:10Z</time>
      </trkpt>
      <trkpt lat="43.36506" lon="5.4889">
        <ele>186.63</ele>
        <time>2012-01-15T09:18:21Z</time>
      </trkpt>
      <trkpt lat="43.3653" lon="5.4888">
        <ele>188.08</ele>
        <time>2012-01-15T09:18:37Z</time>
      </trkpt>
      <trkpt lat="43.36563" lon="5.48866">
        <ele>190.48</ele>
        <time>2012-01-15T09:18:56Z</time>
      </trkpt>
      <trkpt lat="43.36587" lon="5.48842">
        <ele>190</ele>
        <time>2012-01-15T09:19:17Z</time>
      </trkpt>
      <trkpt lat="43.36608" lon="5.48834">
        <ele>191.44</ele>
        <time>2012-01-15T09:19:31Z</time>
      </trkpt>
      <trkpt lat="43.36609" lon="5.48832">
        <ele>192.4</ele>
        <time>2012-01-15T09:19:32Z</time>
      </trkpt>
      <trkpt lat="43.36611" lon="5.48832">
        <ele>192.4</ele>
        <time>2012-01-15T09:19:33Z</time>
      </trkpt>
      <trkpt lat="43.36612" lon="5.48831">
        <ele>192.4</ele>
        <time>2012-01-15T09:19:34Z</time>
      </trkpt>
      <trkpt lat="43.36614" lon="5.4883">
        <ele>192.88</ele>
        <time>2012-01-15T09:19:35Z</time>
      </trkpt>
      <trkpt lat="43.36621" lon="5.48825">
        <ele>193.84</ele>
        <time>2012-01-15T09:19:39Z</time>
      </trkpt>
      <trkpt lat="43.36624" lon="5.48819">
        <ele>186.63</ele>
        <time>2012-01-15T09:19:45Z</time>
      </trkpt>
      <trkpt lat="43.36626" lon="5.48817">
        <ele>192.4</ele>
        <time>2012-01-15T09:19:46Z</time>
      </trkpt>
      <trkpt lat="43.36646" lon="5.4879">
        <ele>191.44</ele>
        <time>2012-01-15T09:20:03Z</time>
      </trkpt>
      <trkpt lat="43.36648" lon="5.48788">
        <ele>190</ele>
        <time>2012-01-15T09:20:04Z</time>
      </trkpt>
      <trkpt lat="43.3665" lon="5.48786">
        <ele>189.04</ele>
        <time>2012-01-15T09:20:05Z</time>
      </trkpt>
      <trkpt lat="43.36652" lon="5.48785">
        <ele>189.04</ele>
        <time>2012-01-15T09:20:06Z</time>
      </trkpt>
      <trkpt lat="43.36655" lon="5.48782">
        <ele>190.96</ele>
        <time>2012-01-15T09:20:08Z</time>
      </trkpt>
      <trkpt lat="43.36656" lon="5.4878">
        <ele>192.88</ele>
        <time>2012-01-15T09:20:09Z</time>
      </trkpt>
      <trkpt lat="43.36657" lon="5.48779">
        <ele>193.36</ele>
        <time>2012-01-15T09:20:10Z</time>
      </trkpt>
      <trkpt lat="43.3667" lon="5.4876">
        <ele>192.88</ele>
        <time>2012-01-15T09:20:23Z</time>
      </trkpt>
      <trkpt lat="43.36671" lon="5.48758">
        <ele>192.88</ele>
        <time>2012-01-15T09:20:24Z</time>
      </trkpt>
      <trkpt lat="43.36671" lon="5.48756">
        <ele>192.88</ele>
        <time>2012-01-15T09:20:25Z</time>
      </trkpt>
      <trkpt lat="43.36672" lon="5.48754">
        <ele>192.88</ele>
        <time>2012-01-15T09:20:26Z</time>
      </trkpt>
      <trkpt lat="43.36673" lon="5.48752">
        <ele>192.4</ele>
        <time>2012-01-15T09:20:27Z</time>
      </trkpt>
      <trkpt lat="43.36674" lon="5.4875">
        <ele>192.4</ele>
        <time>2012-01-15T09:20:28Z</time>
      </trkpt>
      <trkpt lat="43.36675" lon="5.48748">
        <ele>193.36</ele>
        <time>2012-01-15T09:20:29Z</time>
      </trkpt>
      <trkpt lat="43.36676" lon="5.48746">
        <ele>193.36</ele>
        <time>2012-01-15T09:20:30Z</time>
      </trkpt>
      <trkpt lat="43.36677" lon="5.48744">
        <ele>193.36</ele>
        <time>2012-01-15T09:20:31Z</time>
      </trkpt>
      <trkpt lat="43.36679" lon="5.48741">
        <ele>193.36</ele>
        <time>2012-01-15T09:20:33Z</time>
      </trkpt>
      <trkpt lat="43.36681" lon="5.48739">
        <ele>192.88</ele>
        <time>2012-01-15T09:20:35Z</time>
      </trkpt>
      <trkpt lat="43.36681" lon="5.48737">
        <ele>192.88</ele>
        <time>2012-01-15T09:20:36Z</time>
      </trkpt>
      <trkpt lat="43.36683" lon="5.48735">
        <ele>193.36</ele>
        <time>2012-01-15T09:20:37Z</time>
      </trkpt>
      <trkpt lat="43.36685" lon="5.48733">
        <ele>193.84</ele>
        <time>2012-01-15T09:20:38Z</time>
      </trkpt>
      <trkpt lat="43.36687" lon="5.48732">
        <ele>193.84</ele>
        <time>2012-01-15T09:20:39Z</time>
      </trkpt>
      <trkpt lat="43.36694" lon="5.48721">
        <ele>193.84</ele>
        <time>2012-01-15T09:20:46Z</time>
      </trkpt>
      <trkpt lat="43.36696" lon="5.48715">
        <ele>193.84</ele>
        <time>2012-01-15T09:20:49Z</time>
      </trkpt>
      <trkpt lat="43.367" lon="5.48712">
        <ele>193.84</ele>
        <time>2012-01-15T09:20:52Z</time>
      </trkpt>
      <trkpt lat="43.36703" lon="5.48709">
        <ele>193.36</ele>
        <time>2012-01-15T09:20:54Z</time>
      </trkpt>
      <trkpt lat="43.36708" lon="5.48703">
        <ele>194.32</ele>
        <time>2012-01-15T09:20:58Z</time>
      </trkpt>
      <trkpt lat="43.36712" lon="5.48698">
        <ele>194.8</ele>
        <time>2012-01-15T09:21:01Z</time>
      </trkpt>
      <trkpt lat="43.36717" lon="5.4869">
        <ele>195.77</ele>
        <time>2012-01-15T09:21:07Z</time>
      </trkpt>
      <trkpt lat="43.36719" lon="5.48678">
        <ele>195.77</ele>
        <time>2012-01-15T09:21:12Z</time>
      </trkpt>
      <trkpt lat="43.36724" lon="5.48658">
        <ele>196.25</ele>
        <time>2012-01-15T09:21:21Z</time>
      </trkpt>
      <trkpt lat="43.36729" lon="5.48645">
        <ele>197.69</ele>
        <time>2012-01-15T09:21:28Z</time>
      </trkpt>
      <trkpt lat="43.3673" lon="5.48645">
        <ele>197.69</ele>
        <time>2012-01-15T09:21:29Z</time>
      </trkpt>
      <trkpt lat="43.36733" lon="5.48631">
        <ele>199.13</ele>
        <time>2012-01-15T09:21:36Z</time>
      </trkpt>
      <trkpt lat="43.36754" lon="5.48611">
        <ele>199.13</ele>
        <time>2012-01-15T09:21:54Z</time>
      </trkpt>
      <trkpt lat="43.36776" lon="5.48592">
        <ele>202.49</ele>
        <time>2012-01-15T09:22:10Z</time>
      </trkpt>
      <trkpt lat="43.36777" lon="5.48591">
        <ele>202.01</ele>
        <time>2012-01-15T09:22:11Z</time>
      </trkpt>
      <trkpt lat="43.36786" lon="5.48584">
        <ele>204.42</ele>
        <time>2012-01-15T09:22:18Z</time>
      </trkpt>
      <trkpt lat="43.36793" lon="5.48584">
        <ele>204.9</ele>
        <time>2012-01-15T09:22:22Z</time>
      </trkpt>
      <trkpt lat="43.36814" lon="5.48592">
        <ele>202.49</ele>
        <time>2012-01-15T09:22:31Z</time>
      </trkpt>
      <trkpt lat="43.36848" lon="5.48615">
        <ele>202.98</ele>
        <time>2012-01-15T09:22:45Z</time>
      </trkpt>
      <trkpt lat="43.36867" lon="5.48626">
        <ele>203.46</ele>
        <time>2012-01-15T09:22:54Z</time>
      </trkpt>
      <trkpt lat="43.36876" lon="5.48623">
        <ele>202.98</ele>
        <time>2012-01-15T09:22:58Z</time>
      </trkpt>
      <trkpt lat="43.36888" lon="5.48613">
        <ele>204.9</ele>
        <time>2012-01-15T09:23:03Z</time>
      </trkpt>
      <trkpt lat="43.36905" lon="5.48615">
        <ele>205.86</ele>
        <time>2012-01-15T09:23:10Z</time>
      </trkpt>
      <trkpt lat="43.3691" lon="5.48625">
        <ele>206.82</ele>
        <time>2012-01-15T09:23:14Z</time>
      </trkpt>
      <trkpt lat="43.36915" lon="5.48636">
        <ele>208.26</ele>
        <time>2012-01-15T09:23:18Z</time>
      </trkpt>
      <trkpt lat="43.36919" lon="5.48657">
        <ele>209.22</ele>
        <time>2012-01-15T09:23:25Z</time>
      </trkpt>
      <trkpt lat="43.36921" lon="5.48673">
        <ele>210.67</ele>
        <time>2012-01-15T09:23:31Z</time>
      </trkpt>
      <trkpt lat="43.36917" lon="5.48696">
        <ele>210.67</ele>
        <time>2012-01-15T09:23:38Z</time>
      </trkpt>
      <trkpt lat="43.36929" lon="5.48728">
        <ele>211.63</ele>
        <time>2012-01-15T09:23:50Z</time>
      </trkpt>
      <trkpt lat="43.36932" lon="5.48733">
        <ele>212.11</ele>
        <time>2012-01-15T09:23:52Z</time>
      </trkpt>
      <trkpt lat="43.36945" lon="5.48742">
        <ele>214.03</ele>
        <time>2012-01-15T09:23:58Z</time>
      </trkpt>
      <trkpt lat="43.3696" lon="5.48745">
        <ele>214.51</ele>
        <time>2012-01-15T09:24:03Z</time>
      </trkpt>
      <trkpt lat="43.3699" lon="5.48735">
        <ele>215.95</ele>
        <time>2012-01-15T09:24:16Z</time>
      </trkpt>
      <trkpt lat="43.37016" lon="5.48738">
        <ele>217.88</ele>
        <time>2012-01-15T09:24:29Z</time>
      </trkpt>
      <trkpt lat="43.37021" lon="5.48746">
        <ele>217.88</ele>
        <time>2012-01-15T09:24:32Z</time>
      </trkpt>
      <trkpt lat="43.37029" lon="5.48753">
        <ele>218.84</ele>
        <time>2012-01-15T09:24:37Z</time>
      </trkpt>
      <trkpt lat="43.37061" lon="5.4876">
        <ele>219.8</ele>
        <time>2012-01-15T09:24:51Z</time>
      </trkpt>
      <trkpt lat="43.37063" lon="5.48759">
        <ele>219.8</ele>
        <time>2012-01-15T09:24:52Z</time>
      </trkpt>
      <trkpt lat="43.37078" lon="5.48749">
        <ele>220.28</ele>
        <time>2012-01-15T09:24:58Z</time>
      </trkpt>
      <trkpt lat="43.371" lon="5.48738">
        <ele>222.2</ele>
        <time>2012-01-15T09:25:08Z</time>
      </trkpt>
      <trkpt lat="43.37113" lon="5.48746">
        <ele>222.2</ele>
        <time>2012-01-15T09:25:15Z</time>
      </trkpt>
      <trkpt lat="43.37124" lon="5.48765">
        <ele>222.68</ele>
        <time>2012-01-15T09:25:24Z</time>
      </trkpt>
      <trkpt lat="43.37141" lon="5.48801">
        <ele>224.12</ele>
        <time>2012-01-15T09:25:38Z</time>
      </trkpt>
      <trkpt lat="43.37147" lon="5.48805">
        <ele>224.12</ele>
        <time>2012-01-15T09:25:41Z</time>
      </trkpt>
      <trkpt lat="43.37158" lon="5.48812">
        <ele>225.09</ele>
        <time>2012-01-15T09:25:47Z</time>
      </trkpt>
      <trkpt lat="43.37174" lon="5.4881">
        <ele>225.57</ele>
        <time>2012-01-15T09:25:54Z</time>
      </trkpt>
      <trkpt lat="43.372" lon="5.48803">
        <ele>226.05</ele>
        <time>2012-01-15T09:26:04Z</time>
      </trkpt>
      <trkpt lat="43.3722" lon="5.48795">
        <ele>227.01</ele>
        <time>2012-01-15T09:26:12Z</time>
      </trkpt>
      <trkpt lat="43.37235" lon="5.48789">
        <ele>227.49</ele>
        <time>2012-01-15T09:26:18Z</time>
      </trkpt>
      <trkpt lat="43.37258" lon="5.48763">
        <ele>229.41</ele>
        <time>2012-01-15T09:26:32Z</time>
      </trkpt>
      <trkpt lat="43.37267" lon="5.48748">
        <ele>230.85</ele>
        <time>2012-01-15T09:26:39Z</time>
      </trkpt>
      <trkpt lat="43.37292" lon="5.48731">
        <ele>231.81</ele>
        <time>2012-01-15T09:26:52Z</time>
      </trkpt>
      <trkpt lat="43.37294" lon="5.48731">
        <ele>231.33</ele>
        <time>2012-01-15T09:26:53Z</time>
      </trkpt>
      <trkpt lat="43.373" lon="5.4873">
        <ele>231.81</ele>
        <time>2012-01-15T09:26:56Z</time>
      </trkpt>
      <trkpt lat="43.37315" lon="5.4873">
        <ele>232.3</ele>
        <time>2012-01-15T09:27:03Z</time>
      </trkpt>
      <trkpt lat="43.37338" lon="5.48727">
        <ele>232.78</ele>
        <time>2012-01-15T09:27:12Z</time>
      </trkpt>
      <trkpt lat="43.37358" lon="5.48725">
        <ele>233.74</ele>
        <time>2012-01-15T09:27:23Z</time>
      </trkpt>
      <trkpt lat="43.37368" lon="5.48719">
        <ele>234.7</ele>
        <time>2012-01-15T09:27:27Z</time>
      </trkpt>
      <trkpt lat="43.3739" lon="5.48708">
        <ele>236.14</ele>
        <time>2012-01-15T09:27:36Z</time>
      </trkpt>
      <trkpt lat="43.37403" lon="5.48702">
        <ele>237.58</ele>
        <time>2012-01-15T09:27:42Z</time>
      </trkpt>
      <trkpt lat="43.37428" lon="5.48694">
        <ele>238.54</ele>
        <time>2012-01-15T09:27:52Z</time>
      </trkpt>
      <trkpt lat="43.37437" lon="5.48689">
        <ele>239.02</ele>
        <time>2012-01-15T09:27:56Z</time>
      </trkpt>
      <trkpt lat="43.37441" lon="5.48684">
        <ele>238.54</ele>
        <time>2012-01-15T09:27:58Z</time>
      </trkpt>
      <trkpt lat="43.37458" lon="5.48696">
        <ele>239.51</ele>
        <time>2012-01-15T09:28:10Z</time>
      </trkpt>
      <trkpt lat="43.37483" lon="5.48722">
        <ele>239.99</ele>
        <time>2012-01-15T09:28:22Z</time>
      </trkpt>
      <trkpt lat="43.37496" lon="5.48725">
        <ele>240.95</ele>
        <time>2012-01-15T09:28:27Z</time>
      </trkpt>
      <trkpt lat="43.37506" lon="5.48729">
        <ele>241.43</ele>
        <time>2012-01-15T09:28:31Z</time>
      </trkpt>
      <trkpt lat="43.37526" lon="5.48735">
        <ele>241.43</ele>
        <time>2012-01-15T09:28:40Z</time>
      </trkpt>
      <trkpt lat="43.37531" lon="5.48733">
        <ele>242.39</ele>
        <time>2012-01-15T09:28:42Z</time>
      </trkpt>
      <trkpt lat="43.37539" lon="5.48734">
        <ele>241.91</ele>
        <time>2012-01-15T09:28:45Z</time>
      </trkpt>
      <trkpt lat="43.3756" lon="5.48735">
        <ele>242.87</ele>
        <time>2012-01-15T09:28:54Z</time>
      </trkpt>
      <trkpt lat="43.37598" lon="5.48741">
        <ele>244.79</ele>
        <time>2012-01-15T09:29:10Z</time>
      </trkpt>
      <trkpt lat="43.37612" lon="5.48752">
        <ele>245.27</ele>
        <time>2012-01-15T09:29:18Z</time>
      </trkpt>
      <trkpt lat="43.37618" lon="5.48759">
        <ele>245.27</ele>
        <time>2012-01-15T09:29:22Z</time>
      </trkpt>
      <trkpt lat="43.37627" lon="5.48765">
        <ele>246.72</ele>
        <time>2012-01-15T09:29:27Z</time>
      </trkpt>
      <trkpt lat="43.37647" lon="5.48764">
        <ele>248.16</ele>
        <time>2012-01-15T09:29:36Z</time>
      </trkpt>
      <trkpt lat="43.37674" lon="5.48747">
        <ele>248.64</ele>
        <time>2012-01-15T09:29:48Z</time>
      </trkpt>
      <trkpt lat="43.37683" lon="5.4874">
        <ele>250.08</ele>
        <time>2012-01-15T09:29:52Z</time>
      </trkpt>
      <trkpt lat="43.37689" lon="5.48733">
        <ele>250.56</ele>
        <time>2012-01-15T09:29:56Z</time>
      </trkpt>
      <trkpt lat="43.3772" lon="5.4871">
        <ele>251.04</ele>
        <time>2012-01-15T09:30:11Z</time>
      </trkpt>
      <trkpt lat="43.37721" lon="5.48709">
        <ele>251.04</ele>
        <time>2012-01-15T09:30:12Z</time>
      </trkpt>
      <trkpt lat="43.37734" lon="5.48714">
        <ele>251.52</ele>
        <time>2012-01-15T09:30:20Z</time>
      </trkpt>
      <trkpt lat="43.37758" lon="5.48743">
        <ele>253.44</ele>
        <time>2012-01-15T09:30:39Z</time>
      </trkpt>
      <trkpt lat="43.37754" lon="5.48761">
        <ele>254.89</ele>
        <time>2012-01-15T09:30:49Z</time>
      </trkpt>
      <trkpt lat="43.37756" lon="5.48773">
        <ele>254.89</ele>
        <time>2012-01-15T09:30:53Z</time>
      </trkpt>
      <trkpt lat="43.37779" lon="5.4882">
        <ele>255.37</ele>
        <time>2012-01-15T09:31:09Z</time>
      </trkpt>
      <trkpt lat="43.3778" lon="5.48822">
        <ele>255.85</ele>
        <time>2012-01-15T09:31:10Z</time>
      </trkpt>
      <trkpt lat="43.37785" lon="5.48828">
        <ele>255.85</ele>
        <time>2012-01-15T09:31:15Z</time>
      </trkpt>
      <trkpt lat="43.37802" lon="5.4882">
        <ele>256.81</ele>
        <time>2012-01-15T09:31:22Z</time>
      </trkpt>
      <trkpt lat="43.37807" lon="5.48819">
        <ele>257.29</ele>
        <time>2012-01-15T09:31:24Z</time>
      </trkpt>
      <trkpt lat="43.37828" lon="5.4884">
        <ele>259.21</ele>
        <time>2012-01-15T09:31:37Z</time>
      </trkpt>
      <trkpt lat="43.37851" lon="5.48861">
        <ele>260.17</ele>
        <time>2012-01-15T09:31:50Z</time>
      </trkpt>
      <trkpt lat="43.37852" lon="5.48861">
        <ele>260.17</ele>
        <time>2012-01-15T09:31:51Z</time>
      </trkpt>
      <trkpt lat="43.37877" lon="5.48868">
        <ele>262.58</ele>
        <time>2012-01-15T09:32:06Z</time>
      </trkpt>
      <trkpt lat="43.37902" lon="5.4886">
        <ele>264.02</ele>
        <time>2012-01-15T09:32:20Z</time>
      </trkpt>
      <trkpt lat="43.37933" lon="5.48861">
        <ele>265.94</ele>
        <time>2012-01-15T09:32:33Z</time>
      </trkpt>
      <trkpt lat="43.37938" lon="5.4886">
        <ele>266.9</ele>
        <time>2012-01-15T09:32:35Z</time>
      </trkpt>
      <trkpt lat="43.37947" lon="5.48856">
        <ele>267.38</ele>
        <time>2012-01-15T09:32:39Z</time>
      </trkpt>
      <trkpt lat="43.37959" lon="5.48851">
        <ele>268.83</ele>
        <time>2012-01-15T09:32:46Z</time>
      </trkpt>
      <trkpt lat="43.37965" lon="5.4885">
        <ele>268.83</ele>
        <time>2012-01-15T09:32:50Z</time>
      </trkpt>
      <trkpt lat="43.37975" lon="5.48853">
        <ele>270.27</ele>
        <time>2012-01-15T09:32:55Z</time>
      </trkpt>
      <trkpt lat="43.3798" lon="5.48855">
        <ele>271.71</ele>
        <time>2012-01-15T09:32:58Z</time>
      </trkpt>
      <trkpt lat="43.37987" lon="5.48859">
        <ele>272.19</ele>
        <time>2012-01-15T09:33:02Z</time>
      </trkpt>
      <trkpt lat="43.37998" lon="5.48867">
        <ele>272.67</ele>
        <time>2012-01-15T09:33:08Z</time>
      </trkpt>
      <trkpt lat="43.38001" lon="5.4887">
        <ele>272.67</ele>
        <time>2012-01-15T09:33:10Z</time>
      </trkpt>
      <trkpt lat="43.38009" lon="5.48872">
        <ele>272.67</ele>
        <time>2012-01-15T09:33:14Z</time>
      </trkpt>
      <trkpt lat="43.38035" lon="5.48878">
        <ele>276.04</ele>
        <time>2012-01-15T09:33:28Z</time>
      </trkpt>
      <trkpt lat="43.38053" lon="5.48871">
        <ele>277.48</ele>
        <time>2012-01-15T09:33:41Z</time>
      </trkpt>
      <trkpt lat="43.38053" lon="5.48871">
        <ele>274.11</ele>
        <time>2012-01-15T09:33:44Z</time>
      </trkpt>
      <trkpt lat="43.38053" lon="5.48871">
        <ele>275.07</ele>
        <time>2012-01-15T09:33:45Z</time>
      </trkpt>
      <trkpt lat="43.38053" lon="5.48871">
        <ele>271.71</ele>
        <time>2012-01-15T09:34:01Z</time>
      </trkpt>
      <trkpt lat="43.38053" lon="5.48871">
        <ele>276.04</ele>
        <time>2012-01-15T09:34:02Z</time>
      </trkpt>
      <trkpt lat="43.38053" lon="5.48871">
        <ele>273.15</ele>
        <time>2012-01-15T09:34:07Z</time>
      </trkpt>
      <trkpt lat="43.38053" lon="5.48871">
        <ele>276.52</ele>
        <time>2012-01-15T09:34:08Z</time>
      </trkpt>
      <trkpt lat="43.38057" lon="5.48867">
        <ele>276.52</ele>
        <time>2012-01-15T09:34:25Z</time>
      </trkpt>
      <trkpt lat="43.38059" lon="5.48863">
        <ele>276.04</ele>
        <time>2012-01-15T09:34:27Z</time>
      </trkpt>
      <trkpt lat="43.38069" lon="5.48847">
        <ele>276.52</ele>
        <time>2012-01-15T09:34:39Z</time>
      </trkpt>
      <trkpt lat="43.38073" lon="5.48842">
        <ele>276.52</ele>
        <time>2012-01-15T09:34:44Z</time>
      </trkpt>
      <trkpt lat="43.38084" lon="5.48833">
        <ele>279.4</ele>
        <time>2012-01-15T09:34:54Z</time>
      </trkpt>
      <trkpt lat="43.38109" lon="5.48831">
        <ele>279.88</ele>
        <time>2012-01-15T09:35:12Z</time>
      </trkpt>
      <trkpt lat="43.38113" lon="5.4883">
        <ele>280.84</ele>
        <time>2012-01-15T09:35:14Z</time>
      </trkpt>
      <trkpt lat="43.38129" lon="5.48826">
        <ele>282.77</ele>
        <time>2012-01-15T09:35:25Z</time>
      </trkpt>
      <trkpt lat="43.38144" lon="5.48838">
        <ele>284.69</ele>
        <time>2012-01-15T09:35:36Z</time>
      </trkpt>
      <trkpt lat="43.3816" lon="5.48853">
        <ele>284.69</ele>
        <time>2012-01-15T09:35:43Z</time>
      </trkpt>
      <trkpt lat="43.38202" lon="5.48891">
        <ele>284.21</ele>
        <time>2012-01-15T09:36:01Z</time>
      </trkpt>
      <trkpt lat="43.38214" lon="5.48903">
        <ele>284.69</ele>
        <time>2012-01-15T09:36:07Z</time>
      </trkpt>
      <trkpt lat="43.38219" lon="5.48903">
        <ele>284.69</ele>
        <time>2012-01-15T09:36:10Z</time>
      </trkpt>
      <trkpt lat="43.38235" lon="5.4889">
        <ele>285.65</ele>
        <time>2012-01-15T09:36:17Z</time>
      </trkpt>
      <trkpt lat="43.38266" lon="5.48925">
        <ele>288.53</ele>
        <time>2012-01-15T09:36:34Z</time>
      </trkpt>
      <trkpt lat="43.38268" lon="5.48944">
        <ele>290.94</ele>
        <time>2012-01-15T09:36:43Z</time>
      </trkpt>
      <trkpt lat="43.38273" lon="5.48956">
        <ele>291.9</ele>
        <time>2012-01-15T09:36:48Z</time>
      </trkpt>
      <trkpt lat="43.38279" lon="5.48964">
        <ele>292.86</ele>
        <time>2012-01-15T09:36:51Z</time>
      </trkpt>
      <trkpt lat="43.38294" lon="5.48986">
        <ele>294.3</ele>
        <time>2012-01-15T09:37:01Z</time>
      </trkpt>
      <trkpt lat="43.38319" lon="5.49025">
        <ele>295.74</ele>
        <time>2012-01-15T09:37:18Z</time>
      </trkpt>
      <trkpt lat="43.3832" lon="5.49082">
        <ele>296.22</ele>
        <time>2012-01-15T09:37:35Z</time>
      </trkpt>
      <trkpt lat="43.38315" lon="5.49107">
        <ele>295.26</ele>
        <time>2012-01-15T09:37:43Z</time>
      </trkpt>
      <trkpt lat="43.38314" lon="5.4911">
        <ele>295.26</ele>
        <time>2012-01-15T09:37:55Z</time>
      </trkpt>
      <trkpt lat="43.38313" lon="5.49117">
        <ele>296.22</ele>
        <time>2012-01-15T09:37:59Z</time>
      </trkpt>
      <trkpt lat="43.38314" lon="5.49124">
        <ele>296.22</ele>
        <time>2012-01-15T09:38:05Z</time>
      </trkpt>
      <trkpt lat="43.38307" lon="5.49153">
        <ele>296.7</ele>
        <time>2012-01-15T09:38:18Z</time>
      </trkpt>
      <trkpt lat="43.38309" lon="5.49159">
        <ele>292.38</ele>
        <time>2012-01-15T09:38:22Z</time>
      </trkpt>
      <trkpt lat="43.3831" lon="5.49161">
        <ele>296.7</ele>
        <time>2012-01-15T09:38:23Z</time>
      </trkpt>
      <trkpt lat="43.38316" lon="5.49164">
        <ele>295.26</ele>
        <time>2012-01-15T09:38:32Z</time>
      </trkpt>
      <trkpt lat="43.38326" lon="5.49152">
        <ele>299.59</ele>
        <time>2012-01-15T09:38:42Z</time>
      </trkpt>
      <trkpt lat="43.38328" lon="5.4915">
        <ele>299.59</ele>
        <time>2012-01-15T09:38:43Z</time>
      </trkpt>
      <trkpt lat="43.38333" lon="5.49144">
        <ele>301.51</ele>
        <time>2012-01-15T09:38:52Z</time>
      </trkpt>
      <trkpt lat="43.38339" lon="5.49131">
        <ele>304.39</ele>
        <time>2012-01-15T09:39:03Z</time>
      </trkpt>
      <trkpt lat="43.38343" lon="5.49122">
        <ele>305.84</ele>
        <time>2012-01-15T09:39:09Z</time>
      </trkpt>
      <trkpt lat="43.38342" lon="5.49123">
        <ele>306.32</ele>
        <time>2012-01-15T09:39:14Z</time>
      </trkpt>
      <trkpt lat="43.38346" lon="5.49117">
        <ele>300.55</ele>
        <time>2012-01-15T09:39:28Z</time>
      </trkpt>
      <trkpt lat="43.38346" lon="5.49117">
        <ele>308.72</ele>
        <time>2012-01-15T09:39:29Z</time>
      </trkpt>
      <trkpt lat="43.38346" lon="5.49117">
        <ele>304.88</ele>
        <time>2012-01-15T09:39:30Z</time>
      </trkpt>
      <trkpt lat="43.38346" lon="5.49117">
        <ele>303.91</ele>
        <time>2012-01-15T09:39:51Z</time>
      </trkpt>
      <trkpt lat="43.38344" lon="5.49123">
        <ele>302.95</ele>
        <time>2012-01-15T09:39:54Z</time>
      </trkpt>
      <trkpt lat="43.38337" lon="5.49133">
        <ele>303.43</ele>
        <time>2012-01-15T09:40:00Z</time>
      </trkpt>
      <trkpt lat="43.38336" lon="5.4914">
        <ele>301.51</ele>
        <time>2012-01-15T09:40:05Z</time>
      </trkpt>
      <trkpt lat="43.38334" lon="5.49147">
        <ele>300.07</ele>
        <time>2012-01-15T09:40:08Z</time>
      </trkpt>
      <trkpt lat="43.38327" lon="5.49159">
        <ele>298.63</ele>
        <time>2012-01-15T09:40:14Z</time>
      </trkpt>
      <trkpt lat="43.38315" lon="5.49169">
        <ele>296.22</ele>
        <time>2012-01-15T09:40:26Z</time>
      </trkpt>
      <trkpt lat="43.38306" lon="5.49148">
        <ele>296.22</ele>
        <time>2012-01-15T09:40:39Z</time>
      </trkpt>
      <trkpt lat="43.38308" lon="5.49134">
        <ele>293.82</ele>
        <time>2012-01-15T09:40:45Z</time>
      </trkpt>
      <trkpt lat="43.38308" lon="5.49128">
        <ele>294.3</ele>
        <time>2012-01-15T09:40:48Z</time>
      </trkpt>
      <trkpt lat="43.38311" lon="5.49119">
        <ele>296.22</ele>
        <time>2012-01-15T09:40:53Z</time>
      </trkpt>
      <trkpt lat="43.38312" lon="5.49115">
        <ele>294.78</ele>
        <time>2012-01-15T09:40:55Z</time>
      </trkpt>
      <trkpt lat="43.38313" lon="5.49098">
        <ele>295.26</ele>
        <time>2012-01-15T09:41:05Z</time>
      </trkpt>
      <trkpt lat="43.38313" lon="5.49062">
        <ele>295.26</ele>
        <time>2012-01-15T09:41:24Z</time>
      </trkpt>
      <trkpt lat="43.38312" lon="5.49029">
        <ele>294.78</ele>
        <time>2012-01-15T09:41:41Z</time>
      </trkpt>
      <trkpt lat="43.38306" lon="5.49009">
        <ele>294.3</ele>
        <time>2012-01-15T09:41:54Z</time>
      </trkpt>
      <trkpt lat="43.38285" lon="5.48984">
        <ele>293.34</ele>
        <time>2012-01-15T09:42:11Z</time>
      </trkpt>
      <trkpt lat="43.38284" lon="5.48982">
        <ele>290.46</ele>
        <time>2012-01-15T09:42:12Z</time>
      </trkpt>
      <trkpt lat="43.38276" lon="5.4897">
        <ele>291.42</ele>
        <time>2012-01-15T09:42:22Z</time>
      </trkpt>
      <trkpt lat="43.38273" lon="5.48956">
        <ele>290.46</ele>
        <time>2012-01-15T09:42:34Z</time>
      </trkpt>
      <trkpt lat="43.38269" lon="5.48948">
        <ele>289.97</ele>
        <time>2012-01-15T09:42:37Z</time>
      </trkpt>
      <trkpt lat="43.38262" lon="5.48923">
        <ele>287.09</ele>
        <time>2012-01-15T09:42:49Z</time>
      </trkpt>
      <trkpt lat="43.3826" lon="5.48919">
        <ele>287.09</ele>
        <time>2012-01-15T09:42:52Z</time>
      </trkpt>
      <trkpt lat="43.38258" lon="5.48914">
        <ele>288.05</ele>
        <time>2012-01-15T09:43:08Z</time>
      </trkpt>
      <trkpt lat="43.38261" lon="5.48911">
        <ele>291.42</ele>
        <time>2012-01-15T09:43:20Z</time>
      </trkpt>
      <trkpt lat="43.38262" lon="5.48909">
        <ele>294.78</ele>
        <time>2012-01-15T09:43:29Z</time>
      </trkpt>
      <trkpt lat="43.38262" lon="5.48909">
        <ele>296.22</ele>
        <time>2012-01-15T09:43:32Z</time>
      </trkpt>
      <trkpt lat="43.38266" lon="5.48903">
        <ele>299.59</ele>
        <time>2012-01-15T09:43:44Z</time>
      </trkpt>
      <trkpt lat="43.38266" lon="5.48904">
        <ele>302.95</ele>
        <time>2012-01-15T09:43:58Z</time>
      </trkpt>
      <trkpt lat="43.38269" lon="5.48904">
        <ele>305.84</ele>
        <time>2012-01-15T09:44:15Z</time>
      </trkpt>
      <trkpt lat="43.3827" lon="5.48902">
        <ele>308.24</ele>
        <time>2012-01-15T09:44:28Z</time>
      </trkpt>
      <trkpt lat="43.38276" lon="5.48891">
        <ele>311.6</ele>
        <time>2012-01-15T09:44:39Z</time>
      </trkpt>
      <trkpt lat="43.38277" lon="5.48891">
        <ele>314.49</ele>
        <time>2012-01-15T09:44:53Z</time>
      </trkpt>
      <trkpt lat="43.38277" lon="5.48883">
        <ele>317.37</ele>
        <time>2012-01-15T09:45:02Z</time>
      </trkpt>
      <trkpt lat="43.38278" lon="5.48878">
        <ele>318.81</ele>
        <time>2012-01-15T09:45:07Z</time>
      </trkpt>
      <trkpt lat="43.38278" lon="5.48876">
        <ele>321.7</ele>
        <time>2012-01-15T09:45:30Z</time>
      </trkpt>
      <trkpt lat="43.38279" lon="5.48875">
        <ele>322.18</ele>
        <time>2012-01-15T09:45:46Z</time>
      </trkpt>
      <trkpt lat="43.38279" lon="5.48873">
        <ele>325.06</ele>
        <time>2012-01-15T09:46:00Z</time>
      </trkpt>
      <trkpt lat="43.38279" lon="5.48873">
        <ele>326.02</ele>
        <time>2012-01-15T09:46:02Z</time>
      </trkpt>
      <trkpt lat="43.3828" lon="5.48873">
        <ele>328.91</ele>
        <time>2012-01-15T09:46:26Z</time>
      </trkpt>
      <trkpt lat="43.3828" lon="5.48869">
        <ele>328.91</ele>
        <time>2012-01-15T09:46:48Z</time>
      </trkpt>
      <trkpt lat="43.38281" lon="5.48868">
        <ele>332.27</ele>
        <time>2012-01-15T09:47:20Z</time>
      </trkpt>
      <trkpt lat="43.38282" lon="5.48859">
        <ele>332.75</ele>
        <time>2012-01-15T09:47:25Z</time>
      </trkpt>
      <trkpt lat="43.38281" lon="5.48845">
        <ele>335.64</ele>
        <time>2012-01-15T09:47:40Z</time>
      </trkpt>
      <trkpt lat="43.38279" lon="5.48843">
        <ele>336.6</ele>
        <time>2012-01-15T09:47:48Z</time>
      </trkpt>
      <trkpt lat="43.3828" lon="5.48842">
        <ele>338.04</ele>
        <time>2012-01-15T09:47:54Z</time>
      </trkpt>
      <trkpt lat="43.38286" lon="5.48839">
        <ele>340.92</ele>
        <time>2012-01-15T09:48:06Z</time>
      </trkpt>
      <trkpt lat="43.38289" lon="5.48839">
        <ele>342.37</ele>
        <time>2012-01-15T09:48:11Z</time>
      </trkpt>
      <trkpt lat="43.38293" lon="5.48833">
        <ele>343.81</ele>
        <time>2012-01-15T09:48:23Z</time>
      </trkpt>
      <trkpt lat="43.38296" lon="5.48827">
        <ele>343.33</ele>
        <time>2012-01-15T09:48:30Z</time>
      </trkpt>
      <trkpt lat="43.38298" lon="5.48826">
        <ele>343.81</ele>
        <time>2012-01-15T09:48:32Z</time>
      </trkpt>
      <trkpt lat="43.38299" lon="5.48823">
        <ele>342.85</ele>
        <time>2012-01-15T09:48:34Z</time>
      </trkpt>
      <trkpt lat="43.38311" lon="5.48817">
        <ele>342.37</ele>
        <time>2012-01-15T09:48:48Z</time>
      </trkpt>
      <trkpt lat="43.38317" lon="5.48801">
        <ele>341.41</ele>
        <time>2012-01-15T09:49:01Z</time>
      </trkpt>
      <trkpt lat="43.3832" lon="5.48801">
        <ele>342.37</ele>
        <time>2012-01-15T09:49:05Z</time>
      </trkpt>
      <trkpt lat="43.38323" lon="5.48803">
        <ele>343.33</ele>
        <time>2012-01-15T09:49:09Z</time>
      </trkpt>
      <trkpt lat="43.38326" lon="5.48801">
        <ele>343.81</ele>
        <time>2012-01-15T09:49:11Z</time>
      </trkpt>
      <trkpt lat="43.38334" lon="5.48792">
        <ele>347.65</ele>
        <time>2012-01-15T09:49:21Z</time>
      </trkpt>
      <trkpt lat="43.38334" lon="5.48792">
        <ele>347.17</ele>
        <time>2012-01-15T09:49:22Z</time>
      </trkpt>
      <trkpt lat="43.38341" lon="5.48779">
        <ele>351.02</ele>
        <time>2012-01-15T09:49:33Z</time>
      </trkpt>
      <trkpt lat="43.38348" lon="5.48745">
        <ele>352.94</ele>
        <time>2012-01-15T09:49:50Z</time>
      </trkpt>
      <trkpt lat="43.38347" lon="5.48743">
        <ele>351.98</ele>
        <time>2012-01-15T09:49:51Z</time>
      </trkpt>
      <trkpt lat="43.38342" lon="5.48708">
        <ele>353.9</ele>
        <time>2012-01-15T09:50:09Z</time>
      </trkpt>
      <trkpt lat="43.38341" lon="5.48707">
        <ele>352.94</ele>
        <time>2012-01-15T09:50:10Z</time>
      </trkpt>
      <trkpt lat="43.38342" lon="5.487">
        <ele>354.86</ele>
        <time>2012-01-15T09:50:13Z</time>
      </trkpt>
      <trkpt lat="43.38341" lon="5.48689">
        <ele>354.38</ele>
        <time>2012-01-15T09:50:20Z</time>
      </trkpt>
      <trkpt lat="43.38348" lon="5.48664">
        <ele>355.34</ele>
        <time>2012-01-15T09:50:31Z</time>
      </trkpt>
      <trkpt lat="43.38346" lon="5.48634">
        <ele>355.83</ele>
        <time>2012-01-15T09:50:50Z</time>
      </trkpt>
      <trkpt lat="43.38336" lon="5.48627">
        <ele>351.98</ele>
        <time>2012-01-15T09:50:58Z</time>
      </trkpt>
      <trkpt lat="43.38335" lon="5.48626">
        <ele>354.38</ele>
        <time>2012-01-15T09:50:59Z</time>
      </trkpt>
      <trkpt lat="43.38328" lon="5.48621">
        <ele>355.83</ele>
        <time>2012-01-15T09:51:21Z</time>
      </trkpt>
      <trkpt lat="43.38327" lon="5.48619">
        <ele>354.38</ele>
        <time>2012-01-15T09:51:23Z</time>
      </trkpt>
      <trkpt lat="43.38326" lon="5.4862">
        <ele>355.34</ele>
        <time>2012-01-15T09:51:24Z</time>
      </trkpt>
      <trkpt lat="43.38326" lon="5.48608">
        <ele>356.31</ele>
        <time>2012-01-15T09:51:30Z</time>
      </trkpt>
      <trkpt lat="43.38325" lon="5.48606">
        <ele>356.31</ele>
        <time>2012-01-15T09:51:32Z</time>
      </trkpt>
      <trkpt lat="43.38324" lon="5.48599">
        <ele>358.71</ele>
        <time>2012-01-15T09:51:36Z</time>
      </trkpt>
      <trkpt lat="43.38324" lon="5.48597">
        <ele>358.71</ele>
        <time>2012-01-15T09:51:37Z</time>
      </trkpt>
      <trkpt lat="43.38324" lon="5.48595">
        <ele>359.19</ele>
        <time>2012-01-15T09:51:38Z</time>
      </trkpt>
      <trkpt lat="43.38326" lon="5.48588">
        <ele>360.15</ele>
        <time>2012-01-15T09:51:43Z</time>
      </trkpt>
      <trkpt lat="43.38331" lon="5.48581">
        <ele>361.11</ele>
        <time>2012-01-15T09:51:50Z</time>
      </trkpt>
      <trkpt lat="43.38337" lon="5.4857">
        <ele>362.55</ele>
        <time>2012-01-15T09:51:59Z</time>
      </trkpt>
      <trkpt lat="43.3834" lon="5.48563">
        <ele>363.04</ele>
        <time>2012-01-15T09:52:05Z</time>
      </trkpt>
      <trkpt lat="43.38342" lon="5.4855">
        <ele>361.11</ele>
        <time>2012-01-15T09:52:14Z</time>
      </trkpt>
      <trkpt lat="43.38346" lon="5.48536">
        <ele>360.15</ele>
        <time>2012-01-15T09:52:22Z</time>
      </trkpt>
      <trkpt lat="43.38349" lon="5.48524">
        <ele>362.55</ele>
        <time>2012-01-15T09:52:28Z</time>
      </trkpt>
      <trkpt lat="43.38358" lon="5.48501">
        <ele>364</ele>
        <time>2012-01-15T09:52:42Z</time>
      </trkpt>
      <trkpt lat="43.38359" lon="5.48498">
        <ele>363.52</ele>
        <time>2012-01-15T09:52:51Z</time>
      </trkpt>
      <trkpt lat="43.38359" lon="5.48495">
        <ele>360.15</ele>
        <time>2012-01-15T09:52:58Z</time>
      </trkpt>
      <trkpt lat="43.38361" lon="5.48489">
        <ele>362.55</ele>
        <time>2012-01-15T09:53:04Z</time>
      </trkpt>
      <trkpt lat="43.38361" lon="5.48488">
        <ele>363.52</ele>
        <time>2012-01-15T09:53:05Z</time>
      </trkpt>
      <trkpt lat="43.38361" lon="5.48484">
        <ele>364</ele>
        <time>2012-01-15T09:53:07Z</time>
      </trkpt>
      <trkpt lat="43.38359" lon="5.48477">
        <ele>361.59</ele>
        <time>2012-01-15T09:53:11Z</time>
      </trkpt>
      <trkpt lat="43.38358" lon="5.48476">
        <ele>365.44</ele>
        <time>2012-01-15T09:53:13Z</time>
      </trkpt>
      <trkpt lat="43.38357" lon="5.48475">
        <ele>365.44</ele>
        <time>2012-01-15T09:53:14Z</time>
      </trkpt>
      <trkpt lat="43.38345" lon="5.48457">
        <ele>367.36</ele>
        <time>2012-01-15T09:53:26Z</time>
      </trkpt>
      <trkpt lat="43.38335" lon="5.48436">
        <ele>370.24</ele>
        <time>2012-01-15T09:53:39Z</time>
      </trkpt>
      <trkpt lat="43.38334" lon="5.48434">
        <ele>369.76</ele>
        <time>2012-01-15T09:53:41Z</time>
      </trkpt>
      <trkpt lat="43.38331" lon="5.48425">
        <ele>370.73</ele>
        <time>2012-01-15T09:53:45Z</time>
      </trkpt>
      <trkpt lat="43.3832" lon="5.48404">
        <ele>372.17</ele>
        <time>2012-01-15T09:54:01Z</time>
      </trkpt>
      <trkpt lat="43.38315" lon="5.484">
        <ele>372.65</ele>
        <time>2012-01-15T09:54:07Z</time>
      </trkpt>
      <trkpt lat="43.38311" lon="5.48389">
        <ele>370.73</ele>
        <time>2012-01-15T09:54:12Z</time>
      </trkpt>
      <trkpt lat="43.383" lon="5.48365">
        <ele>374.09</ele>
        <time>2012-01-15T09:54:27Z</time>
      </trkpt>
      <trkpt lat="43.38299" lon="5.4836">
        <ele>370.73</ele>
        <time>2012-01-15T09:54:29Z</time>
      </trkpt>
      <trkpt lat="43.38298" lon="5.48357">
        <ele>370.73</ele>
        <time>2012-01-15T09:54:30Z</time>
      </trkpt>
      <trkpt lat="43.38296" lon="5.48353">
        <ele>372.65</ele>
        <time>2012-01-15T09:54:33Z</time>
      </trkpt>
      <trkpt lat="43.38293" lon="5.48352">
        <ele>372.17</ele>
        <time>2012-01-15T09:54:36Z</time>
      </trkpt>
      <trkpt lat="43.38285" lon="5.48323">
        <ele>373.13</ele>
        <time>2012-01-15T09:54:51Z</time>
      </trkpt>
      <trkpt lat="43.38284" lon="5.48318">
        <ele>373.13</ele>
        <time>2012-01-15T09:54:53Z</time>
      </trkpt>
      <trkpt lat="43.38281" lon="5.48316">
        <ele>372.17</ele>
        <time>2012-01-15T09:54:58Z</time>
      </trkpt>
      <trkpt lat="43.38278" lon="5.48294">
        <ele>370.24</ele>
        <time>2012-01-15T09:55:07Z</time>
      </trkpt>
      <trkpt lat="43.38283" lon="5.48276">
        <ele>373.61</ele>
        <time>2012-01-15T09:55:18Z</time>
      </trkpt>
      <trkpt lat="43.38284" lon="5.48275">
        <ele>373.61</ele>
        <time>2012-01-15T09:55:19Z</time>
      </trkpt>
      <trkpt lat="43.38282" lon="5.48266">
        <ele>371.69</ele>
        <time>2012-01-15T09:55:25Z</time>
      </trkpt>
      <trkpt lat="43.38285" lon="5.48249">
        <ele>371.21</ele>
        <time>2012-01-15T09:55:32Z</time>
      </trkpt>
      <trkpt lat="43.38284" lon="5.48248">
        <ele>371.69</ele>
        <time>2012-01-15T09:55:34Z</time>
      </trkpt>
      <trkpt lat="43.38288" lon="5.48239">
        <ele>370.73</ele>
        <time>2012-01-15T09:55:38Z</time>
      </trkpt>
      <trkpt lat="43.38295" lon="5.48221">
        <ele>370.73</ele>
        <time>2012-01-15T09:55:50Z</time>
      </trkpt>
      <trkpt lat="43.38302" lon="5.48216">
        <ele>372.17</ele>
        <time>2012-01-15T09:55:57Z</time>
      </trkpt>
      <trkpt lat="43.38302" lon="5.48216">
        <ele>368.8</ele>
        <time>2012-01-15T09:56:04Z</time>
      </trkpt>
      <trkpt lat="43.38302" lon="5.48216">
        <ele>368.8</ele>
        <time>2012-01-15T09:56:05Z</time>
      </trkpt>
      <trkpt lat="43.38302" lon="5.48216">
        <ele>371.69</ele>
        <time>2012-01-15T09:56:18Z</time>
      </trkpt>
      <trkpt lat="43.38306" lon="5.48216">
        <ele>373.13</ele>
        <time>2012-01-15T09:56:25Z</time>
      </trkpt>
      <trkpt lat="43.38309" lon="5.48215">
        <ele>374.09</ele>
        <time>2012-01-15T09:56:30Z</time>
      </trkpt>
      <trkpt lat="43.38311" lon="5.48211">
        <ele>375.05</ele>
        <time>2012-01-15T09:56:35Z</time>
      </trkpt>
      <trkpt lat="43.38308" lon="5.48215">
        <ele>374.57</ele>
        <time>2012-01-15T09:56:42Z</time>
      </trkpt>
      <trkpt lat="43.38305" lon="5.48214">
        <ele>372.65</ele>
        <time>2012-01-15T09:56:45Z</time>
      </trkpt>
      <trkpt lat="43.38298" lon="5.48208">
        <ele>369.28</ele>
        <time>2012-01-15T09:56:51Z</time>
      </trkpt>
      <trkpt lat="43.38298" lon="5.48203">
        <ele>366.4</ele>
        <time>2012-01-15T09:56:57Z</time>
      </trkpt>
      <trkpt lat="43.38298" lon="5.482">
        <ele>365.44</ele>
        <time>2012-01-15T09:57:01Z</time>
      </trkpt>
      <trkpt lat="43.38297" lon="5.48198">
        <ele>364.48</ele>
        <time>2012-01-15T09:57:03Z</time>
      </trkpt>
      <trkpt lat="43.38296" lon="5.48189">
        <ele>360.63</ele>
        <time>2012-01-15T09:57:06Z</time>
      </trkpt>
      <trkpt lat="43.38297" lon="5.48177">
        <ele>358.71</ele>
        <time>2012-01-15T09:57:09Z</time>
      </trkpt>
      <trkpt lat="43.38304" lon="5.48167">
        <ele>357.27</ele>
        <time>2012-01-15T09:57:15Z</time>
      </trkpt>
      <trkpt lat="43.38305" lon="5.48164">
        <ele>356.31</ele>
        <time>2012-01-15T09:57:17Z</time>
      </trkpt>
      <trkpt lat="43.38314" lon="5.48154">
        <ele>355.83</ele>
        <time>2012-01-15T09:57:23Z</time>
      </trkpt>
      <trkpt lat="43.38317" lon="5.4815">
        <ele>352.94</ele>
        <time>2012-01-15T09:57:26Z</time>
      </trkpt>
      <trkpt lat="43.38324" lon="5.48136">
        <ele>353.9</ele>
        <time>2012-01-15T09:57:34Z</time>
      </trkpt>
      <trkpt lat="43.38324" lon="5.48132">
        <ele>355.83</ele>
        <time>2012-01-15T09:57:43Z</time>
      </trkpt>
      <trkpt lat="43.38324" lon="5.48132">
        <ele>355.34</ele>
        <time>2012-01-15T09:57:44Z</time>
      </trkpt>
      <trkpt lat="43.38323" lon="5.48133">
        <ele>353.9</ele>
        <time>2012-01-15T09:57:50Z</time>
      </trkpt>
      <trkpt lat="43.38322" lon="5.48133">
        <ele>350.06</ele>
        <time>2012-01-15T09:57:57Z</time>
      </trkpt>
      <trkpt lat="43.38322" lon="5.48133">
        <ele>353.42</ele>
        <time>2012-01-15T09:57:59Z</time>
      </trkpt>
      <trkpt lat="43.38322" lon="5.4813">
        <ele>349.58</ele>
        <time>2012-01-15T09:58:06Z</time>
      </trkpt>
      <trkpt lat="43.38322" lon="5.48129">
        <ele>351.02</ele>
        <time>2012-01-15T09:58:07Z</time>
      </trkpt>
      <trkpt lat="43.38315" lon="5.48111">
        <ele>345.73</ele>
        <time>2012-01-15T09:58:20Z</time>
      </trkpt>
      <trkpt lat="43.38313" lon="5.48109">
        <ele>343.81</ele>
        <time>2012-01-15T09:58:22Z</time>
      </trkpt>
      <trkpt lat="43.38311" lon="5.48101">
        <ele>341.41</ele>
        <time>2012-01-15T09:58:28Z</time>
      </trkpt>
      <trkpt lat="43.38309" lon="5.48097">
        <ele>340.92</ele>
        <time>2012-01-15T09:58:30Z</time>
      </trkpt>
      <trkpt lat="43.38308" lon="5.48084">
        <ele>339.96</ele>
        <time>2012-01-15T09:58:34Z</time>
      </trkpt>
      <trkpt lat="43.3831" lon="5.48082">
        <ele>338.52</ele>
        <time>2012-01-15T09:58:36Z</time>
      </trkpt>
      <trkpt lat="43.38311" lon="5.48078">
        <ele>338.04</ele>
        <time>2012-01-15T09:58:38Z</time>
      </trkpt>
      <trkpt lat="43.38312" lon="5.48075">
        <ele>334.2</ele>
        <time>2012-01-15T09:58:40Z</time>
      </trkpt>
      <trkpt lat="43.38312" lon="5.48074">
        <ele>335.16</ele>
        <time>2012-01-15T09:58:41Z</time>
      </trkpt>
      <trkpt lat="43.38313" lon="5.48054">
        <ele>331.79</ele>
        <time>2012-01-15T09:58:50Z</time>
      </trkpt>
      <trkpt lat="43.38318" lon="5.4805">
        <ele>329.87</ele>
        <time>2012-01-15T09:58:52Z</time>
      </trkpt>
      <trkpt lat="43.38325" lon="5.48043">
        <ele>328.91</ele>
        <time>2012-01-15T09:58:57Z</time>
      </trkpt>
      <trkpt lat="43.38326" lon="5.48037">
        <ele>328.43</ele>
        <time>2012-01-15T09:59:00Z</time>
      </trkpt>
      <trkpt lat="43.3833" lon="5.48024">
        <ele>327.95</ele>
        <time>2012-01-15T09:59:07Z</time>
      </trkpt>
      <trkpt lat="43.38329" lon="5.48018">
        <ele>325.54</ele>
        <time>2012-01-15T09:59:11Z</time>
      </trkpt>
      <trkpt lat="43.38326" lon="5.48011">
        <ele>328.91</ele>
        <time>2012-01-15T09:59:14Z</time>
      </trkpt>
      <trkpt lat="43.38324" lon="5.48008">
        <ele>329.39</ele>
        <time>2012-01-15T09:59:16Z</time>
      </trkpt>
      <trkpt lat="43.38322" lon="5.48008">
        <ele>329.39</ele>
        <time>2012-01-15T09:59:19Z</time>
      </trkpt>
      <trkpt lat="43.38321" lon="5.48006">
        <ele>329.39</ele>
        <time>2012-01-15T09:59:21Z</time>
      </trkpt>
      <trkpt lat="43.38318" lon="5.47996">
        <ele>330.35</ele>
        <time>2012-01-15T09:59:28Z</time>
      </trkpt>
      <trkpt lat="43.38315" lon="5.47986">
        <ele>330.83</ele>
        <time>2012-01-15T09:59:31Z</time>
      </trkpt>
      <trkpt lat="43.38313" lon="5.4797">
        <ele>331.79</ele>
        <time>2012-01-15T09:59:38Z</time>
      </trkpt>
      <trkpt lat="43.38315" lon="5.4795">
        <ele>329.39</ele>
        <time>2012-01-15T09:59:45Z</time>
      </trkpt>
      <trkpt lat="43.38311" lon="5.47948">
        <ele>329.87</ele>
        <time>2012-01-15T09:59:48Z</time>
      </trkpt>
      <trkpt lat="43.38313" lon="5.47947">
        <ele>328.43</ele>
        <time>2012-01-15T09:59:50Z</time>
      </trkpt>
      <trkpt lat="43.38314" lon="5.4794">
        <ele>328.91</ele>
        <time>2012-01-15T09:59:54Z</time>
      </trkpt>
      <trkpt lat="43.38315" lon="5.47933">
        <ele>327.47</ele>
        <time>2012-01-15T09:59:57Z</time>
      </trkpt>
      <trkpt lat="43.38313" lon="5.47924">
        <ele>325.54</ele>
        <time>2012-01-15T10:00:03Z</time>
      </trkpt>
      <trkpt lat="43.38313" lon="5.4792">
        <ele>324.1</ele>
        <time>2012-01-15T10:00:05Z</time>
      </trkpt>
      <trkpt lat="43.38316" lon="5.47909">
        <ele>323.14</ele>
        <time>2012-01-15T10:00:09Z</time>
      </trkpt>
      <trkpt lat="43.3832" lon="5.47894">
        <ele>321.22</ele>
        <time>2012-01-15T10:00:14Z</time>
      </trkpt>
      <trkpt lat="43.38323" lon="5.47887">
        <ele>319.78</ele>
        <time>2012-01-15T10:00:17Z</time>
      </trkpt>
      <trkpt lat="43.38338" lon="5.47869">
        <ele>319.3</ele>
        <time>2012-01-15T10:00:30Z</time>
      </trkpt>
      <trkpt lat="43.38352" lon="5.47868">
        <ele>315.45</ele>
        <time>2012-01-15T10:00:40Z</time>
      </trkpt>
      <trkpt lat="43.38354" lon="5.47868">
        <ele>316.89</ele>
        <time>2012-01-15T10:00:41Z</time>
      </trkpt>
      <trkpt lat="43.38359" lon="5.47867">
        <ele>314.49</ele>
        <time>2012-01-15T10:00:44Z</time>
      </trkpt>
      <trkpt lat="43.38379" lon="5.47882">
        <ele>318.33</ele>
        <time>2012-01-15T10:00:55Z</time>
      </trkpt>
      <trkpt lat="43.38417" lon="5.47896">
        <ele>317.85</ele>
        <time>2012-01-15T10:01:09Z</time>
      </trkpt>
      <trkpt lat="43.38429" lon="5.47902">
        <ele>315.93</ele>
        <time>2012-01-15T10:01:14Z</time>
      </trkpt>
      <trkpt lat="43.38436" lon="5.47903">
        <ele>318.81</ele>
        <time>2012-01-15T10:01:17Z</time>
      </trkpt>
      <trkpt lat="43.38455" lon="5.47886">
        <ele>321.22</ele>
        <time>2012-01-15T10:01:27Z</time>
      </trkpt>
      <trkpt lat="43.3846" lon="5.47875">
        <ele>321.7</ele>
        <time>2012-01-15T10:01:31Z</time>
      </trkpt>
      <trkpt lat="43.38478" lon="5.47829">
        <ele>323.14</ele>
        <time>2012-01-15T10:01:47Z</time>
      </trkpt>
      <trkpt lat="43.38485" lon="5.47788">
        <ele>323.14</ele>
        <time>2012-01-15T10:01:59Z</time>
      </trkpt>
      <trkpt lat="43.38499" lon="5.47752">
        <ele>325.54</ele>
        <time>2012-01-15T10:02:13Z</time>
      </trkpt>
      <trkpt lat="43.38511" lon="5.4774">
        <ele>324.1</ele>
        <time>2012-01-15T10:02:19Z</time>
      </trkpt>
      <trkpt lat="43.38516" lon="5.47743">
        <ele>325.06</ele>
        <time>2012-01-15T10:02:22Z</time>
      </trkpt>
      <trkpt lat="43.38532" lon="5.47753">
        <ele>326.02</ele>
        <time>2012-01-15T10:02:30Z</time>
      </trkpt>
      <trkpt lat="43.38548" lon="5.47759">
        <ele>326.02</ele>
        <time>2012-01-15T10:02:37Z</time>
      </trkpt>
      <trkpt lat="43.38557" lon="5.47758">
        <ele>326.99</ele>
        <time>2012-01-15T10:02:41Z</time>
      </trkpt>
      <trkpt lat="43.38561" lon="5.47755">
        <ele>327.95</ele>
        <time>2012-01-15T10:02:43Z</time>
      </trkpt>
      <trkpt lat="43.38569" lon="5.47748">
        <ele>327.47</ele>
        <time>2012-01-15T10:02:47Z</time>
      </trkpt>
      <trkpt lat="43.38596" lon="5.47734">
        <ele>328.43</ele>
        <time>2012-01-15T10:02:58Z</time>
      </trkpt>
      <trkpt lat="43.38618" lon="5.47711">
        <ele>331.79</ele>
        <time>2012-01-15T10:03:10Z</time>
      </trkpt>
      <trkpt lat="43.38631" lon="5.47675">
        <ele>331.31</ele>
        <time>2012-01-15T10:03:23Z</time>
      </trkpt>
      <trkpt lat="43.38636" lon="5.47652">
        <ele>330.83</ele>
        <time>2012-01-15T10:03:31Z</time>
      </trkpt>
      <trkpt lat="43.3864" lon="5.47636">
        <ele>330.83</ele>
        <time>2012-01-15T10:03:39Z</time>
      </trkpt>
      <trkpt lat="43.38645" lon="5.4762">
        <ele>330.83</ele>
        <time>2012-01-15T10:03:47Z</time>
      </trkpt>
      <trkpt lat="43.38646" lon="5.47619">
        <ele>329.87</ele>
        <time>2012-01-15T10:03:48Z</time>
      </trkpt>
      <trkpt lat="43.38655" lon="5.47607">
        <ele>332.27</ele>
        <time>2012-01-15T10:03:55Z</time>
      </trkpt>
      <trkpt lat="43.38664" lon="5.476">
        <ele>333.23</ele>
        <time>2012-01-15T10:04:04Z</time>
      </trkpt>
      <trkpt lat="43.38666" lon="5.47595">
        <ele>333.23</ele>
        <time>2012-01-15T10:04:07Z</time>
      </trkpt>
      <trkpt lat="43.38672" lon="5.47589">
        <ele>333.71</ele>
        <time>2012-01-15T10:04:11Z</time>
      </trkpt>
      <trkpt lat="43.38679" lon="5.4758">
        <ele>333.71</ele>
        <time>2012-01-15T10:04:15Z</time>
      </trkpt>
      <trkpt lat="43.38699" lon="5.4754">
        <ele>335.16</ele>
        <time>2012-01-15T10:04:29Z</time>
      </trkpt>
      <trkpt lat="43.38703" lon="5.47531">
        <ele>335.16</ele>
        <time>2012-01-15T10:04:32Z</time>
      </trkpt>
      <trkpt lat="43.38711" lon="5.47519">
        <ele>335.64</ele>
        <time>2012-01-15T10:04:37Z</time>
      </trkpt>
      <trkpt lat="43.38719" lon="5.47511">
        <ele>335.64</ele>
        <time>2012-01-15T10:04:41Z</time>
      </trkpt>
      <trkpt lat="43.38722" lon="5.47505">
        <ele>336.6</ele>
        <time>2012-01-15T10:04:43Z</time>
      </trkpt>
      <trkpt lat="43.38728" lon="5.47502">
        <ele>337.08</ele>
        <time>2012-01-15T10:04:46Z</time>
      </trkpt>
      <trkpt lat="43.38746" lon="5.47492">
        <ele>339.96</ele>
        <time>2012-01-15T10:04:57Z</time>
      </trkpt>
      <trkpt lat="43.3875" lon="5.47488">
        <ele>341.41</ele>
        <time>2012-01-15T10:05:00Z</time>
      </trkpt>
      <trkpt lat="43.38775" lon="5.47478">
        <ele>341.41</ele>
        <time>2012-01-15T10:05:12Z</time>
      </trkpt>
      <trkpt lat="43.38813" lon="5.47462">
        <ele>342.37</ele>
        <time>2012-01-15T10:05:30Z</time>
      </trkpt>
      <trkpt lat="43.38841" lon="5.47453">
        <ele>344.29</ele>
        <time>2012-01-15T10:05:45Z</time>
      </trkpt>
      <trkpt lat="43.38869" lon="5.47423">
        <ele>345.73</ele>
        <time>2012-01-15T10:06:01Z</time>
      </trkpt>
      <trkpt lat="43.38879" lon="5.47409">
        <ele>346.21</ele>
        <time>2012-01-15T10:06:08Z</time>
      </trkpt>
      <trkpt lat="43.389" lon="5.4737">
        <ele>348.13</ele>
        <time>2012-01-15T10:06:25Z</time>
      </trkpt>
      <trkpt lat="43.38909" lon="5.47355">
        <ele>348.62</ele>
        <time>2012-01-15T10:06:32Z</time>
      </trkpt>
      <trkpt lat="43.38932" lon="5.47329">
        <ele>350.54</ele>
        <time>2012-01-15T10:06:47Z</time>
      </trkpt>
      <trkpt lat="43.38958" lon="5.47308">
        <ele>351.98</ele>
        <time>2012-01-15T10:07:01Z</time>
      </trkpt>
      <trkpt lat="43.3896" lon="5.47306">
        <ele>352.46</ele>
        <time>2012-01-15T10:07:02Z</time>
      </trkpt>
      <trkpt lat="43.38963" lon="5.47302">
        <ele>353.42</ele>
        <time>2012-01-15T10:07:04Z</time>
      </trkpt>
      <trkpt lat="43.38989" lon="5.47289">
        <ele>355.34</ele>
        <time>2012-01-15T10:07:18Z</time>
      </trkpt>
      <trkpt lat="43.38997" lon="5.47279">
        <ele>355.34</ele>
        <time>2012-01-15T10:07:23Z</time>
      </trkpt>
      <trkpt lat="43.39013" lon="5.47265">
        <ele>356.31</ele>
        <time>2012-01-15T10:07:32Z</time>
      </trkpt>
      <trkpt lat="43.39027" lon="5.4725">
        <ele>357.27</ele>
        <time>2012-01-15T10:07:41Z</time>
      </trkpt>
      <trkpt lat="43.39037" lon="5.47237">
        <ele>356.79</ele>
        <time>2012-01-15T10:07:49Z</time>
      </trkpt>
      <trkpt lat="43.39049" lon="5.47227">
        <ele>358.23</ele>
        <time>2012-01-15T10:07:58Z</time>
      </trkpt>
      <trkpt lat="43.39054" lon="5.47224">
        <ele>358.71</ele>
        <time>2012-01-15T10:08:01Z</time>
      </trkpt>
      <trkpt lat="43.39072" lon="5.47209">
        <ele>360.63</ele>
        <time>2012-01-15T10:08:14Z</time>
      </trkpt>
      <trkpt lat="43.39074" lon="5.47209">
        <ele>361.11</ele>
        <time>2012-01-15T10:08:15Z</time>
      </trkpt>
      <trkpt lat="43.39083" lon="5.47213">
        <ele>363.04</ele>
        <time>2012-01-15T10:08:20Z</time>
      </trkpt>
      <trkpt lat="43.39093" lon="5.47218">
        <ele>362.55</ele>
        <time>2012-01-15T10:08:24Z</time>
      </trkpt>
      <trkpt lat="43.39094" lon="5.47219">
        <ele>362.07</ele>
        <time>2012-01-15T10:08:25Z</time>
      </trkpt>
      <trkpt lat="43.39108" lon="5.47237">
        <ele>363.52</ele>
        <time>2012-01-15T10:08:35Z</time>
      </trkpt>
      <trkpt lat="43.39113" lon="5.47241">
        <ele>364.96</ele>
        <time>2012-01-15T10:08:38Z</time>
      </trkpt>
      <trkpt lat="43.39114" lon="5.47242">
        <ele>364.48</ele>
        <time>2012-01-15T10:08:39Z</time>
      </trkpt>
      <trkpt lat="43.39118" lon="5.47244">
        <ele>364.48</ele>
        <time>2012-01-15T10:08:41Z</time>
      </trkpt>
      <trkpt lat="43.39125" lon="5.47246">
        <ele>365.92</ele>
        <time>2012-01-15T10:08:45Z</time>
      </trkpt>
      <trkpt lat="43.39139" lon="5.47249">
        <ele>367.84</ele>
        <time>2012-01-15T10:08:56Z</time>
      </trkpt>
      <trkpt lat="43.39152" lon="5.47244">
        <ele>369.76</ele>
        <time>2012-01-15T10:09:10Z</time>
      </trkpt>
      <trkpt lat="43.39161" lon="5.47242">
        <ele>370.24</ele>
        <time>2012-01-15T10:09:18Z</time>
      </trkpt>
      <trkpt lat="43.39179" lon="5.47238">
        <ele>374.57</ele>
        <time>2012-01-15T10:09:35Z</time>
      </trkpt>
      <trkpt lat="43.39182" lon="5.47237">
        <ele>374.09</ele>
        <time>2012-01-15T10:09:38Z</time>
      </trkpt>
      <trkpt lat="43.39189" lon="5.47234">
        <ele>375.05</ele>
        <time>2012-01-15T10:09:44Z</time>
      </trkpt>
      <trkpt lat="43.39195" lon="5.47231">
        <ele>375.53</ele>
        <time>2012-01-15T10:09:50Z</time>
      </trkpt>
      <trkpt lat="43.39196" lon="5.47229">
        <ele>376.97</ele>
        <time>2012-01-15T10:09:52Z</time>
      </trkpt>
      <trkpt lat="43.39205" lon="5.47224">
        <ele>377.45</ele>
        <time>2012-01-15T10:10:00Z</time>
      </trkpt>
      <trkpt lat="43.39209" lon="5.47221">
        <ele>377.94</ele>
        <time>2012-01-15T10:10:04Z</time>
      </trkpt>
      <trkpt lat="43.39211" lon="5.47219">
        <ele>378.42</ele>
        <time>2012-01-15T10:10:06Z</time>
      </trkpt>
      <trkpt lat="43.39218" lon="5.47209">
        <ele>380.34</ele>
        <time>2012-01-15T10:10:15Z</time>
      </trkpt>
      <trkpt lat="43.39224" lon="5.47204">
        <ele>381.3</ele>
        <time>2012-01-15T10:10:21Z</time>
      </trkpt>
      <trkpt lat="43.39226" lon="5.47202">
        <ele>381.3</ele>
        <time>2012-01-15T10:10:23Z</time>
      </trkpt>
      <trkpt lat="43.3923" lon="5.47198">
        <ele>381.78</ele>
        <time>2012-01-15T10:10:28Z</time>
      </trkpt>
      <trkpt lat="43.39236" lon="5.47192">
        <ele>382.26</ele>
        <time>2012-01-15T10:10:33Z</time>
      </trkpt>
      <trkpt lat="43.39257" lon="5.47186">
        <ele>380.82</ele>
        <time>2012-01-15T10:10:42Z</time>
      </trkpt>
      <trkpt lat="43.39276" lon="5.47177">
        <ele>381.3</ele>
        <time>2012-01-15T10:10:49Z</time>
      </trkpt>
      <trkpt lat="43.39294" lon="5.47165">
        <ele>381.3</ele>
        <time>2012-01-15T10:10:57Z</time>
      </trkpt>
      <trkpt lat="43.39309" lon="5.47158">
        <ele>383.7</ele>
        <time>2012-01-15T10:11:06Z</time>
      </trkpt>
      <trkpt lat="43.39341" lon="5.47149">
        <ele>386.59</ele>
        <time>2012-01-15T10:11:21Z</time>
      </trkpt>
      <trkpt lat="43.3936" lon="5.47138">
        <ele>387.07</ele>
        <time>2012-01-15T10:11:30Z</time>
      </trkpt>
      <trkpt lat="43.39373" lon="5.47132">
        <ele>387.07</ele>
        <time>2012-01-15T10:11:37Z</time>
      </trkpt>
      <trkpt lat="43.39391" lon="5.47131">
        <ele>388.51</ele>
        <time>2012-01-15T10:11:45Z</time>
      </trkpt>
      <trkpt lat="43.39409" lon="5.47133">
        <ele>388.99</ele>
        <time>2012-01-15T10:11:55Z</time>
      </trkpt>
      <trkpt lat="43.39423" lon="5.47116">
        <ele>389.47</ele>
        <time>2012-01-15T10:12:06Z</time>
      </trkpt>
      <trkpt lat="43.39425" lon="5.47112">
        <ele>388.99</ele>
        <time>2012-01-15T10:12:08Z</time>
      </trkpt>
      <trkpt lat="43.39427" lon="5.47109">
        <ele>389.47</ele>
        <time>2012-01-15T10:12:10Z</time>
      </trkpt>
      <trkpt lat="43.39435" lon="5.47097">
        <ele>390.43</ele>
        <time>2012-01-15T10:12:18Z</time>
      </trkpt>
      <trkpt lat="43.39438" lon="5.47091">
        <ele>390.43</ele>
        <time>2012-01-15T10:12:23Z</time>
      </trkpt>
      <trkpt lat="43.39444" lon="5.47086">
        <ele>391.39</ele>
        <time>2012-01-15T10:12:29Z</time>
      </trkpt>
      <trkpt lat="43.39448" lon="5.47079">
        <ele>392.36</ele>
        <time>2012-01-15T10:12:34Z</time>
      </trkpt>
      <trkpt lat="43.39451" lon="5.47077">
        <ele>392.84</ele>
        <time>2012-01-15T10:12:36Z</time>
      </trkpt>
      <trkpt lat="43.39457" lon="5.4707">
        <ele>392.84</ele>
        <time>2012-01-15T10:12:41Z</time>
      </trkpt>
      <trkpt lat="43.39462" lon="5.47063">
        <ele>393.32</ele>
        <time>2012-01-15T10:12:46Z</time>
      </trkpt>
      <trkpt lat="43.39466" lon="5.4706">
        <ele>393.32</ele>
        <time>2012-01-15T10:12:49Z</time>
      </trkpt>
      <trkpt lat="43.39479" lon="5.47052">
        <ele>393.32</ele>
        <time>2012-01-15T10:12:59Z</time>
      </trkpt>
      <trkpt lat="43.39488" lon="5.47043">
        <ele>392.84</ele>
        <time>2012-01-15T10:13:08Z</time>
      </trkpt>
      <trkpt lat="43.39492" lon="5.4704">
        <ele>393.8</ele>
        <time>2012-01-15T10:13:12Z</time>
      </trkpt>
      <trkpt lat="43.39499" lon="5.47016">
        <ele>394.76</ele>
        <time>2012-01-15T10:13:25Z</time>
      </trkpt>
      <trkpt lat="43.39501" lon="5.4701">
        <ele>394.76</ele>
        <time>2012-01-15T10:13:28Z</time>
      </trkpt>
      <trkpt lat="43.39502" lon="5.47001">
        <ele>394.28</ele>
        <time>2012-01-15T10:13:32Z</time>
      </trkpt>
      <trkpt lat="43.39504" lon="5.46981">
        <ele>394.28</ele>
        <time>2012-01-15T10:13:43Z</time>
      </trkpt>
      <trkpt lat="43.39513" lon="5.46964">
        <ele>396.2</ele>
        <time>2012-01-15T10:13:57Z</time>
      </trkpt>
      <trkpt lat="43.39516" lon="5.46957">
        <ele>397.16</ele>
        <time>2012-01-15T10:14:01Z</time>
      </trkpt>
      <trkpt lat="43.39517" lon="5.46953">
        <ele>396.68</ele>
        <time>2012-01-15T10:14:03Z</time>
      </trkpt>
      <trkpt lat="43.39518" lon="5.46939">
        <ele>397.64</ele>
        <time>2012-01-15T10:14:10Z</time>
      </trkpt>
      <trkpt lat="43.39522" lon="5.46936">
        <ele>397.64</ele>
        <time>2012-01-15T10:14:14Z</time>
      </trkpt>
      <trkpt lat="43.39521" lon="5.46926">
        <ele>398.12</ele>
        <time>2012-01-15T10:14:18Z</time>
      </trkpt>
      <trkpt lat="43.39522" lon="5.46908">
        <ele>400.05</ele>
        <time>2012-01-15T10:14:28Z</time>
      </trkpt>
      <trkpt lat="43.3952" lon="5.46905">
        <ele>399.08</ele>
        <time>2012-01-15T10:14:30Z</time>
      </trkpt>
      <trkpt lat="43.39521" lon="5.46897">
        <ele>399.08</ele>
        <time>2012-01-15T10:14:34Z</time>
      </trkpt>
      <trkpt lat="43.39522" lon="5.46891">
        <ele>399.57</ele>
        <time>2012-01-15T10:14:38Z</time>
      </trkpt>
      <trkpt lat="43.39525" lon="5.46884">
        <ele>400.05</ele>
        <time>2012-01-15T10:14:43Z</time>
      </trkpt>
      <trkpt lat="43.3953" lon="5.46877">
        <ele>400.05</ele>
        <time>2012-01-15T10:14:49Z</time>
      </trkpt>
      <trkpt lat="43.39535" lon="5.46875">
        <ele>400.53</ele>
        <time>2012-01-15T10:14:54Z</time>
      </trkpt>
      <trkpt lat="43.3954" lon="5.46869">
        <ele>400.53</ele>
        <time>2012-01-15T10:14:59Z</time>
      </trkpt>
      <trkpt lat="43.39557" lon="5.46854">
        <ele>402.45</ele>
        <time>2012-01-15T10:15:14Z</time>
      </trkpt>
      <trkpt lat="43.3956" lon="5.46849">
        <ele>401.01</ele>
        <time>2012-01-15T10:15:18Z</time>
      </trkpt>
      <trkpt lat="43.39569" lon="5.46847">
        <ele>401.97</ele>
        <time>2012-01-15T10:15:26Z</time>
      </trkpt>
      <trkpt lat="43.39572" lon="5.46845">
        <ele>402.93</ele>
        <time>2012-01-15T10:15:29Z</time>
      </trkpt>
      <trkpt lat="43.39578" lon="5.46844">
        <ele>402.93</ele>
        <time>2012-01-15T10:15:33Z</time>
      </trkpt>
      <trkpt lat="43.39585" lon="5.46842">
        <ele>403.41</ele>
        <time>2012-01-15T10:15:39Z</time>
      </trkpt>
      <trkpt lat="43.39591" lon="5.46836">
        <ele>403.41</ele>
        <time>2012-01-15T10:15:46Z</time>
      </trkpt>
      <trkpt lat="43.39602" lon="5.46816">
        <ele>404.37</ele>
        <time>2012-01-15T10:15:58Z</time>
      </trkpt>
      <trkpt lat="43.39606" lon="5.46809">
        <ele>405.81</ele>
        <time>2012-01-15T10:16:02Z</time>
      </trkpt>
      <trkpt lat="43.3961" lon="5.46797">
        <ele>405.33</ele>
        <time>2012-01-15T10:16:09Z</time>
      </trkpt>
      <trkpt lat="43.39615" lon="5.46781">
        <ele>405.81</ele>
        <time>2012-01-15T10:16:18Z</time>
      </trkpt>
      <trkpt lat="43.39619" lon="5.46771">
        <ele>407.26</ele>
        <time>2012-01-15T10:16:24Z</time>
      </trkpt>
      <trkpt lat="43.39626" lon="5.46758">
        <ele>407.74</ele>
        <time>2012-01-15T10:16:31Z</time>
      </trkpt>
      <trkpt lat="43.39632" lon="5.46749">
        <ele>409.18</ele>
        <time>2012-01-15T10:16:40Z</time>
      </trkpt>
      <trkpt lat="43.39634" lon="5.46731">
        <ele>410.14</ele>
        <time>2012-01-15T10:16:53Z</time>
      </trkpt>
      <trkpt lat="43.39634" lon="5.46723">
        <ele>412.06</ele>
        <time>2012-01-15T10:17:01Z</time>
      </trkpt>
      <trkpt lat="43.39637" lon="5.46716">
        <ele>413.98</ele>
        <time>2012-01-15T10:17:09Z</time>
      </trkpt>
      <trkpt lat="43.39638" lon="5.46715">
        <ele>413.5</ele>
        <time>2012-01-15T10:17:11Z</time>
      </trkpt>
      <trkpt lat="43.39644" lon="5.46707">
        <ele>414.95</ele>
        <time>2012-01-15T10:17:19Z</time>
      </trkpt>
      <trkpt lat="43.39649" lon="5.46703">
        <ele>416.87</ele>
        <time>2012-01-15T10:17:25Z</time>
      </trkpt>
      <trkpt lat="43.39657" lon="5.46677">
        <ele>418.79</ele>
        <time>2012-01-15T10:17:43Z</time>
      </trkpt>
      <trkpt lat="43.39658" lon="5.46675">
        <ele>421.19</ele>
        <time>2012-01-15T10:17:44Z</time>
      </trkpt>
      <trkpt lat="43.39666" lon="5.46652">
        <ele>423.6</ele>
        <time>2012-01-15T10:18:01Z</time>
      </trkpt>
      <trkpt lat="43.39668" lon="5.46645">
        <ele>423.6</ele>
        <time>2012-01-15T10:18:06Z</time>
      </trkpt>
      <trkpt lat="43.39672" lon="5.46636">
        <ele>423.6</ele>
        <time>2012-01-15T10:18:12Z</time>
      </trkpt>
      <trkpt lat="43.39678" lon="5.4661">
        <ele>425.04</ele>
        <time>2012-01-15T10:18:27Z</time>
      </trkpt>
      <trkpt lat="43.39679" lon="5.46606">
        <ele>425.52</ele>
        <time>2012-01-15T10:18:30Z</time>
      </trkpt>
      <trkpt lat="43.39683" lon="5.46582">
        <ele>426.96</ele>
        <time>2012-01-15T10:18:45Z</time>
      </trkpt>
      <trkpt lat="43.39678" lon="5.46573">
        <ele>426.48</ele>
        <time>2012-01-15T10:18:51Z</time>
      </trkpt>
      <trkpt lat="43.39678" lon="5.46565">
        <ele>425.04</ele>
        <time>2012-01-15T10:18:55Z</time>
      </trkpt>
      <trkpt lat="43.39678" lon="5.46562">
        <ele>425.52</ele>
        <time>2012-01-15T10:18:57Z</time>
      </trkpt>
      <trkpt lat="43.39679" lon="5.46556">
        <ele>424.08</ele>
        <time>2012-01-15T10:19:01Z</time>
      </trkpt>
      <trkpt lat="43.39681" lon="5.46554">
        <ele>425.04</ele>
        <time>2012-01-15T10:19:04Z</time>
      </trkpt>
      <trkpt lat="43.39682" lon="5.46551">
        <ele>425.52</ele>
        <time>2012-01-15T10:19:06Z</time>
      </trkpt>
      <trkpt lat="43.39693" lon="5.46527">
        <ele>426</ele>
        <time>2012-01-15T10:19:24Z</time>
      </trkpt>
      <trkpt lat="43.39694" lon="5.46526">
        <ele>426</ele>
        <time>2012-01-15T10:19:25Z</time>
      </trkpt>
      <trkpt lat="43.397" lon="5.46513">
        <ele>424.56</ele>
        <time>2012-01-15T10:19:31Z</time>
      </trkpt>
      <trkpt lat="43.39701" lon="5.465">
        <ele>424.08</ele>
        <time>2012-01-15T10:19:37Z</time>
      </trkpt>
      <trkpt lat="43.39703" lon="5.46485">
        <ele>423.6</ele>
        <time>2012-01-15T10:19:44Z</time>
      </trkpt>
      <trkpt lat="43.39704" lon="5.46479">
        <ele>424.56</ele>
        <time>2012-01-15T10:19:47Z</time>
      </trkpt>
      <trkpt lat="43.39696" lon="5.46458">
        <ele>426</ele>
        <time>2012-01-15T10:20:00Z</time>
      </trkpt>
      <trkpt lat="43.39695" lon="5.46449">
        <ele>426</ele>
        <time>2012-01-15T10:20:06Z</time>
      </trkpt>
      <trkpt lat="43.39691" lon="5.4644">
        <ele>426.96</ele>
        <time>2012-01-15T10:20:12Z</time>
      </trkpt>
      <trkpt lat="43.3969" lon="5.46433">
        <ele>427.92</ele>
        <time>2012-01-15T10:20:17Z</time>
      </trkpt>
      <trkpt lat="43.3969" lon="5.46424">
        <ele>428.4</ele>
        <time>2012-01-15T10:20:22Z</time>
      </trkpt>
      <trkpt lat="43.39692" lon="5.46419">
        <ele>429.37</ele>
        <time>2012-01-15T10:20:26Z</time>
      </trkpt>
      <trkpt lat="43.39692" lon="5.46415">
        <ele>428.4</ele>
        <time>2012-01-15T10:20:29Z</time>
      </trkpt>
      <trkpt lat="43.39692" lon="5.46409">
        <ele>429.37</ele>
        <time>2012-01-15T10:20:32Z</time>
      </trkpt>
      <trkpt lat="43.39693" lon="5.46398">
        <ele>430.33</ele>
        <time>2012-01-15T10:20:38Z</time>
      </trkpt>
      <trkpt lat="43.39692" lon="5.46382">
        <ele>432.73</ele>
        <time>2012-01-15T10:20:49Z</time>
      </trkpt>
      <trkpt lat="43.39691" lon="5.46379">
        <ele>432.73</ele>
        <time>2012-01-15T10:20:51Z</time>
      </trkpt>
      <trkpt lat="43.39692" lon="5.46374">
        <ele>433.21</ele>
        <time>2012-01-15T10:20:56Z</time>
      </trkpt>
      <trkpt lat="43.39694" lon="5.4636">
        <ele>431.77</ele>
        <time>2012-01-15T10:21:04Z</time>
      </trkpt>
      <trkpt lat="43.39693" lon="5.46344">
        <ele>433.21</ele>
        <time>2012-01-15T10:21:16Z</time>
      </trkpt>
      <trkpt lat="43.397" lon="5.4633">
        <ele>435.13</ele>
        <time>2012-01-15T10:21:30Z</time>
      </trkpt>
      <trkpt lat="43.39705" lon="5.46327">
        <ele>437.06</ele>
        <time>2012-01-15T10:21:38Z</time>
      </trkpt>
      <trkpt lat="43.39711" lon="5.46324">
        <ele>438.98</ele>
        <time>2012-01-15T10:21:45Z</time>
      </trkpt>
      <trkpt lat="43.39714" lon="5.46321">
        <ele>439.94</ele>
        <time>2012-01-15T10:21:49Z</time>
      </trkpt>
      <trkpt lat="43.39717" lon="5.4632">
        <ele>439.46</ele>
        <time>2012-01-15T10:21:53Z</time>
      </trkpt>
      <trkpt lat="43.39722" lon="5.46314">
        <ele>439.94</ele>
        <time>2012-01-15T10:21:58Z</time>
      </trkpt>
      <trkpt lat="43.39726" lon="5.46312">
        <ele>440.9</ele>
        <time>2012-01-15T10:22:02Z</time>
      </trkpt>
      <trkpt lat="43.39735" lon="5.46308">
        <ele>440.9</ele>
        <time>2012-01-15T10:22:10Z</time>
      </trkpt>
      <trkpt lat="43.39739" lon="5.46307">
        <ele>440.9</ele>
        <time>2012-01-15T10:22:13Z</time>
      </trkpt>
      <trkpt lat="43.39743" lon="5.46294">
        <ele>442.34</ele>
        <time>2012-01-15T10:22:24Z</time>
      </trkpt>
      <trkpt lat="43.39746" lon="5.46287">
        <ele>443.31</ele>
        <time>2012-01-15T10:22:30Z</time>
      </trkpt>
      <trkpt lat="43.39753" lon="5.46271">
        <ele>446.67</ele>
        <time>2012-01-15T10:22:43Z</time>
      </trkpt>
      <trkpt lat="43.39754" lon="5.46269">
        <ele>445.71</ele>
        <time>2012-01-15T10:22:45Z</time>
      </trkpt>
      <trkpt lat="43.39756" lon="5.46266">
        <ele>445.71</ele>
        <time>2012-01-15T10:22:48Z</time>
      </trkpt>
      <trkpt lat="43.39762" lon="5.46258">
        <ele>448.59</ele>
        <time>2012-01-15T10:22:57Z</time>
      </trkpt>
      <trkpt lat="43.39775" lon="5.46243">
        <ele>451</ele>
        <time>2012-01-15T10:23:12Z</time>
      </trkpt>
      <trkpt lat="43.39777" lon="5.46243">
        <ele>451</ele>
        <time>2012-01-15T10:23:15Z</time>
      </trkpt>
      <trkpt lat="43.3978" lon="5.46245">
        <ele>451</ele>
        <time>2012-01-15T10:23:18Z</time>
      </trkpt>
      <trkpt lat="43.39787" lon="5.46245">
        <ele>454.36</ele>
        <time>2012-01-15T10:23:30Z</time>
      </trkpt>
      <trkpt lat="43.39791" lon="5.46238">
        <ele>457.72</ele>
        <time>2012-01-15T10:23:46Z</time>
      </trkpt>
      <trkpt lat="43.39793" lon="5.46237">
        <ele>458.21</ele>
        <time>2012-01-15T10:23:50Z</time>
      </trkpt>
      <trkpt lat="43.39798" lon="5.46237">
        <ele>458.69</ele>
        <time>2012-01-15T10:23:54Z</time>
      </trkpt>
      <trkpt lat="43.39803" lon="5.46233">
        <ele>459.17</ele>
        <time>2012-01-15T10:23:59Z</time>
      </trkpt>
      <trkpt lat="43.39816" lon="5.46221">
        <ele>462.05</ele>
        <time>2012-01-15T10:24:13Z</time>
      </trkpt>
      <trkpt lat="43.3982" lon="5.46221">
        <ele>461.57</ele>
        <time>2012-01-15T10:24:16Z</time>
      </trkpt>
      <trkpt lat="43.39835" lon="5.46213">
        <ele>464.45</ele>
        <time>2012-01-15T10:24:34Z</time>
      </trkpt>
      <trkpt lat="43.39836" lon="5.4621">
        <ele>465.42</ele>
        <time>2012-01-15T10:24:36Z</time>
      </trkpt>
      <trkpt lat="43.39842" lon="5.4621">
        <ele>466.38</ele>
        <time>2012-01-15T10:24:43Z</time>
      </trkpt>
      <trkpt lat="43.39846" lon="5.46209">
        <ele>466.38</ele>
        <time>2012-01-15T10:24:46Z</time>
      </trkpt>
      <trkpt lat="43.39848" lon="5.46208">
        <ele>466.38</ele>
        <time>2012-01-15T10:24:48Z</time>
      </trkpt>
      <trkpt lat="43.39854" lon="5.46206">
        <ele>467.34</ele>
        <time>2012-01-15T10:24:53Z</time>
      </trkpt>
      <trkpt lat="43.39857" lon="5.46207">
        <ele>468.3</ele>
        <time>2012-01-15T10:24:56Z</time>
      </trkpt>
      <trkpt lat="43.39865" lon="5.46206">
        <ele>468.3</ele>
        <time>2012-01-15T10:25:02Z</time>
      </trkpt>
      <trkpt lat="43.3987" lon="5.46205">
        <ele>468.3</ele>
        <time>2012-01-15T10:25:08Z</time>
      </trkpt>
      <trkpt lat="43.39878" lon="5.46203">
        <ele>469.26</ele>
        <time>2012-01-15T10:25:16Z</time>
      </trkpt>
      <trkpt lat="43.39899" lon="5.462">
        <ele>472.14</ele>
        <time>2012-01-15T10:25:31Z</time>
      </trkpt>
      <trkpt lat="43.39901" lon="5.46199">
        <ele>472.14</ele>
        <time>2012-01-15T10:25:33Z</time>
      </trkpt>
      <trkpt lat="43.39911" lon="5.46193">
        <ele>475.51</ele>
        <time>2012-01-15T10:25:45Z</time>
      </trkpt>
      <trkpt lat="43.39915" lon="5.46192">
        <ele>476.95</ele>
        <time>2012-01-15T10:25:51Z</time>
      </trkpt>
      <trkpt lat="43.39917" lon="5.46193">
        <ele>476.47</ele>
        <time>2012-01-15T10:25:53Z</time>
      </trkpt>
      <trkpt lat="43.39924" lon="5.46199">
        <ele>478.39</ele>
        <time>2012-01-15T10:26:01Z</time>
      </trkpt>
      <trkpt lat="43.39935" lon="5.46222">
        <ele>478.87</ele>
        <time>2012-01-15T10:26:15Z</time>
      </trkpt>
      <trkpt lat="43.39945" lon="5.46228">
        <ele>481.28</ele>
        <time>2012-01-15T10:26:23Z</time>
      </trkpt>
      <trkpt lat="43.39959" lon="5.46231">
        <ele>483.68</ele>
        <time>2012-01-15T10:26:34Z</time>
      </trkpt>
      <trkpt lat="43.3996" lon="5.4623">
        <ele>482.72</ele>
        <time>2012-01-15T10:26:36Z</time>
      </trkpt>
      <trkpt lat="43.39965" lon="5.4623">
        <ele>484.64</ele>
        <time>2012-01-15T10:26:41Z</time>
      </trkpt>
      <trkpt lat="43.39983" lon="5.46221">
        <ele>486.08</ele>
        <time>2012-01-15T10:26:57Z</time>
      </trkpt>
      <trkpt lat="43.39985" lon="5.46222">
        <ele>486.56</ele>
        <time>2012-01-15T10:26:59Z</time>
      </trkpt>
      <trkpt lat="43.39988" lon="5.46224">
        <ele>487.05</ele>
        <time>2012-01-15T10:27:02Z</time>
      </trkpt>
      <trkpt lat="43.4" lon="5.4623">
        <ele>487.53</ele>
        <time>2012-01-15T10:27:14Z</time>
      </trkpt>
      <trkpt lat="43.4001" lon="5.46237">
        <ele>488.97</ele>
        <time>2012-01-15T10:27:23Z</time>
      </trkpt>
      <trkpt lat="43.40013" lon="5.46237">
        <ele>489.93</ele>
        <time>2012-01-15T10:27:25Z</time>
      </trkpt>
      <trkpt lat="43.40016" lon="5.46232">
        <ele>490.41</ele>
        <time>2012-01-15T10:27:28Z</time>
      </trkpt>
      <trkpt lat="43.4002" lon="5.46229">
        <ele>490.41</ele>
        <time>2012-01-15T10:27:31Z</time>
      </trkpt>
      <trkpt lat="43.40028" lon="5.46214">
        <ele>492.81</ele>
        <time>2012-01-15T10:27:45Z</time>
      </trkpt>
      <trkpt lat="43.40041" lon="5.46206">
        <ele>495.7</ele>
        <time>2012-01-15T10:27:59Z</time>
      </trkpt>
      <trkpt lat="43.40042" lon="5.46205">
        <ele>495.7</ele>
        <time>2012-01-15T10:28:00Z</time>
      </trkpt>
      <trkpt lat="43.40043" lon="5.46203">
        <ele>496.18</ele>
        <time>2012-01-15T10:28:02Z</time>
      </trkpt>
      <trkpt lat="43.40053" lon="5.46206">
        <ele>496.66</ele>
        <time>2012-01-15T10:28:16Z</time>
      </trkpt>
      <trkpt lat="43.40056" lon="5.46206">
        <ele>498.58</ele>
        <time>2012-01-15T10:28:19Z</time>
      </trkpt>
      <trkpt lat="43.40067" lon="5.46212">
        <ele>500.02</ele>
        <time>2012-01-15T10:28:30Z</time>
      </trkpt>
      <trkpt lat="43.4008" lon="5.46218">
        <ele>501.95</ele>
        <time>2012-01-15T10:28:43Z</time>
      </trkpt>
      <trkpt lat="43.40084" lon="5.46225">
        <ele>502.43</ele>
        <time>2012-01-15T10:28:49Z</time>
      </trkpt>
      <trkpt lat="43.40087" lon="5.46238">
        <ele>502.91</ele>
        <time>2012-01-15T10:28:57Z</time>
      </trkpt>
      <trkpt lat="43.40096" lon="5.46262">
        <ele>504.83</ele>
        <time>2012-01-15T10:29:13Z</time>
      </trkpt>
      <trkpt lat="43.40095" lon="5.46275">
        <ele>506.75</ele>
        <time>2012-01-15T10:29:23Z</time>
      </trkpt>
      <trkpt lat="43.40098" lon="5.46284">
        <ele>509.16</ele>
        <time>2012-01-15T10:29:29Z</time>
      </trkpt>
      <trkpt lat="43.40103" lon="5.46299">
        <ele>511.56</ele>
        <time>2012-01-15T10:29:42Z</time>
      </trkpt>
      <trkpt lat="43.40112" lon="5.4632">
        <ele>513.48</ele>
        <time>2012-01-15T10:29:57Z</time>
      </trkpt>
      <trkpt lat="43.40114" lon="5.46324">
        <ele>513.96</ele>
        <time>2012-01-15T10:30:00Z</time>
      </trkpt>
      <trkpt lat="43.40118" lon="5.46326">
        <ele>514.92</ele>
        <time>2012-01-15T10:30:03Z</time>
      </trkpt>
      <trkpt lat="43.4012" lon="5.4633">
        <ele>515.4</ele>
        <time>2012-01-15T10:30:06Z</time>
      </trkpt>
      <trkpt lat="43.40129" lon="5.46331">
        <ele>516.85</ele>
        <time>2012-01-15T10:30:13Z</time>
      </trkpt>
      <trkpt lat="43.4014" lon="5.4633">
        <ele>519.73</ele>
        <time>2012-01-15T10:30:31Z</time>
      </trkpt>
      <trkpt lat="43.4014" lon="5.4633">
        <ele>517.81</ele>
        <time>2012-01-15T10:30:35Z</time>
      </trkpt>
      <trkpt lat="43.40142" lon="5.46328">
        <ele>517.33</ele>
        <time>2012-01-15T10:30:44Z</time>
      </trkpt>
      <trkpt lat="43.40149" lon="5.46326">
        <ele>516.85</ele>
        <time>2012-01-15T10:30:49Z</time>
      </trkpt>
      <trkpt lat="43.40159" lon="5.46323">
        <ele>519.25</ele>
        <time>2012-01-15T10:31:04Z</time>
      </trkpt>
      <trkpt lat="43.40162" lon="5.4632">
        <ele>519.25</ele>
        <time>2012-01-15T10:31:18Z</time>
      </trkpt>
      <trkpt lat="43.40162" lon="5.4632">
        <ele>519.73</ele>
        <time>2012-01-15T10:31:22Z</time>
      </trkpt>
      <trkpt lat="43.40162" lon="5.4632">
        <ele>520.21</ele>
        <time>2012-01-15T10:31:47Z</time>
      </trkpt>
      <trkpt lat="43.40165" lon="5.46323">
        <ele>520.21</ele>
        <time>2012-01-15T10:33:30Z</time>
      </trkpt>
      <trkpt lat="43.40165" lon="5.46323">
        <ele>516.85</ele>
        <time>2012-01-15T10:34:24Z</time>
      </trkpt>
      <trkpt lat="43.40165" lon="5.46323">
        <ele>520.21</ele>
        <time>2012-01-15T10:34:25Z</time>
      </trkpt>
      <trkpt lat="43.40166" lon="5.46322">
        <ele>519.73</ele>
        <time>2012-01-15T10:34:44Z</time>
      </trkpt>
      <trkpt lat="43.40166" lon="5.46322">
        <ele>515.88</ele>
        <time>2012-01-15T10:34:50Z</time>
      </trkpt>
      <trkpt lat="43.40166" lon="5.46322">
        <ele>520.69</ele>
        <time>2012-01-15T10:34:52Z</time>
      </trkpt>
      <trkpt lat="43.40166" lon="5.46322">
        <ele>520.21</ele>
        <time>2012-01-15T10:34:53Z</time>
      </trkpt>
      <trkpt lat="43.40168" lon="5.46322">
        <ele>520.21</ele>
        <time>2012-01-15T10:35:09Z</time>
      </trkpt>
      <trkpt lat="43.40172" lon="5.46321">
        <ele>521.65</ele>
        <time>2012-01-15T10:35:15Z</time>
      </trkpt>
      <trkpt lat="43.40178" lon="5.46318">
        <ele>521.65</ele>
        <time>2012-01-15T10:35:20Z</time>
      </trkpt>
      <trkpt lat="43.40187" lon="5.4632">
        <ele>523.58</ele>
        <time>2012-01-15T10:35:28Z</time>
      </trkpt>
      <trkpt lat="43.40197" lon="5.46324">
        <ele>525.5</ele>
        <time>2012-01-15T10:35:38Z</time>
      </trkpt>
      <trkpt lat="43.40213" lon="5.46314">
        <ele>528.38</ele>
        <time>2012-01-15T10:35:55Z</time>
      </trkpt>
      <trkpt lat="43.40214" lon="5.46314">
        <ele>528.38</ele>
        <time>2012-01-15T10:35:56Z</time>
      </trkpt>
      <trkpt lat="43.40216" lon="5.46314">
        <ele>528.86</ele>
        <time>2012-01-15T10:35:58Z</time>
      </trkpt>
      <trkpt lat="43.4023" lon="5.46315">
        <ele>533.19</ele>
        <time>2012-01-15T10:36:13Z</time>
      </trkpt>
      <trkpt lat="43.40237" lon="5.46316">
        <ele>534.15</ele>
        <time>2012-01-15T10:36:19Z</time>
      </trkpt>
      <trkpt lat="43.40239" lon="5.46317">
        <ele>535.11</ele>
        <time>2012-01-15T10:36:21Z</time>
      </trkpt>
      <trkpt lat="43.40246" lon="5.46317">
        <ele>535.11</ele>
        <time>2012-01-15T10:36:27Z</time>
      </trkpt>
      <trkpt lat="43.40249" lon="5.46317">
        <ele>536.07</ele>
        <time>2012-01-15T10:36:30Z</time>
      </trkpt>
      <trkpt lat="43.40257" lon="5.4632">
        <ele>538.48</ele>
        <time>2012-01-15T10:36:38Z</time>
      </trkpt>
      <trkpt lat="43.40262" lon="5.46322">
        <ele>538.96</ele>
        <time>2012-01-15T10:36:43Z</time>
      </trkpt>
      <trkpt lat="43.40268" lon="5.4632">
        <ele>541.36</ele>
        <time>2012-01-15T10:36:51Z</time>
      </trkpt>
      <trkpt lat="43.40276" lon="5.46323">
        <ele>543.76</ele>
        <time>2012-01-15T10:37:02Z</time>
      </trkpt>
      <trkpt lat="43.40283" lon="5.46323">
        <ele>545.2</ele>
        <time>2012-01-15T10:37:10Z</time>
      </trkpt>
      <trkpt lat="43.40284" lon="5.46322">
        <ele>546.65</ele>
        <time>2012-01-15T10:37:12Z</time>
      </trkpt>
      <trkpt lat="43.40297" lon="5.46314">
        <ele>548.57</ele>
        <time>2012-01-15T10:37:28Z</time>
      </trkpt>
      <trkpt lat="43.40301" lon="5.46313">
        <ele>550.97</ele>
        <time>2012-01-15T10:37:34Z</time>
      </trkpt>
      <trkpt lat="43.40305" lon="5.46315">
        <ele>551.45</ele>
        <time>2012-01-15T10:37:43Z</time>
      </trkpt>
      <trkpt lat="43.40312" lon="5.4632">
        <ele>556.26</ele>
        <time>2012-01-15T10:37:54Z</time>
      </trkpt>
      <trkpt lat="43.40318" lon="5.46321">
        <ele>558.18</ele>
        <time>2012-01-15T10:38:04Z</time>
      </trkpt>
      <trkpt lat="43.40319" lon="5.46322">
        <ele>558.18</ele>
        <time>2012-01-15T10:38:06Z</time>
      </trkpt>
      <trkpt lat="43.40321" lon="5.46323">
        <ele>559.14</ele>
        <time>2012-01-15T10:38:08Z</time>
      </trkpt>
      <trkpt lat="43.40329" lon="5.46327">
        <ele>562.51</ele>
        <time>2012-01-15T10:38:20Z</time>
      </trkpt>
      <trkpt lat="43.4033" lon="5.46327">
        <ele>562.99</ele>
        <time>2012-01-15T10:38:22Z</time>
      </trkpt>
      <trkpt lat="43.40337" lon="5.46328">
        <ele>566.83</ele>
        <time>2012-01-15T10:38:32Z</time>
      </trkpt>
      <trkpt lat="43.40339" lon="5.46327">
        <ele>568.28</ele>
        <time>2012-01-15T10:38:38Z</time>
      </trkpt>
      <trkpt lat="43.40345" lon="5.46328">
        <ele>569.72</ele>
        <time>2012-01-15T10:38:43Z</time>
      </trkpt>
      <trkpt lat="43.40352" lon="5.46325">
        <ele>572.12</ele>
        <time>2012-01-15T10:38:51Z</time>
      </trkpt>
      <trkpt lat="43.40362" lon="5.46322">
        <ele>575.49</ele>
        <time>2012-01-15T10:39:03Z</time>
      </trkpt>
      <trkpt lat="43.40367" lon="5.46318">
        <ele>578.37</ele>
        <time>2012-01-15T10:39:12Z</time>
      </trkpt>
      <trkpt lat="43.40369" lon="5.46317">
        <ele>579.33</ele>
        <time>2012-01-15T10:39:19Z</time>
      </trkpt>
      <trkpt lat="43.40375" lon="5.46311">
        <ele>582.22</ele>
        <time>2012-01-15T10:39:29Z</time>
      </trkpt>
      <trkpt lat="43.40381" lon="5.46296">
        <ele>585.58</ele>
        <time>2012-01-15T10:39:44Z</time>
      </trkpt>
      <trkpt lat="43.40382" lon="5.46293">
        <ele>587.5</ele>
        <time>2012-01-15T10:39:52Z</time>
      </trkpt>
      <trkpt lat="43.40384" lon="5.46293">
        <ele>587.5</ele>
        <time>2012-01-15T10:39:55Z</time>
      </trkpt>
      <trkpt lat="43.40386" lon="5.46294">
        <ele>588.95</ele>
        <time>2012-01-15T10:39:57Z</time>
      </trkpt>
      <trkpt lat="43.4039" lon="5.46291">
        <ele>591.35</ele>
        <time>2012-01-15T10:40:07Z</time>
      </trkpt>
      <trkpt lat="43.40398" lon="5.46294">
        <ele>595.19</ele>
        <time>2012-01-15T10:40:21Z</time>
      </trkpt>
      <trkpt lat="43.40399" lon="5.46294">
        <ele>595.67</ele>
        <time>2012-01-15T10:40:23Z</time>
      </trkpt>
      <trkpt lat="43.40404" lon="5.46293">
        <ele>599.52</ele>
        <time>2012-01-15T10:40:36Z</time>
      </trkpt>
      <trkpt lat="43.40413" lon="5.46293">
        <ele>602.88</ele>
        <time>2012-01-15T10:40:47Z</time>
      </trkpt>
      <trkpt lat="43.40418" lon="5.4629">
        <ele>606.25</ele>
        <time>2012-01-15T10:40:59Z</time>
      </trkpt>
      <trkpt lat="43.40421" lon="5.46291">
        <ele>609.61</ele>
        <time>2012-01-15T10:41:15Z</time>
      </trkpt>
      <trkpt lat="43.40427" lon="5.46295">
        <ele>612.98</ele>
        <time>2012-01-15T10:41:31Z</time>
      </trkpt>
      <trkpt lat="43.40433" lon="5.46299">
        <ele>615.86</ele>
        <time>2012-01-15T10:41:42Z</time>
      </trkpt>
      <trkpt lat="43.40439" lon="5.46297">
        <ele>619.23</ele>
        <time>2012-01-15T10:41:53Z</time>
      </trkpt>
      <trkpt lat="43.4044" lon="5.46297">
        <ele>618.75</ele>
        <time>2012-01-15T10:41:54Z</time>
      </trkpt>
      <trkpt lat="43.40448" lon="5.46293">
        <ele>622.59</ele>
        <time>2012-01-15T10:42:11Z</time>
      </trkpt>
      <trkpt lat="43.40453" lon="5.46291">
        <ele>625.96</ele>
        <time>2012-01-15T10:42:24Z</time>
      </trkpt>
      <trkpt lat="43.40458" lon="5.4629">
        <ele>629.32</ele>
        <time>2012-01-15T10:42:37Z</time>
      </trkpt>
      <trkpt lat="43.40463" lon="5.46288">
        <ele>632.2</ele>
        <time>2012-01-15T10:42:46Z</time>
      </trkpt>
      <trkpt lat="43.40464" lon="5.46287">
        <ele>633.17</ele>
        <time>2012-01-15T10:42:48Z</time>
      </trkpt>
      <trkpt lat="43.40468" lon="5.46289">
        <ele>636.05</ele>
        <time>2012-01-15T10:42:58Z</time>
      </trkpt>
      <trkpt lat="43.40473" lon="5.46292">
        <ele>639.89</ele>
        <time>2012-01-15T10:43:07Z</time>
      </trkpt>
      <trkpt lat="43.40473" lon="5.46292">
        <ele>639.89</ele>
        <time>2012-01-15T10:43:08Z</time>
      </trkpt>
      <trkpt lat="43.40476" lon="5.46289">
        <ele>640.86</ele>
        <time>2012-01-15T10:43:12Z</time>
      </trkpt>
      <trkpt lat="43.40479" lon="5.46287">
        <ele>643.26</ele>
        <time>2012-01-15T10:43:18Z</time>
      </trkpt>
      <trkpt lat="43.40483" lon="5.46282">
        <ele>647.1</ele>
        <time>2012-01-15T10:43:30Z</time>
      </trkpt>
      <trkpt lat="43.40486" lon="5.46278">
        <ele>649.51</ele>
        <time>2012-01-15T10:43:39Z</time>
      </trkpt>
      <trkpt lat="43.40491" lon="5.4628">
        <ele>652.87</ele>
        <time>2012-01-15T10:43:50Z</time>
      </trkpt>
      <trkpt lat="43.40497" lon="5.46277">
        <ele>655.76</ele>
        <time>2012-01-15T10:44:03Z</time>
      </trkpt>
      <trkpt lat="43.40502" lon="5.46276">
        <ele>659.12</ele>
        <time>2012-01-15T10:44:13Z</time>
      </trkpt>
      <trkpt lat="43.40504" lon="5.46273">
        <ele>662.01</ele>
        <time>2012-01-15T10:44:20Z</time>
      </trkpt>
      <trkpt lat="43.40507" lon="5.46276">
        <ele>663.93</ele>
        <time>2012-01-15T10:44:29Z</time>
      </trkpt>
      <trkpt lat="43.40513" lon="5.46279">
        <ele>667.29</ele>
        <time>2012-01-15T10:44:41Z</time>
      </trkpt>
      <trkpt lat="43.40514" lon="5.46279">
        <ele>669.22</ele>
        <time>2012-01-15T10:44:46Z</time>
      </trkpt>
      <trkpt lat="43.40515" lon="5.4628">
        <ele>671.14</ele>
        <time>2012-01-15T10:44:55Z</time>
      </trkpt>
      <trkpt lat="43.40516" lon="5.46281">
        <ele>673.54</ele>
        <time>2012-01-15T10:44:57Z</time>
      </trkpt>
      <trkpt lat="43.40518" lon="5.46281">
        <ele>671.62</ele>
        <time>2012-01-15T10:45:00Z</time>
      </trkpt>
      <trkpt lat="43.40523" lon="5.46282">
        <ele>675.46</ele>
        <time>2012-01-15T10:45:09Z</time>
      </trkpt>
      <trkpt lat="43.40524" lon="5.46281">
        <ele>675.46</ele>
        <time>2012-01-15T10:45:10Z</time>
      </trkpt>
      <trkpt lat="43.40525" lon="5.46274">
        <ele>670.18</ele>
        <time>2012-01-15T10:45:19Z</time>
      </trkpt>
      <trkpt lat="43.40526" lon="5.46274">
        <ele>674.5</ele>
        <time>2012-01-15T10:45:21Z</time>
      </trkpt>
      <trkpt lat="43.40523" lon="5.4628">
        <ele>673.06</ele>
        <time>2012-01-15T10:45:25Z</time>
      </trkpt>
      <trkpt lat="43.40522" lon="5.46282">
        <ele>676.42</ele>
        <time>2012-01-15T10:45:28Z</time>
      </trkpt>
      <trkpt lat="43.40522" lon="5.46301">
        <ele>672.58</ele>
        <time>2012-01-15T10:45:39Z</time>
      </trkpt>
      <trkpt lat="43.40523" lon="5.46305">
        <ele>675.46</ele>
        <time>2012-01-15T10:45:44Z</time>
      </trkpt>
      <trkpt lat="43.40523" lon="5.46322">
        <ele>674.5</ele>
        <time>2012-01-15T10:45:58Z</time>
      </trkpt>
      <trkpt lat="43.40522" lon="5.46321">
        <ele>673.54</ele>
        <time>2012-01-15T10:46:03Z</time>
      </trkpt>
      <trkpt lat="43.40523" lon="5.46323">
        <ele>673.54</ele>
        <time>2012-01-15T10:46:06Z</time>
      </trkpt>
      <trkpt lat="43.40524" lon="5.46326">
        <ele>670.18</ele>
        <time>2012-01-15T10:46:09Z</time>
      </trkpt>
      <trkpt lat="43.40524" lon="5.46327">
        <ele>673.06</ele>
        <time>2012-01-15T10:46:10Z</time>
      </trkpt>
      <trkpt lat="43.40524" lon="5.46327">
        <ele>675.94</ele>
        <time>2012-01-15T10:46:12Z</time>
      </trkpt>
      <trkpt lat="43.40525" lon="5.46334">
        <ele>674.5</ele>
        <time>2012-01-15T10:46:18Z</time>
      </trkpt>
      <trkpt lat="43.40526" lon="5.46339">
        <ele>675.46</ele>
        <time>2012-01-15T10:46:27Z</time>
      </trkpt>
      <trkpt lat="43.40526" lon="5.46339">
        <ele>672.1</ele>
        <time>2012-01-15T10:46:32Z</time>
      </trkpt>
      <trkpt lat="43.40526" lon="5.46339">
        <ele>674.02</ele>
        <time>2012-01-15T10:46:33Z</time>
      </trkpt>
      <trkpt lat="43.40526" lon="5.46339">
        <ele>670.18</ele>
        <time>2012-01-15T10:46:34Z</time>
      </trkpt>
      <trkpt lat="43.40526" lon="5.46339">
        <ele>674.02</ele>
        <time>2012-01-15T10:46:35Z</time>
      </trkpt>
      <trkpt lat="43.40525" lon="5.46347">
        <ele>670.66</ele>
        <time>2012-01-15T10:46:57Z</time>
      </trkpt>
      <trkpt lat="43.40527" lon="5.46359">
        <ele>668.25</ele>
        <time>2012-01-15T10:47:06Z</time>
      </trkpt>
      <trkpt lat="43.40531" lon="5.46382">
        <ele>665.37</ele>
        <time>2012-01-15T10:47:14Z</time>
      </trkpt>
      <trkpt lat="43.40532" lon="5.46388">
        <ele>665.85</ele>
        <time>2012-01-15T10:47:20Z</time>
      </trkpt>
      <trkpt lat="43.40534" lon="5.46395">
        <ele>667.29</ele>
        <time>2012-01-15T10:47:24Z</time>
      </trkpt>
      <trkpt lat="43.40541" lon="5.46407">
        <ele>671.62</ele>
        <time>2012-01-15T10:47:37Z</time>
      </trkpt>
      <trkpt lat="43.40542" lon="5.46409">
        <ele>669.7</ele>
        <time>2012-01-15T10:47:42Z</time>
      </trkpt>
      <trkpt lat="43.40533" lon="5.46428">
        <ele>672.1</ele>
        <time>2012-01-15T10:47:54Z</time>
      </trkpt>
      <trkpt lat="43.40533" lon="5.46433">
        <ele>670.66</ele>
        <time>2012-01-15T10:47:57Z</time>
      </trkpt>
      <trkpt lat="43.40533" lon="5.46453">
        <ele>673.54</ele>
        <time>2012-01-15T10:48:14Z</time>
      </trkpt>
      <trkpt lat="43.40534" lon="5.46456">
        <ele>674.98</ele>
        <time>2012-01-15T10:48:17Z</time>
      </trkpt>
      <trkpt lat="43.40528" lon="5.46461">
        <ele>677.39</ele>
        <time>2012-01-15T10:48:34Z</time>
      </trkpt>
      <trkpt lat="43.40528" lon="5.46458">
        <ele>674.5</ele>
        <time>2012-01-15T10:48:43Z</time>
      </trkpt>
      <trkpt lat="43.40528" lon="5.46459">
        <ele>676.91</ele>
        <time>2012-01-15T10:48:50Z</time>
      </trkpt>
      <trkpt lat="43.40528" lon="5.46459">
        <ele>677.39</ele>
        <time>2012-01-15T10:49:12Z</time>
      </trkpt>
      <trkpt lat="43.40528" lon="5.46459">
        <ele>675.94</ele>
        <time>2012-01-15T10:49:16Z</time>
      </trkpt>
      <trkpt lat="43.40528" lon="5.46459">
        <ele>676.42</ele>
        <time>2012-01-15T10:49:24Z</time>
      </trkpt>
      <trkpt lat="43.40528" lon="5.46459">
        <ele>675.46</ele>
        <time>2012-01-15T10:49:36Z</time>
      </trkpt>
      <trkpt lat="43.40528" lon="5.46459">
        <ele>677.87</ele>
        <time>2012-01-15T10:49:39Z</time>
      </trkpt>
      <trkpt lat="43.40528" lon="5.46459">
        <ele>674.98</ele>
        <time>2012-01-15T10:49:49Z</time>
      </trkpt>
      <trkpt lat="43.40528" lon="5.46459">
        <ele>675.46</ele>
        <time>2012-01-15T10:49:50Z</time>
      </trkpt>
      <trkpt lat="43.40528" lon="5.46459">
        <ele>678.35</ele>
        <time>2012-01-15T10:49:52Z</time>
      </trkpt>
      <trkpt lat="43.40528" lon="5.46459">
        <ele>678.35</ele>
        <time>2012-01-15T10:49:53Z</time>
      </trkpt>
      <trkpt lat="43.40528" lon="5.46459">
        <ele>675.94</ele>
        <time>2012-01-15T10:49:55Z</time>
      </trkpt>
      <trkpt lat="43.40528" lon="5.46459">
        <ele>676.42</ele>
        <time>2012-01-15T10:49:59Z</time>
      </trkpt>
      <trkpt lat="43.40528" lon="5.46459">
        <ele>675.46</ele>
        <time>2012-01-15T10:50:01Z</time>
      </trkpt>
      <trkpt lat="43.40528" lon="5.46459">
        <ele>677.39</ele>
        <time>2012-01-15T10:50:04Z</time>
      </trkpt>
      <trkpt lat="43.40527" lon="5.4646">
        <ele>676.91</ele>
        <time>2012-01-15T10:50:18Z</time>
      </trkpt>
      <trkpt lat="43.40527" lon="5.4646">
        <ele>675.46</ele>
        <time>2012-01-15T10:50:26Z</time>
      </trkpt>
      <trkpt lat="43.40527" lon="5.4646">
        <ele>677.87</ele>
        <time>2012-01-15T10:50:29Z</time>
      </trkpt>
      <trkpt lat="43.40527" lon="5.4646">
        <ele>674.5</ele>
        <time>2012-01-15T10:50:37Z</time>
      </trkpt>
      <trkpt lat="43.40527" lon="5.4646">
        <ele>677.87</ele>
        <time>2012-01-15T10:50:41Z</time>
      </trkpt>
      <trkpt lat="43.40527" lon="5.4646">
        <ele>674.02</ele>
        <time>2012-01-15T10:50:44Z</time>
      </trkpt>
      <trkpt lat="43.40527" lon="5.4646">
        <ele>678.35</ele>
        <time>2012-01-15T10:50:48Z</time>
      </trkpt>
      <trkpt lat="43.40527" lon="5.4646">
        <ele>674.5</ele>
        <time>2012-01-15T10:50:56Z</time>
      </trkpt>
      <trkpt lat="43.40527" lon="5.4646">
        <ele>677.87</ele>
        <time>2012-01-15T10:51:13Z</time>
      </trkpt>
      <trkpt lat="43.40527" lon="5.4646">
        <ele>675.46</ele>
        <time>2012-01-15T10:51:25Z</time>
      </trkpt>
      <trkpt lat="43.40527" lon="5.4646">
        <ele>677.39</ele>
        <time>2012-01-15T10:51:35Z</time>
      </trkpt>
      <trkpt lat="43.40527" lon="5.4646">
        <ele>675.46</ele>
        <time>2012-01-15T10:51:47Z</time>
      </trkpt>
      <trkpt lat="43.40527" lon="5.4646">
        <ele>677.87</ele>
        <time>2012-01-15T10:52:10Z</time>
      </trkpt>
      <trkpt lat="43.40527" lon="5.4646">
        <ele>676.42</ele>
        <time>2012-01-15T10:52:13Z</time>
      </trkpt>
      <trkpt lat="43.40527" lon="5.4646">
        <ele>673.54</ele>
        <time>2012-01-15T10:52:23Z</time>
      </trkpt>
      <trkpt lat="43.40527" lon="5.4646">
        <ele>676.91</ele>
        <time>2012-01-15T10:52:27Z</time>
      </trkpt>
      <trkpt lat="43.40527" lon="5.4646">
        <ele>674.98</ele>
        <time>2012-01-15T10:52:30Z</time>
      </trkpt>
      <trkpt lat="43.40527" lon="5.4646">
        <ele>676.91</ele>
        <time>2012-01-15T10:52:44Z</time>
      </trkpt>
      <trkpt lat="43.40527" lon="5.4646">
        <ele>675.46</ele>
        <time>2012-01-15T10:52:46Z</time>
      </trkpt>
      <trkpt lat="43.40527" lon="5.4646">
        <ele>676.91</ele>
        <time>2012-01-15T10:53:10Z</time>
      </trkpt>
      <trkpt lat="43.40527" lon="5.4646">
        <ele>674.5</ele>
        <time>2012-01-15T10:53:13Z</time>
      </trkpt>
      <trkpt lat="43.40527" lon="5.4646">
        <ele>676.42</ele>
        <time>2012-01-15T10:53:19Z</time>
      </trkpt>
      <trkpt lat="43.40527" lon="5.4646">
        <ele>674.5</ele>
        <time>2012-01-15T10:53:21Z</time>
      </trkpt>
      <trkpt lat="43.40527" lon="5.4646">
        <ele>676.91</ele>
        <time>2012-01-15T10:53:28Z</time>
      </trkpt>
      <trkpt lat="43.40527" lon="5.4646">
        <ele>676.42</ele>
        <time>2012-01-15T10:53:53Z</time>
      </trkpt>
      <trkpt lat="43.40527" lon="5.4646">
        <ele>674.5</ele>
        <time>2012-01-15T10:53:59Z</time>
      </trkpt>
      <trkpt lat="43.40527" lon="5.4646">
        <ele>676.91</ele>
        <time>2012-01-15T10:54:02Z</time>
      </trkpt>
      <trkpt lat="43.40527" lon="5.4646">
        <ele>673.06</ele>
        <time>2012-01-15T10:54:05Z</time>
      </trkpt>
      <trkpt lat="43.40527" lon="5.46461">
        <ele>676.42</ele>
        <time>2012-01-15T10:54:09Z</time>
      </trkpt>
      <trkpt lat="43.40527" lon="5.46461">
        <ele>674.02</ele>
        <time>2012-01-15T10:54:12Z</time>
      </trkpt>
      <trkpt lat="43.40527" lon="5.46461">
        <ele>674.5</ele>
        <time>2012-01-15T10:54:27Z</time>
      </trkpt>
      <trkpt lat="43.40527" lon="5.46461">
        <ele>674.5</ele>
        <time>2012-01-15T10:54:51Z</time>
      </trkpt>
      <trkpt lat="43.40527" lon="5.46461">
        <ele>676.42</ele>
        <time>2012-01-15T10:55:23Z</time>
      </trkpt>
      <trkpt lat="43.40527" lon="5.46461">
        <ele>676.42</ele>
        <time>2012-01-15T10:55:28Z</time>
      </trkpt>
      <trkpt lat="43.40527" lon="5.46461">
        <ele>676.42</ele>
        <time>2012-01-15T10:55:36Z</time>
      </trkpt>
      <trkpt lat="43.40527" lon="5.46461">
        <ele>673.54</ele>
        <time>2012-01-15T10:55:39Z</time>
      </trkpt>
      <trkpt lat="43.40527" lon="5.46461">
        <ele>673.54</ele>
        <time>2012-01-15T10:55:40Z</time>
      </trkpt>
      <trkpt lat="43.40527" lon="5.46461">
        <ele>676.42</ele>
        <time>2012-01-15T10:55:47Z</time>
      </trkpt>
      <trkpt lat="43.40527" lon="5.46461">
        <ele>673.54</ele>
        <time>2012-01-15T10:55:50Z</time>
      </trkpt>
      <trkpt lat="43.40527" lon="5.46461">
        <ele>676.42</ele>
        <time>2012-01-15T10:56:28Z</time>
      </trkpt>
      <trkpt lat="43.40527" lon="5.46461">
        <ele>675.46</ele>
        <time>2012-01-15T10:56:29Z</time>
      </trkpt>
      <trkpt lat="43.40527" lon="5.46461">
        <ele>674.5</ele>
        <time>2012-01-15T10:56:51Z</time>
      </trkpt>
      <trkpt lat="43.40527" lon="5.46461">
        <ele>673.54</ele>
        <time>2012-01-15T10:57:01Z</time>
      </trkpt>
      <trkpt lat="43.40527" lon="5.46461">
        <ele>676.42</ele>
        <time>2012-01-15T10:57:39Z</time>
      </trkpt>
      <trkpt lat="43.40527" lon="5.46461">
        <ele>675.94</ele>
        <time>2012-01-15T10:57:49Z</time>
      </trkpt>
      <trkpt lat="43.40527" lon="5.46461">
        <ele>674.5</ele>
        <time>2012-01-15T10:58:47Z</time>
      </trkpt>
      <trkpt lat="43.40527" lon="5.46461">
        <ele>674.02</ele>
        <time>2012-01-15T10:59:40Z</time>
      </trkpt>
      <trkpt lat="43.40527" lon="5.46461">
        <ele>669.7</ele>
        <time>2012-01-15T10:59:41Z</time>
      </trkpt>
      <trkpt lat="43.40527" lon="5.46461">
        <ele>671.14</ele>
        <time>2012-01-15T10:59:42Z</time>
      </trkpt>
      <trkpt lat="43.40527" lon="5.46461">
        <ele>675.94</ele>
        <time>2012-01-15T10:59:44Z</time>
      </trkpt>
      <trkpt lat="43.40527" lon="5.46461">
        <ele>674.98</ele>
        <time>2012-01-15T10:59:45Z</time>
      </trkpt>
      <trkpt lat="43.40527" lon="5.46461">
        <ele>673.06</ele>
        <time>2012-01-15T10:59:48Z</time>
      </trkpt>
      <trkpt lat="43.40527" lon="5.46461">
        <ele>676.42</ele>
        <time>2012-01-15T10:59:50Z</time>
      </trkpt>
      <trkpt lat="43.40527" lon="5.46461">
        <ele>673.06</ele>
        <time>2012-01-15T10:59:51Z</time>
      </trkpt>
      <trkpt lat="43.40527" lon="5.46461">
        <ele>674.5</ele>
        <time>2012-01-15T11:00:22Z</time>
      </trkpt>
      <trkpt lat="43.40527" lon="5.46462">
        <ele>674.98</ele>
        <time>2012-01-15T11:00:37Z</time>
      </trkpt>
      <trkpt lat="43.40527" lon="5.46462">
        <ele>676.42</ele>
        <time>2012-01-15T11:01:00Z</time>
      </trkpt>
      <trkpt lat="43.40528" lon="5.46462">
        <ele>676.91</ele>
        <time>2012-01-15T11:01:05Z</time>
      </trkpt>
      <trkpt lat="43.40528" lon="5.46462">
        <ele>674.5</ele>
        <time>2012-01-15T11:01:09Z</time>
      </trkpt>
      <trkpt lat="43.40528" lon="5.46462">
        <ele>675.94</ele>
        <time>2012-01-15T11:01:18Z</time>
      </trkpt>
      <trkpt lat="43.40528" lon="5.46462">
        <ele>673.54</ele>
        <time>2012-01-15T11:01:37Z</time>
      </trkpt>
      <trkpt lat="43.40528" lon="5.46462">
        <ele>675.46</ele>
        <time>2012-01-15T11:01:42Z</time>
      </trkpt>
      <trkpt lat="43.40528" lon="5.46463">
        <ele>674.98</ele>
        <time>2012-01-15T11:02:09Z</time>
      </trkpt>
      <trkpt lat="43.40528" lon="5.46463">
        <ele>673.54</ele>
        <time>2012-01-15T11:02:12Z</time>
      </trkpt>
      <trkpt lat="43.40528" lon="5.46463">
        <ele>674.5</ele>
        <time>2012-01-15T11:02:44Z</time>
      </trkpt>
      <trkpt lat="43.40528" lon="5.46463">
        <ele>674.02</ele>
        <time>2012-01-15T11:03:39Z</time>
      </trkpt>
      <trkpt lat="43.40528" lon="5.46463">
        <ele>675.46</ele>
        <time>2012-01-15T11:03:43Z</time>
      </trkpt>
      <trkpt lat="43.40527" lon="5.46463">
        <ele>672.1</ele>
        <time>2012-01-15T11:03:45Z</time>
      </trkpt>
      <trkpt lat="43.40527" lon="5.46463">
        <ele>674.98</ele>
        <time>2012-01-15T11:03:46Z</time>
      </trkpt>
      <trkpt lat="43.40527" lon="5.46463">
        <ele>672.58</ele>
        <time>2012-01-15T11:03:51Z</time>
      </trkpt>
      <trkpt lat="43.40527" lon="5.46463">
        <ele>674.5</ele>
        <time>2012-01-15T11:04:00Z</time>
      </trkpt>
      <trkpt lat="43.40527" lon="5.46464">
        <ele>671.62</ele>
        <time>2012-01-15T11:04:36Z</time>
      </trkpt>
      <trkpt lat="43.40527" lon="5.46464">
        <ele>675.46</ele>
        <time>2012-01-15T11:04:37Z</time>
      </trkpt>
      <trkpt lat="43.40527" lon="5.46464">
        <ele>675.46</ele>
        <time>2012-01-15T11:04:38Z</time>
      </trkpt>
      <trkpt lat="43.40527" lon="5.46464">
        <ele>675.46</ele>
        <time>2012-01-15T11:04:58Z</time>
      </trkpt>
      <trkpt lat="43.40527" lon="5.46464">
        <ele>672.58</ele>
        <time>2012-01-15T11:05:20Z</time>
      </trkpt>
      <trkpt lat="43.40527" lon="5.46464">
        <ele>675.46</ele>
        <time>2012-01-15T11:05:22Z</time>
      </trkpt>
      <trkpt lat="43.40527" lon="5.46464">
        <ele>673.06</ele>
        <time>2012-01-15T11:05:25Z</time>
      </trkpt>
      <trkpt lat="43.40527" lon="5.46464">
        <ele>673.54</ele>
        <time>2012-01-15T11:06:20Z</time>
      </trkpt>
      <trkpt lat="43.40527" lon="5.46464">
        <ele>673.06</ele>
        <time>2012-01-15T11:06:30Z</time>
      </trkpt>
      <trkpt lat="43.40527" lon="5.46464">
        <ele>674.5</ele>
        <time>2012-01-15T11:06:32Z</time>
      </trkpt>
      <trkpt lat="43.40527" lon="5.46463">
        <ele>674.02</ele>
        <time>2012-01-15T11:06:42Z</time>
      </trkpt>
      <trkpt lat="43.40528" lon="5.46462">
        <ele>674.98</ele>
        <time>2012-01-15T11:07:19Z</time>
      </trkpt>
      <trkpt lat="43.40528" lon="5.46462">
        <ele>675.94</ele>
        <time>2012-01-15T11:07:26Z</time>
      </trkpt>
      <trkpt lat="43.40528" lon="5.46462">
        <ele>674.02</ele>
        <time>2012-01-15T11:07:28Z</time>
      </trkpt>
      <trkpt lat="43.40529" lon="5.46462">
        <ele>675.94</ele>
        <time>2012-01-15T11:07:38Z</time>
      </trkpt>
      <trkpt lat="43.40529" lon="5.46462">
        <ele>671.14</ele>
        <time>2012-01-15T11:07:40Z</time>
      </trkpt>
      <trkpt lat="43.40529" lon="5.46462">
        <ele>675.46</ele>
        <time>2012-01-15T11:07:44Z</time>
      </trkpt>
      <trkpt lat="43.40529" lon="5.46462">
        <ele>675.46</ele>
        <time>2012-01-15T11:07:45Z</time>
      </trkpt>
      <trkpt lat="43.4053" lon="5.46466">
        <ele>673.54</ele>
        <time>2012-01-15T11:07:51Z</time>
      </trkpt>
      <trkpt lat="43.4053" lon="5.46466">
        <ele>669.22</ele>
        <time>2012-01-15T11:08:02Z</time>
      </trkpt>
      <trkpt lat="43.4053" lon="5.46466">
        <ele>674.02</ele>
        <time>2012-01-15T11:08:04Z</time>
      </trkpt>
      <trkpt lat="43.4053" lon="5.46466">
        <ele>674.02</ele>
        <time>2012-01-15T11:08:05Z</time>
      </trkpt>
      <trkpt lat="43.4053" lon="5.46466">
        <ele>672.58</ele>
        <time>2012-01-15T11:08:09Z</time>
      </trkpt>
      <trkpt lat="43.40529" lon="5.46466">
        <ele>660.56</ele>
        <time>2012-01-15T11:08:14Z</time>
      </trkpt>
      <trkpt lat="43.40529" lon="5.46466">
        <ele>671.14</ele>
        <time>2012-01-15T11:08:15Z</time>
      </trkpt>
      <trkpt lat="43.40528" lon="5.46466">
        <ele>673.54</ele>
        <time>2012-01-15T11:08:19Z</time>
      </trkpt>
      <trkpt lat="43.40526" lon="5.46468">
        <ele>667.77</ele>
        <time>2012-01-15T11:08:21Z</time>
      </trkpt>
      <trkpt lat="43.40525" lon="5.4647">
        <ele>669.7</ele>
        <time>2012-01-15T11:08:22Z</time>
      </trkpt>
      <trkpt lat="43.40523" lon="5.46478">
        <ele>667.77</ele>
        <time>2012-01-15T11:08:27Z</time>
      </trkpt>
      <trkpt lat="43.40523" lon="5.46485">
        <ele>671.14</ele>
        <time>2012-01-15T11:08:31Z</time>
      </trkpt>
      <trkpt lat="43.40523" lon="5.46487">
        <ele>670.18</ele>
        <time>2012-01-15T11:08:32Z</time>
      </trkpt>
      <trkpt lat="43.40523" lon="5.46492">
        <ele>668.73</ele>
        <time>2012-01-15T11:08:34Z</time>
      </trkpt>
      <trkpt lat="43.40524" lon="5.46499">
        <ele>670.18</ele>
        <time>2012-01-15T11:08:38Z</time>
      </trkpt>
      <trkpt lat="43.40523" lon="5.46505">
        <ele>667.77</ele>
        <time>2012-01-15T11:08:42Z</time>
      </trkpt>
      <trkpt lat="43.40525" lon="5.4651">
        <ele>667.29</ele>
        <time>2012-01-15T11:08:46Z</time>
      </trkpt>
      <trkpt lat="43.40525" lon="5.46512">
        <ele>665.85</ele>
        <time>2012-01-15T11:08:49Z</time>
      </trkpt>
      <trkpt lat="43.40525" lon="5.46512">
        <ele>665.85</ele>
        <time>2012-01-15T11:08:52Z</time>
      </trkpt>
      <trkpt lat="43.40528" lon="5.4652">
        <ele>664.89</ele>
        <time>2012-01-15T11:08:57Z</time>
      </trkpt>
      <trkpt lat="43.40528" lon="5.46528">
        <ele>662.97</ele>
        <time>2012-01-15T11:09:01Z</time>
      </trkpt>
      <trkpt lat="43.40536" lon="5.46551">
        <ele>662.49</ele>
        <time>2012-01-15T11:09:14Z</time>
      </trkpt>
      <trkpt lat="43.40537" lon="5.46559">
        <ele>662.97</ele>
        <time>2012-01-15T11:09:18Z</time>
      </trkpt>
      <trkpt lat="43.40536" lon="5.46564">
        <ele>661.52</ele>
        <time>2012-01-15T11:09:21Z</time>
      </trkpt>
      <trkpt lat="43.40536" lon="5.46568">
        <ele>660.56</ele>
        <time>2012-01-15T11:09:23Z</time>
      </trkpt>
      <trkpt lat="43.40539" lon="5.46573">
        <ele>661.04</ele>
        <time>2012-01-15T11:09:31Z</time>
      </trkpt>
      <trkpt lat="43.40539" lon="5.46586">
        <ele>662.49</ele>
        <time>2012-01-15T11:09:36Z</time>
      </trkpt>
      <trkpt lat="43.40539" lon="5.4659">
        <ele>661.52</ele>
        <time>2012-01-15T11:09:39Z</time>
      </trkpt>
      <trkpt lat="43.4054" lon="5.46598">
        <ele>662.49</ele>
        <time>2012-01-15T11:09:44Z</time>
      </trkpt>
      <trkpt lat="43.40541" lon="5.466">
        <ele>662.01</ele>
        <time>2012-01-15T11:09:45Z</time>
      </trkpt>
      <trkpt lat="43.40541" lon="5.46606">
        <ele>660.56</ele>
        <time>2012-01-15T11:09:47Z</time>
      </trkpt>
      <trkpt lat="43.4054" lon="5.46614">
        <ele>659.12</ele>
        <time>2012-01-15T11:09:50Z</time>
      </trkpt>
      <trkpt lat="43.40535" lon="5.46636">
        <ele>662.01</ele>
        <time>2012-01-15T11:10:01Z</time>
      </trkpt>
      <trkpt lat="43.40533" lon="5.46646">
        <ele>661.52</ele>
        <time>2012-01-15T11:10:07Z</time>
      </trkpt>
      <trkpt lat="43.40533" lon="5.46646">
        <ele>658.64</ele>
        <time>2012-01-15T11:10:10Z</time>
      </trkpt>
      <trkpt lat="43.40533" lon="5.46646">
        <ele>662.49</ele>
        <time>2012-01-15T11:10:13Z</time>
      </trkpt>
      <trkpt lat="43.40533" lon="5.46646">
        <ele>659.12</ele>
        <time>2012-01-15T11:10:14Z</time>
      </trkpt>
      <trkpt lat="43.40533" lon="5.46648">
        <ele>657.68</ele>
        <time>2012-01-15T11:10:19Z</time>
      </trkpt>
      <trkpt lat="43.40533" lon="5.46652">
        <ele>661.04</ele>
        <time>2012-01-15T11:10:22Z</time>
      </trkpt>
      <trkpt lat="43.40525" lon="5.46661">
        <ele>664.41</ele>
        <time>2012-01-15T11:10:30Z</time>
      </trkpt>
      <trkpt lat="43.40525" lon="5.46662">
        <ele>662.97</ele>
        <time>2012-01-15T11:10:31Z</time>
      </trkpt>
      <trkpt lat="43.40524" lon="5.46663">
        <ele>665.37</ele>
        <time>2012-01-15T11:10:34Z</time>
      </trkpt>
      <trkpt lat="43.40515" lon="5.46679">
        <ele>668.25</ele>
        <time>2012-01-15T11:10:45Z</time>
      </trkpt>
      <trkpt lat="43.40508" lon="5.46693">
        <ele>669.7</ele>
        <time>2012-01-15T11:10:55Z</time>
      </trkpt>
      <trkpt lat="43.40507" lon="5.46696">
        <ele>670.18</ele>
        <time>2012-01-15T11:10:57Z</time>
      </trkpt>
      <trkpt lat="43.40494" lon="5.46709">
        <ele>666.81</ele>
        <time>2012-01-15T11:11:10Z</time>
      </trkpt>
      <trkpt lat="43.40492" lon="5.46722">
        <ele>666.33</ele>
        <time>2012-01-15T11:11:15Z</time>
      </trkpt>
      <trkpt lat="43.4049" lon="5.4673">
        <ele>666.81</ele>
        <time>2012-01-15T11:11:21Z</time>
      </trkpt>
      <trkpt lat="43.40487" lon="5.46735">
        <ele>666.33</ele>
        <time>2012-01-15T11:11:27Z</time>
      </trkpt>
      <trkpt lat="43.40477" lon="5.46739">
        <ele>662.49</ele>
        <time>2012-01-15T11:11:34Z</time>
      </trkpt>
      <trkpt lat="43.40476" lon="5.46744">
        <ele>667.77</ele>
        <time>2012-01-15T11:11:38Z</time>
      </trkpt>
      <trkpt lat="43.40474" lon="5.46745">
        <ele>671.14</ele>
        <time>2012-01-15T11:11:43Z</time>
      </trkpt>
      <trkpt lat="43.40475" lon="5.46745">
        <ele>670.18</ele>
        <time>2012-01-15T11:11:44Z</time>
      </trkpt>
      <trkpt lat="43.40476" lon="5.46745">
        <ele>669.22</ele>
        <time>2012-01-15T11:11:46Z</time>
      </trkpt>
      <trkpt lat="43.40479" lon="5.46751">
        <ele>670.66</ele>
        <time>2012-01-15T11:11:52Z</time>
      </trkpt>
      <trkpt lat="43.4048" lon="5.46757">
        <ele>672.58</ele>
        <time>2012-01-15T11:12:01Z</time>
      </trkpt>
      <trkpt lat="43.40479" lon="5.4676">
        <ele>673.54</ele>
        <time>2012-01-15T11:12:05Z</time>
      </trkpt>
      <trkpt lat="43.4048" lon="5.46767">
        <ele>676.42</ele>
        <time>2012-01-15T11:12:13Z</time>
      </trkpt>
      <trkpt lat="43.4048" lon="5.4677">
        <ele>677.39</ele>
        <time>2012-01-15T11:12:15Z</time>
      </trkpt>
      <trkpt lat="43.4048" lon="5.46772">
        <ele>676.42</ele>
        <time>2012-01-15T11:12:16Z</time>
      </trkpt>
      <trkpt lat="43.40479" lon="5.46776">
        <ele>679.79</ele>
        <time>2012-01-15T11:12:20Z</time>
      </trkpt>
      <trkpt lat="43.40474" lon="5.46795">
        <ele>682.19</ele>
        <time>2012-01-15T11:12:37Z</time>
      </trkpt>
      <trkpt lat="43.40471" lon="5.46803">
        <ele>683.15</ele>
        <time>2012-01-15T11:12:47Z</time>
      </trkpt>
      <trkpt lat="43.4047" lon="5.46809">
        <ele>686.04</ele>
        <time>2012-01-15T11:12:56Z</time>
      </trkpt>
      <trkpt lat="43.4047" lon="5.4681">
        <ele>685.56</ele>
        <time>2012-01-15T11:12:57Z</time>
      </trkpt>
      <trkpt lat="43.40469" lon="5.4681">
        <ele>681.71</ele>
        <time>2012-01-15T11:13:00Z</time>
      </trkpt>
      <trkpt lat="43.40469" lon="5.4681">
        <ele>685.08</ele>
        <time>2012-01-15T11:13:01Z</time>
      </trkpt>
      <trkpt lat="43.40469" lon="5.4681">
        <ele>686.52</ele>
        <time>2012-01-15T11:13:04Z</time>
      </trkpt>
      <trkpt lat="43.40469" lon="5.4681">
        <ele>685.08</ele>
        <time>2012-01-15T11:13:06Z</time>
      </trkpt>
      <trkpt lat="43.40469" lon="5.4681">
        <ele>680.27</ele>
        <time>2012-01-15T11:13:08Z</time>
      </trkpt>
      <trkpt lat="43.40469" lon="5.4681">
        <ele>683.15</ele>
        <time>2012-01-15T11:13:09Z</time>
      </trkpt>
      <trkpt lat="43.40469" lon="5.4681">
        <ele>680.27</ele>
        <time>2012-01-15T11:13:10Z</time>
      </trkpt>
      <trkpt lat="43.40469" lon="5.4681">
        <ele>678.83</ele>
        <time>2012-01-15T11:13:12Z</time>
      </trkpt>
      <trkpt lat="43.40469" lon="5.4681">
        <ele>684.12</ele>
        <time>2012-01-15T11:13:15Z</time>
      </trkpt>
      <trkpt lat="43.40469" lon="5.4681">
        <ele>684.6</ele>
        <time>2012-01-15T11:13:21Z</time>
      </trkpt>
      <trkpt lat="43.40465" lon="5.46807">
        <ele>684.6</ele>
        <time>2012-01-15T11:13:24Z</time>
      </trkpt>
      <trkpt lat="43.40462" lon="5.46805">
        <ele>686.52</ele>
        <time>2012-01-15T11:13:27Z</time>
      </trkpt>
      <trkpt lat="43.40461" lon="5.46801">
        <ele>685.56</ele>
        <time>2012-01-15T11:13:39Z</time>
      </trkpt>
      <trkpt lat="43.40461" lon="5.46801">
        <ele>684.12</ele>
        <time>2012-01-15T11:14:03Z</time>
      </trkpt>
      <trkpt lat="43.40459" lon="5.46801">
        <ele>680.75</ele>
        <time>2012-01-15T11:14:12Z</time>
      </trkpt>
      <trkpt lat="43.40458" lon="5.46802">
        <ele>679.31</ele>
        <time>2012-01-15T11:14:17Z</time>
      </trkpt>
      <trkpt lat="43.40456" lon="5.46798">
        <ele>681.23</ele>
        <time>2012-01-15T11:14:21Z</time>
      </trkpt>
      <trkpt lat="43.40452" lon="5.46797">
        <ele>681.71</ele>
        <time>2012-01-15T11:14:29Z</time>
      </trkpt>
      <trkpt lat="43.40452" lon="5.46803">
        <ele>682.67</ele>
        <time>2012-01-15T11:14:35Z</time>
      </trkpt>
      <trkpt lat="43.40449" lon="5.46805">
        <ele>679.79</ele>
        <time>2012-01-15T11:14:55Z</time>
      </trkpt>
      <trkpt lat="43.40448" lon="5.46805">
        <ele>679.31</ele>
        <time>2012-01-15T11:14:59Z</time>
      </trkpt>
      <trkpt lat="43.40448" lon="5.46807">
        <ele>680.27</ele>
        <time>2012-01-15T11:15:01Z</time>
      </trkpt>
      <trkpt lat="43.4045" lon="5.4681">
        <ele>678.83</ele>
        <time>2012-01-15T11:15:04Z</time>
      </trkpt>
      <trkpt lat="43.40451" lon="5.46811">
        <ele>678.35</ele>
        <time>2012-01-15T11:15:05Z</time>
      </trkpt>
      <trkpt lat="43.40454" lon="5.46817">
        <ele>677.39</ele>
        <time>2012-01-15T11:15:12Z</time>
      </trkpt>
      <trkpt lat="43.40451" lon="5.46819">
        <ele>676.42</ele>
        <time>2012-01-15T11:15:25Z</time>
      </trkpt>
      <trkpt lat="43.40449" lon="5.46819">
        <ele>675.94</ele>
        <time>2012-01-15T11:15:28Z</time>
      </trkpt>
      <trkpt lat="43.4044" lon="5.46818">
        <ele>671.62</ele>
        <time>2012-01-15T11:15:41Z</time>
      </trkpt>
      <trkpt lat="43.40438" lon="5.46819">
        <ele>668.73</ele>
        <time>2012-01-15T11:15:52Z</time>
      </trkpt>
      <trkpt lat="43.40435" lon="5.46816">
        <ele>667.29</ele>
        <time>2012-01-15T11:16:00Z</time>
      </trkpt>
      <trkpt lat="43.40433" lon="5.46814">
        <ele>667.29</ele>
        <time>2012-01-15T11:16:21Z</time>
      </trkpt>
      <trkpt lat="43.40435" lon="5.46816">
        <ele>670.18</ele>
        <time>2012-01-15T11:16:31Z</time>
      </trkpt>
      <trkpt lat="43.40437" lon="5.46819">
        <ele>672.1</ele>
        <time>2012-01-15T11:16:39Z</time>
      </trkpt>
      <trkpt lat="43.40446" lon="5.4682">
        <ele>674.98</ele>
        <time>2012-01-15T11:16:51Z</time>
      </trkpt>
      <trkpt lat="43.40449" lon="5.46822">
        <ele>676.42</ele>
        <time>2012-01-15T11:16:57Z</time>
      </trkpt>
      <trkpt lat="43.40449" lon="5.46822">
        <ele>676.91</ele>
        <time>2012-01-15T11:17:00Z</time>
      </trkpt>
      <trkpt lat="43.40451" lon="5.46818">
        <ele>677.87</ele>
        <time>2012-01-15T11:17:03Z</time>
      </trkpt>
      <trkpt lat="43.40455" lon="5.46806">
        <ele>681.23</ele>
        <time>2012-01-15T11:17:14Z</time>
      </trkpt>
      <trkpt lat="43.40458" lon="5.46803">
        <ele>685.56</ele>
        <time>2012-01-15T11:17:24Z</time>
      </trkpt>
      <trkpt lat="43.40458" lon="5.46803">
        <ele>684.6</ele>
        <time>2012-01-15T11:17:25Z</time>
      </trkpt>
      <trkpt lat="43.40458" lon="5.46803">
        <ele>683.15</ele>
        <time>2012-01-15T11:17:29Z</time>
      </trkpt>
      <trkpt lat="43.40459" lon="5.46803">
        <ele>684.6</ele>
        <time>2012-01-15T11:17:30Z</time>
      </trkpt>
      <trkpt lat="43.40463" lon="5.46807">
        <ele>685.56</ele>
        <time>2012-01-15T11:17:36Z</time>
      </trkpt>
      <trkpt lat="43.40467" lon="5.46802">
        <ele>683.15</ele>
        <time>2012-01-15T11:17:44Z</time>
      </trkpt>
      <trkpt lat="43.40468" lon="5.46801">
        <ele>682.67</ele>
        <time>2012-01-15T11:17:45Z</time>
      </trkpt>
      <trkpt lat="43.40471" lon="5.46798">
        <ele>681.23</ele>
        <time>2012-01-15T11:17:48Z</time>
      </trkpt>
      <trkpt lat="43.40474" lon="5.46789">
        <ele>682.19</ele>
        <time>2012-01-15T11:17:56Z</time>
      </trkpt>
      <trkpt lat="43.40475" lon="5.46785">
        <ele>679.79</ele>
        <time>2012-01-15T11:18:02Z</time>
      </trkpt>
      <trkpt lat="43.40478" lon="5.46777">
        <ele>678.35</ele>
        <time>2012-01-15T11:18:08Z</time>
      </trkpt>
      <trkpt lat="43.40478" lon="5.46772">
        <ele>676.91</ele>
        <time>2012-01-15T11:18:11Z</time>
      </trkpt>
      <trkpt lat="43.40478" lon="5.46764">
        <ele>674.98</ele>
        <time>2012-01-15T11:18:23Z</time>
      </trkpt>
      <trkpt lat="43.40478" lon="5.4676">
        <ele>672.1</ele>
        <time>2012-01-15T11:18:28Z</time>
      </trkpt>
      <trkpt lat="43.40477" lon="5.46754">
        <ele>671.62</ele>
        <time>2012-01-15T11:18:33Z</time>
      </trkpt>
      <trkpt lat="43.40479" lon="5.46749">
        <ele>670.66</ele>
        <time>2012-01-15T11:18:37Z</time>
      </trkpt>
      <trkpt lat="43.40478" lon="5.46745">
        <ele>666.81</ele>
        <time>2012-01-15T11:18:47Z</time>
      </trkpt>
      <trkpt lat="43.40478" lon="5.4674">
        <ele>664.89</ele>
        <time>2012-01-15T11:18:51Z</time>
      </trkpt>
      <trkpt lat="43.40485" lon="5.46738">
        <ele>665.85</ele>
        <time>2012-01-15T11:18:56Z</time>
      </trkpt>
      <trkpt lat="43.40491" lon="5.46739">
        <ele>667.77</ele>
        <time>2012-01-15T11:19:02Z</time>
      </trkpt>
      <trkpt lat="43.40498" lon="5.46737">
        <ele>670.18</ele>
        <time>2012-01-15T11:19:11Z</time>
      </trkpt>
      <trkpt lat="43.40502" lon="5.46743">
        <ele>671.14</ele>
        <time>2012-01-15T11:19:18Z</time>
      </trkpt>
      <trkpt lat="43.40503" lon="5.46743">
        <ele>671.62</ele>
        <time>2012-01-15T11:19:20Z</time>
      </trkpt>
      <trkpt lat="43.40511" lon="5.46745">
        <ele>674.98</ele>
        <time>2012-01-15T11:19:35Z</time>
      </trkpt>
      <trkpt lat="43.40512" lon="5.46745">
        <ele>673.54</ele>
        <time>2012-01-15T11:19:38Z</time>
      </trkpt>
      <trkpt lat="43.40513" lon="5.46749">
        <ele>670.18</ele>
        <time>2012-01-15T11:19:51Z</time>
      </trkpt>
      <trkpt lat="43.40513" lon="5.46748">
        <ele>669.22</ele>
        <time>2012-01-15T11:19:52Z</time>
      </trkpt>
      <trkpt lat="43.40517" lon="5.4675">
        <ele>667.77</ele>
        <time>2012-01-15T11:20:00Z</time>
      </trkpt>
      <trkpt lat="43.40519" lon="5.46759">
        <ele>664.41</ele>
        <time>2012-01-15T11:20:13Z</time>
      </trkpt>
      <trkpt lat="43.40519" lon="5.4676">
        <ele>664.41</ele>
        <time>2012-01-15T11:20:14Z</time>
      </trkpt>
      <trkpt lat="43.40527" lon="5.46772">
        <ele>660.08</ele>
        <time>2012-01-15T11:20:26Z</time>
      </trkpt>
      <trkpt lat="43.40532" lon="5.46776">
        <ele>656.72</ele>
        <time>2012-01-15T11:20:33Z</time>
      </trkpt>
      <trkpt lat="43.40539" lon="5.46773">
        <ele>655.28</ele>
        <time>2012-01-15T11:20:45Z</time>
      </trkpt>
      <trkpt lat="43.40541" lon="5.4677">
        <ele>654.31</ele>
        <time>2012-01-15T11:20:48Z</time>
      </trkpt>
      <trkpt lat="43.40543" lon="5.46765">
        <ele>652.39</ele>
        <time>2012-01-15T11:20:52Z</time>
      </trkpt>
      <trkpt lat="43.40544" lon="5.46762">
        <ele>651.43</ele>
        <time>2012-01-15T11:20:54Z</time>
      </trkpt>
      <trkpt lat="43.40549" lon="5.46767">
        <ele>648.55</ele>
        <time>2012-01-15T11:21:00Z</time>
      </trkpt>
      <trkpt lat="43.40549" lon="5.4677">
        <ele>648.55</ele>
        <time>2012-01-15T11:21:04Z</time>
      </trkpt>
      <trkpt lat="43.40556" lon="5.46771">
        <ele>644.7</ele>
        <time>2012-01-15T11:21:15Z</time>
      </trkpt>
      <trkpt lat="43.40562" lon="5.46776">
        <ele>642.78</ele>
        <time>2012-01-15T11:21:24Z</time>
      </trkpt>
      <trkpt lat="43.40572" lon="5.46788">
        <ele>641.82</ele>
        <time>2012-01-15T11:21:34Z</time>
      </trkpt>
      <trkpt lat="43.40575" lon="5.468">
        <ele>641.82</ele>
        <time>2012-01-15T11:21:44Z</time>
      </trkpt>
      <trkpt lat="43.40574" lon="5.46816">
        <ele>638.45</ele>
        <time>2012-01-15T11:21:57Z</time>
      </trkpt>
      <trkpt lat="43.40569" lon="5.46819">
        <ele>637.97</ele>
        <time>2012-01-15T11:22:02Z</time>
      </trkpt>
      <trkpt lat="43.4057" lon="5.46827">
        <ele>637.01</ele>
        <time>2012-01-15T11:22:07Z</time>
      </trkpt>
      <trkpt lat="43.40574" lon="5.4683">
        <ele>634.13</ele>
        <time>2012-01-15T11:22:10Z</time>
      </trkpt>
      <trkpt lat="43.40584" lon="5.46835">
        <ele>631.24</ele>
        <time>2012-01-15T11:22:18Z</time>
      </trkpt>
      <trkpt lat="43.40588" lon="5.4684">
        <ele>630.28</ele>
        <time>2012-01-15T11:22:22Z</time>
      </trkpt>
      <trkpt lat="43.40595" lon="5.46839">
        <ele>625.96</ele>
        <time>2012-01-15T11:22:28Z</time>
      </trkpt>
      <trkpt lat="43.40596" lon="5.46839">
        <ele>629.8</ele>
        <time>2012-01-15T11:22:29Z</time>
      </trkpt>
      <trkpt lat="43.40602" lon="5.46839">
        <ele>629.8</ele>
        <time>2012-01-15T11:22:40Z</time>
      </trkpt>
      <trkpt lat="43.40608" lon="5.46838">
        <ele>631.24</ele>
        <time>2012-01-15T11:22:45Z</time>
      </trkpt>
      <trkpt lat="43.40627" lon="5.46839">
        <ele>629.8</ele>
        <time>2012-01-15T11:23:02Z</time>
      </trkpt>
      <trkpt lat="43.40627" lon="5.46839">
        <ele>631.24</ele>
        <time>2012-01-15T11:23:18Z</time>
      </trkpt>
      <trkpt lat="43.40622" lon="5.46842">
        <ele>629.32</ele>
        <time>2012-01-15T11:23:22Z</time>
      </trkpt>
      <trkpt lat="43.40603" lon="5.46842">
        <ele>630.76</ele>
        <time>2012-01-15T11:23:35Z</time>
      </trkpt>
      <trkpt lat="43.40572" lon="5.46839">
        <ele>631.24</ele>
        <time>2012-01-15T11:23:57Z</time>
      </trkpt>
      <trkpt lat="43.40559" lon="5.46841">
        <ele>630.76</ele>
        <time>2012-01-15T11:24:03Z</time>
      </trkpt>
      <trkpt lat="43.40557" lon="5.46843">
        <ele>630.76</ele>
        <time>2012-01-15T11:24:07Z</time>
      </trkpt>
      <trkpt lat="43.40556" lon="5.4685">
        <ele>629.32</ele>
        <time>2012-01-15T11:24:11Z</time>
      </trkpt>
      <trkpt lat="43.40556" lon="5.46854">
        <ele>625.96</ele>
        <time>2012-01-15T11:24:15Z</time>
      </trkpt>
      <trkpt lat="43.40556" lon="5.46855">
        <ele>626.44</ele>
        <time>2012-01-15T11:24:16Z</time>
      </trkpt>
      <trkpt lat="43.40559" lon="5.46858">
        <ele>625.47</ele>
        <time>2012-01-15T11:24:19Z</time>
      </trkpt>
      <trkpt lat="43.40561" lon="5.46866">
        <ele>623.55</ele>
        <time>2012-01-15T11:24:25Z</time>
      </trkpt>
      <trkpt lat="43.40561" lon="5.46869">
        <ele>620.67</ele>
        <time>2012-01-15T11:24:28Z</time>
      </trkpt>
      <trkpt lat="43.40564" lon="5.46874">
        <ele>618.75</ele>
        <time>2012-01-15T11:24:33Z</time>
      </trkpt>
      <trkpt lat="43.40565" lon="5.46881">
        <ele>617.78</ele>
        <time>2012-01-15T11:24:37Z</time>
      </trkpt>
      <trkpt lat="43.40566" lon="5.46883">
        <ele>616.82</ele>
        <time>2012-01-15T11:24:39Z</time>
      </trkpt>
      <trkpt lat="43.40571" lon="5.46883">
        <ele>615.38</ele>
        <time>2012-01-15T11:24:44Z</time>
      </trkpt>
      <trkpt lat="43.40578" lon="5.46889">
        <ele>612.02</ele>
        <time>2012-01-15T11:24:52Z</time>
      </trkpt>
      <trkpt lat="43.40578" lon="5.4689">
        <ele>611.54</ele>
        <time>2012-01-15T11:24:54Z</time>
      </trkpt>
      <trkpt lat="43.40579" lon="5.4689">
        <ele>610.57</ele>
        <time>2012-01-15T11:24:55Z</time>
      </trkpt>
      <trkpt lat="43.40582" lon="5.46897">
        <ele>610.09</ele>
        <time>2012-01-15T11:25:06Z</time>
      </trkpt>
      <trkpt lat="43.40582" lon="5.46897">
        <ele>606.73</ele>
        <time>2012-01-15T11:25:14Z</time>
      </trkpt>
      <trkpt lat="43.40582" lon="5.46897">
        <ele>608.17</ele>
        <time>2012-01-15T11:25:21Z</time>
      </trkpt>
      <trkpt lat="43.40585" lon="5.46907">
        <ele>605.77</ele>
        <time>2012-01-15T11:25:45Z</time>
      </trkpt>
      <trkpt lat="43.40589" lon="5.46915">
        <ele>603.36</ele>
        <time>2012-01-15T11:25:50Z</time>
      </trkpt>
      <trkpt lat="43.40595" lon="5.4692">
        <ele>604.33</ele>
        <time>2012-01-15T11:26:03Z</time>
      </trkpt>
      <trkpt lat="43.40589" lon="5.46926">
        <ele>608.17</ele>
        <time>2012-01-15T11:26:16Z</time>
      </trkpt>
      <trkpt lat="43.40584" lon="5.46936">
        <ele>611.06</ele>
        <time>2012-01-15T11:26:22Z</time>
      </trkpt>
      <trkpt lat="43.40584" lon="5.46936">
        <ele>611.06</ele>
        <time>2012-01-15T11:26:23Z</time>
      </trkpt>
      <trkpt lat="43.40577" lon="5.46937">
        <ele>613.94</ele>
        <time>2012-01-15T11:26:32Z</time>
      </trkpt>
      <trkpt lat="43.40576" lon="5.46938">
        <ele>612.98</ele>
        <time>2012-01-15T11:26:33Z</time>
      </trkpt>
      <trkpt lat="43.40573" lon="5.46944">
        <ele>614.42</ele>
        <time>2012-01-15T11:26:38Z</time>
      </trkpt>
      <trkpt lat="43.40571" lon="5.46949">
        <ele>615.38</ele>
        <time>2012-01-15T11:26:42Z</time>
      </trkpt>
      <trkpt lat="43.40569" lon="5.46952">
        <ele>616.82</ele>
        <time>2012-01-15T11:26:45Z</time>
      </trkpt>
      <trkpt lat="43.40562" lon="5.46961">
        <ele>617.78</ele>
        <time>2012-01-15T11:27:02Z</time>
      </trkpt>
      <trkpt lat="43.40563" lon="5.46962">
        <ele>617.3</ele>
        <time>2012-01-15T11:27:13Z</time>
      </trkpt>
      <trkpt lat="43.40564" lon="5.46968">
        <ele>614.9</ele>
        <time>2012-01-15T11:27:32Z</time>
      </trkpt>
      <trkpt lat="43.4056" lon="5.46975">
        <ele>612.98</ele>
        <time>2012-01-15T11:27:50Z</time>
      </trkpt>
      <trkpt lat="43.4056" lon="5.46975">
        <ele>610.57</ele>
        <time>2012-01-15T11:27:53Z</time>
      </trkpt>
      <trkpt lat="43.40557" lon="5.46977">
        <ele>613.94</ele>
        <time>2012-01-15T11:28:02Z</time>
      </trkpt>
      <trkpt lat="43.40556" lon="5.46977">
        <ele>614.42</ele>
        <time>2012-01-15T11:28:04Z</time>
      </trkpt>
      <trkpt lat="43.40554" lon="5.46977">
        <ele>616.34</ele>
        <time>2012-01-15T11:28:05Z</time>
      </trkpt>
      <trkpt lat="43.40552" lon="5.46978">
        <ele>617.3</ele>
        <time>2012-01-15T11:28:07Z</time>
      </trkpt>
      <trkpt lat="43.40547" lon="5.46977">
        <ele>621.15</ele>
        <time>2012-01-15T11:28:20Z</time>
      </trkpt>
      <trkpt lat="43.40546" lon="5.46976">
        <ele>621.63</ele>
        <time>2012-01-15T11:28:21Z</time>
      </trkpt>
      <trkpt lat="43.40541" lon="5.4697">
        <ele>624.51</ele>
        <time>2012-01-15T11:28:41Z</time>
      </trkpt>
      <trkpt lat="43.40534" lon="5.46976">
        <ele>623.07</ele>
        <time>2012-01-15T11:29:02Z</time>
      </trkpt>
      <trkpt lat="43.40534" lon="5.46975">
        <ele>624.99</ele>
        <time>2012-01-15T11:29:04Z</time>
      </trkpt>
      <trkpt lat="43.40528" lon="5.46977">
        <ele>628.36</ele>
        <time>2012-01-15T11:29:23Z</time>
      </trkpt>
      <trkpt lat="43.40527" lon="5.46978">
        <ele>628.36</ele>
        <time>2012-01-15T11:29:24Z</time>
      </trkpt>
      <trkpt lat="43.40521" lon="5.46982">
        <ele>629.32</ele>
        <time>2012-01-15T11:29:29Z</time>
      </trkpt>
      <trkpt lat="43.40518" lon="5.46999">
        <ele>628.36</ele>
        <time>2012-01-15T11:29:39Z</time>
      </trkpt>
      <trkpt lat="43.40523" lon="5.47026">
        <ele>627.4</ele>
        <time>2012-01-15T11:29:53Z</time>
      </trkpt>
      <trkpt lat="43.40526" lon="5.47037">
        <ele>625.96</ele>
        <time>2012-01-15T11:29:57Z</time>
      </trkpt>
      <trkpt lat="43.40519" lon="5.47055">
        <ele>624.03</ele>
        <time>2012-01-15T11:30:06Z</time>
      </trkpt>
      <trkpt lat="43.40517" lon="5.47062">
        <ele>624.03</ele>
        <time>2012-01-15T11:30:09Z</time>
      </trkpt>
      <trkpt lat="43.40513" lon="5.47068">
        <ele>622.59</ele>
        <time>2012-01-15T11:30:13Z</time>
      </trkpt>
      <trkpt lat="43.40513" lon="5.4707">
        <ele>623.07</ele>
        <time>2012-01-15T11:30:14Z</time>
      </trkpt>
      <trkpt lat="43.4051" lon="5.47078">
        <ele>623.07</ele>
        <time>2012-01-15T11:30:19Z</time>
      </trkpt>
      <trkpt lat="43.40506" lon="5.47093">
        <ele>625.47</ele>
        <time>2012-01-15T11:30:26Z</time>
      </trkpt>
      <trkpt lat="43.40503" lon="5.47099">
        <ele>619.23</ele>
        <time>2012-01-15T11:30:29Z</time>
      </trkpt>
      <trkpt lat="43.40502" lon="5.47103">
        <ele>617.78</ele>
        <time>2012-01-15T11:30:31Z</time>
      </trkpt>
      <trkpt lat="43.40501" lon="5.47114">
        <ele>617.3</ele>
        <time>2012-01-15T11:30:37Z</time>
      </trkpt>
      <trkpt lat="43.40492" lon="5.47131">
        <ele>620.19</ele>
        <time>2012-01-15T11:30:47Z</time>
      </trkpt>
      <trkpt lat="43.40483" lon="5.47135">
        <ele>618.26</ele>
        <time>2012-01-15T11:30:50Z</time>
      </trkpt>
      <trkpt lat="43.40463" lon="5.4714">
        <ele>615.38</ele>
        <time>2012-01-15T11:31:00Z</time>
      </trkpt>
      <trkpt lat="43.4046" lon="5.4714">
        <ele>615.86</ele>
        <time>2012-01-15T11:31:01Z</time>
      </trkpt>
      <trkpt lat="43.40442" lon="5.47145">
        <ele>615.38</ele>
        <time>2012-01-15T11:31:07Z</time>
      </trkpt>
      <trkpt lat="43.40432" lon="5.47169">
        <ele>612.5</ele>
        <time>2012-01-15T11:31:14Z</time>
      </trkpt>
      <trkpt lat="43.40428" lon="5.47179">
        <ele>613.94</ele>
        <time>2012-01-15T11:31:17Z</time>
      </trkpt>
      <trkpt lat="43.4042" lon="5.472">
        <ele>612.02</ele>
        <time>2012-01-15T11:31:24Z</time>
      </trkpt>
      <trkpt lat="43.40436" lon="5.47255">
        <ele>610.09</ele>
        <time>2012-01-15T11:31:38Z</time>
      </trkpt>
      <trkpt lat="43.40449" lon="5.47308">
        <ele>612.98</ele>
        <time>2012-01-15T11:31:54Z</time>
      </trkpt>
      <trkpt lat="43.40449" lon="5.47312">
        <ele>612.98</ele>
        <time>2012-01-15T11:31:55Z</time>
      </trkpt>
      <trkpt lat="43.40452" lon="5.47328">
        <ele>612.98</ele>
        <time>2012-01-15T11:32:00Z</time>
      </trkpt>
      <trkpt lat="43.40467" lon="5.47386">
        <ele>614.9</ele>
        <time>2012-01-15T11:32:18Z</time>
      </trkpt>
      <trkpt lat="43.40472" lon="5.47416">
        <ele>614.42</ele>
        <time>2012-01-15T11:32:27Z</time>
      </trkpt>
      <trkpt lat="43.40474" lon="5.47423">
        <ele>613.94</ele>
        <time>2012-01-15T11:32:29Z</time>
      </trkpt>
      <trkpt lat="43.40488" lon="5.47469">
        <ele>611.54</ele>
        <time>2012-01-15T11:32:45Z</time>
      </trkpt>
      <trkpt lat="43.40487" lon="5.4749">
        <ele>609.13</ele>
        <time>2012-01-15T11:32:52Z</time>
      </trkpt>
      <trkpt lat="43.40487" lon="5.47504">
        <ele>609.13</ele>
        <time>2012-01-15T11:32:56Z</time>
      </trkpt>
      <trkpt lat="43.40505" lon="5.47559">
        <ele>608.17</ele>
        <time>2012-01-15T11:33:13Z</time>
      </trkpt>
      <trkpt lat="43.40507" lon="5.47572">
        <ele>606.73</ele>
        <time>2012-01-15T11:33:17Z</time>
      </trkpt>
      <trkpt lat="43.40521" lon="5.47586">
        <ele>604.33</ele>
        <time>2012-01-15T11:33:23Z</time>
      </trkpt>
      <trkpt lat="43.40523" lon="5.47587">
        <ele>604.33</ele>
        <time>2012-01-15T11:33:24Z</time>
      </trkpt>
      <trkpt lat="43.40541" lon="5.47584">
        <ele>601.44</ele>
        <time>2012-01-15T11:33:29Z</time>
      </trkpt>
      <trkpt lat="43.4055" lon="5.47584">
        <ele>602.4</ele>
        <time>2012-01-15T11:33:32Z</time>
      </trkpt>
      <trkpt lat="43.40557" lon="5.47587">
        <ele>599.04</ele>
        <time>2012-01-15T11:33:36Z</time>
      </trkpt>
      <trkpt lat="43.40568" lon="5.47611">
        <ele>599.52</ele>
        <time>2012-01-15T11:33:44Z</time>
      </trkpt>
      <trkpt lat="43.4059" lon="5.47656">
        <ele>596.15</ele>
        <time>2012-01-15T11:33:56Z</time>
      </trkpt>
      <trkpt lat="43.40626" lon="5.47697">
        <ele>595.19</ele>
        <time>2012-01-15T11:34:12Z</time>
      </trkpt>
      <trkpt lat="43.40641" lon="5.47707">
        <ele>593.27</ele>
        <time>2012-01-15T11:34:20Z</time>
      </trkpt>
      <trkpt lat="43.40675" lon="5.47741">
        <ele>589.91</ele>
        <time>2012-01-15T11:34:34Z</time>
      </trkpt>
      <trkpt lat="43.40682" lon="5.47748">
        <ele>586.54</ele>
        <time>2012-01-15T11:34:37Z</time>
      </trkpt>
      <trkpt lat="43.40705" lon="5.47774">
        <ele>585.58</ele>
        <time>2012-01-15T11:34:46Z</time>
      </trkpt>
      <trkpt lat="43.40729" lon="5.47818">
        <ele>582.7</ele>
        <time>2012-01-15T11:34:59Z</time>
      </trkpt>
      <trkpt lat="43.40732" lon="5.47825">
        <ele>581.73</ele>
        <time>2012-01-15T11:35:01Z</time>
      </trkpt>
      <trkpt lat="43.40735" lon="5.4783">
        <ele>577.89</ele>
        <time>2012-01-15T11:35:05Z</time>
      </trkpt>
      <trkpt lat="43.40736" lon="5.47831">
        <ele>580.29</ele>
        <time>2012-01-15T11:35:06Z</time>
      </trkpt>
      <trkpt lat="43.40747" lon="5.47869">
        <ele>580.29</ele>
        <time>2012-01-15T11:35:31Z</time>
      </trkpt>
      <trkpt lat="43.40754" lon="5.47903">
        <ele>581.73</ele>
        <time>2012-01-15T11:35:45Z</time>
      </trkpt>
      <trkpt lat="43.40759" lon="5.47919">
        <ele>578.37</ele>
        <time>2012-01-15T11:35:50Z</time>
      </trkpt>
      <trkpt lat="43.4076" lon="5.47923">
        <ele>581.73</ele>
        <time>2012-01-15T11:35:51Z</time>
      </trkpt>
      <trkpt lat="43.40777" lon="5.47981">
        <ele>583.66</ele>
        <time>2012-01-15T11:36:08Z</time>
      </trkpt>
      <trkpt lat="43.40783" lon="5.48">
        <ele>584.14</ele>
        <time>2012-01-15T11:36:14Z</time>
      </trkpt>
      <trkpt lat="43.40791" lon="5.48048">
        <ele>582.7</ele>
        <time>2012-01-15T11:36:29Z</time>
      </trkpt>
      <trkpt lat="43.40792" lon="5.48069">
        <ele>584.14</ele>
        <time>2012-01-15T11:36:35Z</time>
      </trkpt>
      <trkpt lat="43.40792" lon="5.48124">
        <ele>584.62</ele>
        <time>2012-01-15T11:36:51Z</time>
      </trkpt>
      <trkpt lat="43.4079" lon="5.48174">
        <ele>582.7</ele>
        <time>2012-01-15T11:37:07Z</time>
      </trkpt>
      <trkpt lat="43.4079" lon="5.48189">
        <ele>585.1</ele>
        <time>2012-01-15T11:37:12Z</time>
      </trkpt>
      <trkpt lat="43.40797" lon="5.48241">
        <ele>585.58</ele>
        <time>2012-01-15T11:37:29Z</time>
      </trkpt>
      <trkpt lat="43.40807" lon="5.48294">
        <ele>586.06</ele>
        <time>2012-01-15T11:37:46Z</time>
      </trkpt>
      <trkpt lat="43.4082" lon="5.48347">
        <ele>587.98</ele>
        <time>2012-01-15T11:38:03Z</time>
      </trkpt>
      <trkpt lat="43.40822" lon="5.48353">
        <ele>585.1</ele>
        <time>2012-01-15T11:38:07Z</time>
      </trkpt>
      <trkpt lat="43.40823" lon="5.48356">
        <ele>580.77</ele>
        <time>2012-01-15T11:38:09Z</time>
      </trkpt>
      <trkpt lat="43.40824" lon="5.48358">
        <ele>585.1</ele>
        <time>2012-01-15T11:38:10Z</time>
      </trkpt>
      <trkpt lat="43.40824" lon="5.48379">
        <ele>582.7</ele>
        <time>2012-01-15T11:38:29Z</time>
      </trkpt>
      <trkpt lat="43.40825" lon="5.48387">
        <ele>584.14</ele>
        <time>2012-01-15T11:38:44Z</time>
      </trkpt>
      <trkpt lat="43.40825" lon="5.48387">
        <ele>582.7</ele>
        <time>2012-01-15T11:38:46Z</time>
      </trkpt>
      <trkpt lat="43.40823" lon="5.48392">
        <ele>585.1</ele>
        <time>2012-01-15T11:38:49Z</time>
      </trkpt>
      <trkpt lat="43.40821" lon="5.48399">
        <ele>586.54</ele>
        <time>2012-01-15T11:38:51Z</time>
      </trkpt>
      <trkpt lat="43.40822" lon="5.48408">
        <ele>587.02</ele>
        <time>2012-01-15T11:38:56Z</time>
      </trkpt>
      <trkpt lat="43.40821" lon="5.48419">
        <ele>587.98</ele>
        <time>2012-01-15T11:39:00Z</time>
      </trkpt>
      <trkpt lat="43.40822" lon="5.48421">
        <ele>588.95</ele>
        <time>2012-01-15T11:39:05Z</time>
      </trkpt>
      <trkpt lat="43.4082" lon="5.48436">
        <ele>590.87</ele>
        <time>2012-01-15T11:39:13Z</time>
      </trkpt>
      <trkpt lat="43.40819" lon="5.4846">
        <ele>593.75</ele>
        <time>2012-01-15T11:39:26Z</time>
      </trkpt>
      <trkpt lat="43.40819" lon="5.48463">
        <ele>593.75</ele>
        <time>2012-01-15T11:39:27Z</time>
      </trkpt>
      <trkpt lat="43.40821" lon="5.48489">
        <ele>595.19</ele>
        <time>2012-01-15T11:39:42Z</time>
      </trkpt>
      <trkpt lat="43.4082" lon="5.48509">
        <ele>597.12</ele>
        <time>2012-01-15T11:39:56Z</time>
      </trkpt>
      <trkpt lat="43.40818" lon="5.48525">
        <ele>600</ele>
        <time>2012-01-15T11:40:08Z</time>
      </trkpt>
      <trkpt lat="43.40817" lon="5.48531">
        <ele>601.44</ele>
        <time>2012-01-15T11:40:13Z</time>
      </trkpt>
      <trkpt lat="43.40818" lon="5.48541">
        <ele>603.36</ele>
        <time>2012-01-15T11:40:20Z</time>
      </trkpt>
      <trkpt lat="43.4082" lon="5.48551">
        <ele>604.81</ele>
        <time>2012-01-15T11:40:28Z</time>
      </trkpt>
      <trkpt lat="43.40822" lon="5.48563">
        <ele>607.21</ele>
        <time>2012-01-15T11:40:36Z</time>
      </trkpt>
      <trkpt lat="43.40825" lon="5.48582">
        <ele>609.61</ele>
        <time>2012-01-15T11:40:49Z</time>
      </trkpt>
      <trkpt lat="43.40824" lon="5.48607">
        <ele>610.57</ele>
        <time>2012-01-15T11:41:04Z</time>
      </trkpt>
      <trkpt lat="43.40829" lon="5.48622">
        <ele>611.54</ele>
        <time>2012-01-15T11:41:15Z</time>
      </trkpt>
      <trkpt lat="43.4083" lon="5.48641">
        <ele>614.42</ele>
        <time>2012-01-15T11:41:27Z</time>
      </trkpt>
      <trkpt lat="43.40829" lon="5.48645">
        <ele>613.46</ele>
        <time>2012-01-15T11:41:32Z</time>
      </trkpt>
      <trkpt lat="43.4083" lon="5.4865">
        <ele>616.34</ele>
        <time>2012-01-15T11:41:37Z</time>
      </trkpt>
      <trkpt lat="43.40831" lon="5.48661">
        <ele>618.26</ele>
        <time>2012-01-15T11:41:46Z</time>
      </trkpt>
      <trkpt lat="43.40831" lon="5.48663">
        <ele>618.26</ele>
        <time>2012-01-15T11:41:48Z</time>
      </trkpt>
      <trkpt lat="43.40831" lon="5.48668">
        <ele>619.71</ele>
        <time>2012-01-15T11:41:53Z</time>
      </trkpt>
      <trkpt lat="43.40831" lon="5.48675">
        <ele>622.59</ele>
        <time>2012-01-15T11:42:02Z</time>
      </trkpt>
      <trkpt lat="43.4083" lon="5.48687">
        <ele>622.11</ele>
        <time>2012-01-15T11:42:11Z</time>
      </trkpt>
      <trkpt lat="43.40829" lon="5.48692">
        <ele>623.55</ele>
        <time>2012-01-15T11:42:14Z</time>
      </trkpt>
      <trkpt lat="43.40831" lon="5.48694">
        <ele>624.03</ele>
        <time>2012-01-15T11:42:17Z</time>
      </trkpt>
      <trkpt lat="43.40831" lon="5.487">
        <ele>624.99</ele>
        <time>2012-01-15T11:42:21Z</time>
      </trkpt>
      <trkpt lat="43.40828" lon="5.48711">
        <ele>628.36</ele>
        <time>2012-01-15T11:42:32Z</time>
      </trkpt>
      <trkpt lat="43.40826" lon="5.4872">
        <ele>630.28</ele>
        <time>2012-01-15T11:42:41Z</time>
      </trkpt>
      <trkpt lat="43.40824" lon="5.48738">
        <ele>634.13</ele>
        <time>2012-01-15T11:42:56Z</time>
      </trkpt>
      <trkpt lat="43.40824" lon="5.48739">
        <ele>634.13</ele>
        <time>2012-01-15T11:42:57Z</time>
      </trkpt>
      <trkpt lat="43.40818" lon="5.4874">
        <ele>636.05</ele>
        <time>2012-01-15T11:43:05Z</time>
      </trkpt>
      <trkpt lat="43.40816" lon="5.48742">
        <ele>637.01</ele>
        <time>2012-01-15T11:43:08Z</time>
      </trkpt>
      <trkpt lat="43.40815" lon="5.48745">
        <ele>638.45</ele>
        <time>2012-01-15T11:43:15Z</time>
      </trkpt>
      <trkpt lat="43.40813" lon="5.48748">
        <ele>640.38</ele>
        <time>2012-01-15T11:43:22Z</time>
      </trkpt>
      <trkpt lat="43.4081" lon="5.48752">
        <ele>639.89</ele>
        <time>2012-01-15T11:43:31Z</time>
      </trkpt>
      <trkpt lat="43.40808" lon="5.48762">
        <ele>640.38</ele>
        <time>2012-01-15T11:43:51Z</time>
      </trkpt>
      <trkpt lat="43.40808" lon="5.48775">
        <ele>643.74</ele>
        <time>2012-01-15T11:44:02Z</time>
      </trkpt>
      <trkpt lat="43.40808" lon="5.48784">
        <ele>646.62</ele>
        <time>2012-01-15T11:44:17Z</time>
      </trkpt>
      <trkpt lat="43.40811" lon="5.4879">
        <ele>649.99</ele>
        <time>2012-01-15T11:44:30Z</time>
      </trkpt>
      <trkpt lat="43.40811" lon="5.48794">
        <ele>653.35</ele>
        <time>2012-01-15T11:44:41Z</time>
      </trkpt>
      <trkpt lat="43.40812" lon="5.48802">
        <ele>654.8</ele>
        <time>2012-01-15T11:44:48Z</time>
      </trkpt>
      <trkpt lat="43.40815" lon="5.48805">
        <ele>656.72</ele>
        <time>2012-01-15T11:44:57Z</time>
      </trkpt>
      <trkpt lat="43.40816" lon="5.4881">
        <ele>657.68</ele>
        <time>2012-01-15T11:45:05Z</time>
      </trkpt>
      <trkpt lat="43.40816" lon="5.48814">
        <ele>659.12</ele>
        <time>2012-01-15T11:45:10Z</time>
      </trkpt>
      <trkpt lat="43.40816" lon="5.48815">
        <ele>659.6</ele>
        <time>2012-01-15T11:45:11Z</time>
      </trkpt>
      <trkpt lat="43.40818" lon="5.4882">
        <ele>662.49</ele>
        <time>2012-01-15T11:45:19Z</time>
      </trkpt>
      <trkpt lat="43.40817" lon="5.4883">
        <ele>663.93</ele>
        <time>2012-01-15T11:45:30Z</time>
      </trkpt>
      <trkpt lat="43.40817" lon="5.48833">
        <ele>662.49</ele>
        <time>2012-01-15T11:45:32Z</time>
      </trkpt>
      <trkpt lat="43.40814" lon="5.48838">
        <ele>663.45</ele>
        <time>2012-01-15T11:45:38Z</time>
      </trkpt>
      <trkpt lat="43.40815" lon="5.48842">
        <ele>665.85</ele>
        <time>2012-01-15T11:45:41Z</time>
      </trkpt>
      <trkpt lat="43.40813" lon="5.48845">
        <ele>664.89</ele>
        <time>2012-01-15T11:45:44Z</time>
      </trkpt>
      <trkpt lat="43.40813" lon="5.48852">
        <ele>667.29</ele>
        <time>2012-01-15T11:45:49Z</time>
      </trkpt>
      <trkpt lat="43.40814" lon="5.48854">
        <ele>666.33</ele>
        <time>2012-01-15T11:45:51Z</time>
      </trkpt>
      <trkpt lat="43.40816" lon="5.48856">
        <ele>667.29</ele>
        <time>2012-01-15T11:45:53Z</time>
      </trkpt>
      <trkpt lat="43.40815" lon="5.48857">
        <ele>667.77</ele>
        <time>2012-01-15T11:45:56Z</time>
      </trkpt>
      <trkpt lat="43.40814" lon="5.48862">
        <ele>669.22</ele>
        <time>2012-01-15T11:45:59Z</time>
      </trkpt>
      <trkpt lat="43.40813" lon="5.48865">
        <ele>668.25</ele>
        <time>2012-01-15T11:46:01Z</time>
      </trkpt>
      <trkpt lat="43.40812" lon="5.48871">
        <ele>671.62</ele>
        <time>2012-01-15T11:46:07Z</time>
      </trkpt>
      <trkpt lat="43.40813" lon="5.48875">
        <ele>670.18</ele>
        <time>2012-01-15T11:46:10Z</time>
      </trkpt>
      <trkpt lat="43.40813" lon="5.48878">
        <ele>671.62</ele>
        <time>2012-01-15T11:46:13Z</time>
      </trkpt>
      <trkpt lat="43.40815" lon="5.48881">
        <ele>673.54</ele>
        <time>2012-01-15T11:46:16Z</time>
      </trkpt>
      <trkpt lat="43.40814" lon="5.48894">
        <ele>674.02</ele>
        <time>2012-01-15T11:46:27Z</time>
      </trkpt>
      <trkpt lat="43.40814" lon="5.48896">
        <ele>674.98</ele>
        <time>2012-01-15T11:46:29Z</time>
      </trkpt>
      <trkpt lat="43.40813" lon="5.48908">
        <ele>678.35</ele>
        <time>2012-01-15T11:46:38Z</time>
      </trkpt>
      <trkpt lat="43.40813" lon="5.48908">
        <ele>676.91</ele>
        <time>2012-01-15T11:46:39Z</time>
      </trkpt>
      <trkpt lat="43.40811" lon="5.48911">
        <ele>677.87</ele>
        <time>2012-01-15T11:46:42Z</time>
      </trkpt>
      <trkpt lat="43.4081" lon="5.48914">
        <ele>676.91</ele>
        <time>2012-01-15T11:46:44Z</time>
      </trkpt>
      <trkpt lat="43.4081" lon="5.4892">
        <ele>679.79</ele>
        <time>2012-01-15T11:46:48Z</time>
      </trkpt>
      <trkpt lat="43.40814" lon="5.4893">
        <ele>681.71</ele>
        <time>2012-01-15T11:47:01Z</time>
      </trkpt>
      <trkpt lat="43.40814" lon="5.48932">
        <ele>682.67</ele>
        <time>2012-01-15T11:47:05Z</time>
      </trkpt>
      <trkpt lat="43.40814" lon="5.48934">
        <ele>681.71</ele>
        <time>2012-01-15T11:47:07Z</time>
      </trkpt>
      <trkpt lat="43.40812" lon="5.4894">
        <ele>683.15</ele>
        <time>2012-01-15T11:47:11Z</time>
      </trkpt>
      <trkpt lat="43.40811" lon="5.48944">
        <ele>683.15</ele>
        <time>2012-01-15T11:47:14Z</time>
      </trkpt>
      <trkpt lat="43.40813" lon="5.48951">
        <ele>684.12</ele>
        <time>2012-01-15T11:47:20Z</time>
      </trkpt>
      <trkpt lat="43.40812" lon="5.48956">
        <ele>687.96</ele>
        <time>2012-01-15T11:47:24Z</time>
      </trkpt>
      <trkpt lat="43.40812" lon="5.48958">
        <ele>688.44</ele>
        <time>2012-01-15T11:47:25Z</time>
      </trkpt>
      <trkpt lat="43.40811" lon="5.4896">
        <ele>686.52</ele>
        <time>2012-01-15T11:47:27Z</time>
      </trkpt>
      <trkpt lat="43.40811" lon="5.48964">
        <ele>687</ele>
        <time>2012-01-15T11:47:30Z</time>
      </trkpt>
      <trkpt lat="43.40813" lon="5.48969">
        <ele>691.81</ele>
        <time>2012-01-15T11:47:36Z</time>
      </trkpt>
      <trkpt lat="43.40812" lon="5.48975">
        <ele>690.36</ele>
        <time>2012-01-15T11:47:41Z</time>
      </trkpt>
      <trkpt lat="43.4081" lon="5.48982">
        <ele>693.73</ele>
        <time>2012-01-15T11:47:46Z</time>
      </trkpt>
      <trkpt lat="43.40808" lon="5.48984">
        <ele>693.25</ele>
        <time>2012-01-15T11:47:49Z</time>
      </trkpt>
      <trkpt lat="43.40806" lon="5.48988">
        <ele>691.33</ele>
        <time>2012-01-15T11:47:52Z</time>
      </trkpt>
      <trkpt lat="43.40805" lon="5.48991">
        <ele>691.33</ele>
        <time>2012-01-15T11:47:54Z</time>
      </trkpt>
      <trkpt lat="43.40805" lon="5.48997">
        <ele>695.17</ele>
        <time>2012-01-15T11:47:58Z</time>
      </trkpt>
      <trkpt lat="43.40804" lon="5.48998">
        <ele>695.17</ele>
        <time>2012-01-15T11:47:59Z</time>
      </trkpt>
      <trkpt lat="43.40804" lon="5.48999">
        <ele>694.21</ele>
        <time>2012-01-15T11:48:00Z</time>
      </trkpt>
      <trkpt lat="43.40802" lon="5.49001">
        <ele>694.21</ele>
        <time>2012-01-15T11:48:02Z</time>
      </trkpt>
      <trkpt lat="43.408" lon="5.49005">
        <ele>691.81</ele>
        <time>2012-01-15T11:48:05Z</time>
      </trkpt>
      <trkpt lat="43.40801" lon="5.49008">
        <ele>695.17</ele>
        <time>2012-01-15T11:48:08Z</time>
      </trkpt>
      <trkpt lat="43.40798" lon="5.4902">
        <ele>694.21</ele>
        <time>2012-01-15T11:48:18Z</time>
      </trkpt>
      <trkpt lat="43.40797" lon="5.49027">
        <ele>697.09</ele>
        <time>2012-01-15T11:48:23Z</time>
      </trkpt>
      <trkpt lat="43.40796" lon="5.49036">
        <ele>698.05</ele>
        <time>2012-01-15T11:48:29Z</time>
      </trkpt>
      <trkpt lat="43.40795" lon="5.49041">
        <ele>699.02</ele>
        <time>2012-01-15T11:48:33Z</time>
      </trkpt>
      <trkpt lat="43.40795" lon="5.49045">
        <ele>699.02</ele>
        <time>2012-01-15T11:48:36Z</time>
      </trkpt>
      <trkpt lat="43.40792" lon="5.49049">
        <ele>698.05</ele>
        <time>2012-01-15T11:48:40Z</time>
      </trkpt>
      <trkpt lat="43.40791" lon="5.49051">
        <ele>698.05</ele>
        <time>2012-01-15T11:48:42Z</time>
      </trkpt>
      <trkpt lat="43.40789" lon="5.49058">
        <ele>697.57</ele>
        <time>2012-01-15T11:48:47Z</time>
      </trkpt>
      <trkpt lat="43.4079" lon="5.49064">
        <ele>700.46</ele>
        <time>2012-01-15T11:48:51Z</time>
      </trkpt>
      <trkpt lat="43.40789" lon="5.4907">
        <ele>700.46</ele>
        <time>2012-01-15T11:48:55Z</time>
      </trkpt>
      <trkpt lat="43.40785" lon="5.49084">
        <ele>701.9</ele>
        <time>2012-01-15T11:49:04Z</time>
      </trkpt>
      <trkpt lat="43.40784" lon="5.49086">
        <ele>702.86</ele>
        <time>2012-01-15T11:49:06Z</time>
      </trkpt>
      <trkpt lat="43.40778" lon="5.49099">
        <ele>701.42</ele>
        <time>2012-01-15T11:49:16Z</time>
      </trkpt>
      <trkpt lat="43.40779" lon="5.49105">
        <ele>704.78</ele>
        <time>2012-01-15T11:49:19Z</time>
      </trkpt>
      <trkpt lat="43.40778" lon="5.49106">
        <ele>704.78</ele>
        <time>2012-01-15T11:49:20Z</time>
      </trkpt>
      <trkpt lat="43.40776" lon="5.49111">
        <ele>704.78</ele>
        <time>2012-01-15T11:49:24Z</time>
      </trkpt>
      <trkpt lat="43.40773" lon="5.49117">
        <ele>701.42</ele>
        <time>2012-01-15T11:49:28Z</time>
      </trkpt>
      <trkpt lat="43.40773" lon="5.49123">
        <ele>703.34</ele>
        <time>2012-01-15T11:49:32Z</time>
      </trkpt>
      <trkpt lat="43.40773" lon="5.49126">
        <ele>703.82</ele>
        <time>2012-01-15T11:49:34Z</time>
      </trkpt>
      <trkpt lat="43.4077" lon="5.49131">
        <ele>704.3</ele>
        <time>2012-01-15T11:49:39Z</time>
      </trkpt>
      <trkpt lat="43.40769" lon="5.49136">
        <ele>706.23</ele>
        <time>2012-01-15T11:49:42Z</time>
      </trkpt>
      <trkpt lat="43.40769" lon="5.49143">
        <ele>707.19</ele>
        <time>2012-01-15T11:49:47Z</time>
      </trkpt>
      <trkpt lat="43.40768" lon="5.49156">
        <ele>710.55</ele>
        <time>2012-01-15T11:49:56Z</time>
      </trkpt>
      <trkpt lat="43.40768" lon="5.4916">
        <ele>710.55</ele>
        <time>2012-01-15T11:50:00Z</time>
      </trkpt>
      <trkpt lat="43.40769" lon="5.49164">
        <ele>709.59</ele>
        <time>2012-01-15T11:50:04Z</time>
      </trkpt>
      <trkpt lat="43.4077" lon="5.49169">
        <ele>712.95</ele>
        <time>2012-01-15T11:50:07Z</time>
      </trkpt>
      <trkpt lat="43.40772" lon="5.49173">
        <ele>712.47</ele>
        <time>2012-01-15T11:50:12Z</time>
      </trkpt>
      <trkpt lat="43.40773" lon="5.49174">
        <ele>711.51</ele>
        <time>2012-01-15T11:50:25Z</time>
      </trkpt>
      <trkpt lat="43.40773" lon="5.49177">
        <ele>714.4</ele>
        <time>2012-01-15T11:50:33Z</time>
      </trkpt>
      <trkpt lat="43.4077" lon="5.49184">
        <ele>713.92</ele>
        <time>2012-01-15T11:50:38Z</time>
      </trkpt>
      <trkpt lat="43.40772" lon="5.4919">
        <ele>715.36</ele>
        <time>2012-01-15T11:50:42Z</time>
      </trkpt>
      <trkpt lat="43.40774" lon="5.49196">
        <ele>714.88</ele>
        <time>2012-01-15T11:50:47Z</time>
      </trkpt>
      <trkpt lat="43.40772" lon="5.49208">
        <ele>717.76</ele>
        <time>2012-01-15T11:50:54Z</time>
      </trkpt>
      <trkpt lat="43.40772" lon="5.49215">
        <ele>715.84</ele>
        <time>2012-01-15T11:50:58Z</time>
      </trkpt>
      <trkpt lat="43.40773" lon="5.49216">
        <ele>716.32</ele>
        <time>2012-01-15T11:50:59Z</time>
      </trkpt>
      <trkpt lat="43.40774" lon="5.49219">
        <ele>720.16</ele>
        <time>2012-01-15T11:51:02Z</time>
      </trkpt>
      <trkpt lat="43.40774" lon="5.4922">
        <ele>720.16</ele>
        <time>2012-01-15T11:51:03Z</time>
      </trkpt>
      <trkpt lat="43.40774" lon="5.49222">
        <ele>719.68</ele>
        <time>2012-01-15T11:51:05Z</time>
      </trkpt>
      <trkpt lat="43.40774" lon="5.49236">
        <ele>718.24</ele>
        <time>2012-01-15T11:51:14Z</time>
      </trkpt>
      <trkpt lat="43.40774" lon="5.4924">
        <ele>721.13</ele>
        <time>2012-01-15T11:51:16Z</time>
      </trkpt>
      <trkpt lat="43.40773" lon="5.49243">
        <ele>719.2</ele>
        <time>2012-01-15T11:51:18Z</time>
      </trkpt>
      <trkpt lat="43.40773" lon="5.49247">
        <ele>721.13</ele>
        <time>2012-01-15T11:51:20Z</time>
      </trkpt>
      <trkpt lat="43.40772" lon="5.4925">
        <ele>715.36</ele>
        <time>2012-01-15T11:51:24Z</time>
      </trkpt>
      <trkpt lat="43.40773" lon="5.4925">
        <ele>718.24</ele>
        <time>2012-01-15T11:51:25Z</time>
      </trkpt>
      <trkpt lat="43.40772" lon="5.49253">
        <ele>719.2</ele>
        <time>2012-01-15T11:51:29Z</time>
      </trkpt>
      <trkpt lat="43.4077" lon="5.49266">
        <ele>718.72</ele>
        <time>2012-01-15T11:51:37Z</time>
      </trkpt>
      <trkpt lat="43.40771" lon="5.49271">
        <ele>721.61</ele>
        <time>2012-01-15T11:51:40Z</time>
      </trkpt>
      <trkpt lat="43.40771" lon="5.49272">
        <ele>722.09</ele>
        <time>2012-01-15T11:51:41Z</time>
      </trkpt>
      <trkpt lat="43.40773" lon="5.49275">
        <ele>723.05</ele>
        <time>2012-01-15T11:51:43Z</time>
      </trkpt>
      <trkpt lat="43.40774" lon="5.49282">
        <ele>723.53</ele>
        <time>2012-01-15T11:51:50Z</time>
      </trkpt>
      <trkpt lat="43.40775" lon="5.49289">
        <ele>724.97</ele>
        <time>2012-01-15T11:51:56Z</time>
      </trkpt>
      <trkpt lat="43.40776" lon="5.49295">
        <ele>726.89</ele>
        <time>2012-01-15T11:52:01Z</time>
      </trkpt>
      <trkpt lat="43.40778" lon="5.49299">
        <ele>725.93</ele>
        <time>2012-01-15T11:52:07Z</time>
      </trkpt>
      <trkpt lat="43.40778" lon="5.49306">
        <ele>726.89</ele>
        <time>2012-01-15T11:52:11Z</time>
      </trkpt>
      <trkpt lat="43.40776" lon="5.49318">
        <ele>728.34</ele>
        <time>2012-01-15T11:52:21Z</time>
      </trkpt>
      <trkpt lat="43.40773" lon="5.49327">
        <ele>729.3</ele>
        <time>2012-01-15T11:52:27Z</time>
      </trkpt>
      <trkpt lat="43.40772" lon="5.49337">
        <ele>728.82</ele>
        <time>2012-01-15T11:52:32Z</time>
      </trkpt>
      <trkpt lat="43.40769" lon="5.49352">
        <ele>729.78</ele>
        <time>2012-01-15T11:52:41Z</time>
      </trkpt>
      <trkpt lat="43.40769" lon="5.49362">
        <ele>730.74</ele>
        <time>2012-01-15T11:52:49Z</time>
      </trkpt>
      <trkpt lat="43.40769" lon="5.49368">
        <ele>731.7</ele>
        <time>2012-01-15T11:52:54Z</time>
      </trkpt>
      <trkpt lat="43.40765" lon="5.4939">
        <ele>731.7</ele>
        <time>2012-01-15T11:53:06Z</time>
      </trkpt>
      <trkpt lat="43.40764" lon="5.49392">
        <ele>732.66</ele>
        <time>2012-01-15T11:53:11Z</time>
      </trkpt>
      <trkpt lat="43.40761" lon="5.49402">
        <ele>733.14</ele>
        <time>2012-01-15T11:53:16Z</time>
      </trkpt>
      <trkpt lat="43.40759" lon="5.49409">
        <ele>733.62</ele>
        <time>2012-01-15T11:53:22Z</time>
      </trkpt>
      <trkpt lat="43.40755" lon="5.49419">
        <ele>733.62</ele>
        <time>2012-01-15T11:53:27Z</time>
      </trkpt>
      <trkpt lat="43.40752" lon="5.49427">
        <ele>734.58</ele>
        <time>2012-01-15T11:53:32Z</time>
      </trkpt>
      <trkpt lat="43.4075" lon="5.49432">
        <ele>732.66</ele>
        <time>2012-01-15T11:53:37Z</time>
      </trkpt>
      <trkpt lat="43.40743" lon="5.49435">
        <ele>731.22</ele>
        <time>2012-01-15T11:53:45Z</time>
      </trkpt>
      <trkpt lat="43.40739" lon="5.49443">
        <ele>729.3</ele>
        <time>2012-01-15T11:53:58Z</time>
      </trkpt>
      <trkpt lat="43.40739" lon="5.49443">
        <ele>726.41</ele>
        <time>2012-01-15T11:54:24Z</time>
      </trkpt>
      <trkpt lat="43.40739" lon="5.49443">
        <ele>730.74</ele>
        <time>2012-01-15T11:54:26Z</time>
      </trkpt>
      <trkpt lat="43.40739" lon="5.49443">
        <ele>730.74</ele>
        <time>2012-01-15T11:54:27Z</time>
      </trkpt>
      <trkpt lat="43.40739" lon="5.49443">
        <ele>729.3</ele>
        <time>2012-01-15T11:54:29Z</time>
      </trkpt>
      <trkpt lat="43.40739" lon="5.49443">
        <ele>725.93</ele>
        <time>2012-01-15T11:54:30Z</time>
      </trkpt>
      <trkpt lat="43.40739" lon="5.49443">
        <ele>729.3</ele>
        <time>2012-01-15T11:54:31Z</time>
      </trkpt>
      <trkpt lat="43.40738" lon="5.49445">
        <ele>727.86</ele>
        <time>2012-01-15T11:54:52Z</time>
      </trkpt>
      <trkpt lat="43.40737" lon="5.49446">
        <ele>728.82</ele>
        <time>2012-01-15T11:54:54Z</time>
      </trkpt>
      <trkpt lat="43.40735" lon="5.4945">
        <ele>729.3</ele>
        <time>2012-01-15T11:54:59Z</time>
      </trkpt>
      <trkpt lat="43.4073" lon="5.49454">
        <ele>727.37</ele>
        <time>2012-01-15T11:55:07Z</time>
      </trkpt>
      <trkpt lat="43.4073" lon="5.49457">
        <ele>728.82</ele>
        <time>2012-01-15T11:55:09Z</time>
      </trkpt>
      <trkpt lat="43.40722" lon="5.49479">
        <ele>728.34</ele>
        <time>2012-01-15T11:55:23Z</time>
      </trkpt>
      <trkpt lat="43.40722" lon="5.49479">
        <ele>724.97</ele>
        <time>2012-01-15T11:55:24Z</time>
      </trkpt>
      <trkpt lat="43.40721" lon="5.49479">
        <ele>726.89</ele>
        <time>2012-01-15T11:55:25Z</time>
      </trkpt>
      <trkpt lat="43.40717" lon="5.49492">
        <ele>729.78</ele>
        <time>2012-01-15T11:55:31Z</time>
      </trkpt>
      <trkpt lat="43.40716" lon="5.49493">
        <ele>729.3</ele>
        <time>2012-01-15T11:55:33Z</time>
      </trkpt>
      <trkpt lat="43.40713" lon="5.49496">
        <ele>730.26</ele>
        <time>2012-01-15T11:55:35Z</time>
      </trkpt>
      <trkpt lat="43.40711" lon="5.49501">
        <ele>727.37</ele>
        <time>2012-01-15T11:55:37Z</time>
      </trkpt>
      <trkpt lat="43.40711" lon="5.49502">
        <ele>730.26</ele>
        <time>2012-01-15T11:55:38Z</time>
      </trkpt>
      <trkpt lat="43.40711" lon="5.49504">
        <ele>731.7</ele>
        <time>2012-01-15T11:55:41Z</time>
      </trkpt>
      <trkpt lat="43.40707" lon="5.49507">
        <ele>726.89</ele>
        <time>2012-01-15T11:55:47Z</time>
      </trkpt>
      <trkpt lat="43.40706" lon="5.49509">
        <ele>725.93</ele>
        <time>2012-01-15T11:55:48Z</time>
      </trkpt>
      <trkpt lat="43.407" lon="5.49516">
        <ele>729.3</ele>
        <time>2012-01-15T11:55:51Z</time>
      </trkpt>
      <trkpt lat="43.40697" lon="5.49521">
        <ele>727.37</ele>
        <time>2012-01-15T11:55:56Z</time>
      </trkpt>
      <trkpt lat="43.40696" lon="5.49522">
        <ele>724.97</ele>
        <time>2012-01-15T11:55:57Z</time>
      </trkpt>
      <trkpt lat="43.40694" lon="5.4953">
        <ele>729.3</ele>
        <time>2012-01-15T11:56:00Z</time>
      </trkpt>
      <trkpt lat="43.40693" lon="5.49531">
        <ele>728.82</ele>
        <time>2012-01-15T11:56:01Z</time>
      </trkpt>
      <trkpt lat="43.40693" lon="5.49532">
        <ele>727.37</ele>
        <time>2012-01-15T11:56:03Z</time>
      </trkpt>
      <trkpt lat="43.40692" lon="5.49532">
        <ele>725.45</ele>
        <time>2012-01-15T11:56:04Z</time>
      </trkpt>
      <trkpt lat="43.40686" lon="5.49535">
        <ele>726.89</ele>
        <time>2012-01-15T11:56:08Z</time>
      </trkpt>
      <trkpt lat="43.40685" lon="5.49538">
        <ele>724.49</ele>
        <time>2012-01-15T11:56:09Z</time>
      </trkpt>
      <trkpt lat="43.40683" lon="5.49547">
        <ele>724.49</ele>
        <time>2012-01-15T11:56:16Z</time>
      </trkpt>
      <trkpt lat="43.40676" lon="5.49557">
        <ele>724.01</ele>
        <time>2012-01-15T11:56:22Z</time>
      </trkpt>
      <trkpt lat="43.40674" lon="5.49565">
        <ele>725.45</ele>
        <time>2012-01-15T11:56:27Z</time>
      </trkpt>
      <trkpt lat="43.4067" lon="5.4957">
        <ele>725.93</ele>
        <time>2012-01-15T11:56:30Z</time>
      </trkpt>
      <trkpt lat="43.40668" lon="5.49572">
        <ele>722.57</ele>
        <time>2012-01-15T11:56:31Z</time>
      </trkpt>
      <trkpt lat="43.40666" lon="5.49576">
        <ele>724.49</ele>
        <time>2012-01-15T11:56:37Z</time>
      </trkpt>
      <trkpt lat="43.40658" lon="5.49585">
        <ele>723.53</ele>
        <time>2012-01-15T11:56:46Z</time>
      </trkpt>
      <trkpt lat="43.40655" lon="5.49593">
        <ele>722.57</ele>
        <time>2012-01-15T11:56:51Z</time>
      </trkpt>
      <trkpt lat="43.40654" lon="5.49602">
        <ele>721.61</ele>
        <time>2012-01-15T11:56:56Z</time>
      </trkpt>
      <trkpt lat="43.40651" lon="5.49618">
        <ele>724.97</ele>
        <time>2012-01-15T11:57:05Z</time>
      </trkpt>
      <trkpt lat="43.4065" lon="5.49628">
        <ele>728.34</ele>
        <time>2012-01-15T11:57:11Z</time>
      </trkpt>
      <trkpt lat="43.4065" lon="5.4963">
        <ele>726.41</ele>
        <time>2012-01-15T11:57:12Z</time>
      </trkpt>
      <trkpt lat="43.40649" lon="5.49638">
        <ele>724.49</ele>
        <time>2012-01-15T11:57:18Z</time>
      </trkpt>
      <trkpt lat="43.40648" lon="5.49649">
        <ele>728.82</ele>
        <time>2012-01-15T11:57:24Z</time>
      </trkpt>
      <trkpt lat="43.40648" lon="5.49651">
        <ele>725.45</ele>
        <time>2012-01-15T11:57:27Z</time>
      </trkpt>
      <trkpt lat="43.40648" lon="5.49651">
        <ele>729.3</ele>
        <time>2012-01-15T11:57:31Z</time>
      </trkpt>
      <trkpt lat="43.40647" lon="5.49654">
        <ele>729.3</ele>
        <time>2012-01-15T11:57:34Z</time>
      </trkpt>
      <trkpt lat="43.40644" lon="5.49659">
        <ele>724.01</ele>
        <time>2012-01-15T11:57:37Z</time>
      </trkpt>
      <trkpt lat="43.40643" lon="5.49662">
        <ele>725.45</ele>
        <time>2012-01-15T11:57:38Z</time>
      </trkpt>
      <trkpt lat="43.40641" lon="5.49664">
        <ele>726.41</ele>
        <time>2012-01-15T11:57:39Z</time>
      </trkpt>
      <trkpt lat="43.40638" lon="5.49666">
        <ele>727.86</ele>
        <time>2012-01-15T11:57:41Z</time>
      </trkpt>
      <trkpt lat="43.40636" lon="5.49671">
        <ele>726.41</ele>
        <time>2012-01-15T11:57:44Z</time>
      </trkpt>
      <trkpt lat="43.40636" lon="5.49672">
        <ele>727.86</ele>
        <time>2012-01-15T11:57:45Z</time>
      </trkpt>
      <trkpt lat="43.40634" lon="5.49678">
        <ele>725.45</ele>
        <time>2012-01-15T11:57:49Z</time>
      </trkpt>
      <trkpt lat="43.40629" lon="5.49697">
        <ele>725.93</ele>
        <time>2012-01-15T11:58:00Z</time>
      </trkpt>
      <trkpt lat="43.40626" lon="5.49709">
        <ele>725.45</ele>
        <time>2012-01-15T11:58:07Z</time>
      </trkpt>
      <trkpt lat="43.40621" lon="5.49713">
        <ele>723.53</ele>
        <time>2012-01-15T11:58:14Z</time>
      </trkpt>
      <trkpt lat="43.4062" lon="5.49722">
        <ele>723.53</ele>
        <time>2012-01-15T11:58:19Z</time>
      </trkpt>
      <trkpt lat="43.40617" lon="5.49724">
        <ele>726.41</ele>
        <time>2012-01-15T11:58:22Z</time>
      </trkpt>
      <trkpt lat="43.40616" lon="5.49725">
        <ele>726.89</ele>
        <time>2012-01-15T11:58:23Z</time>
      </trkpt>
      <trkpt lat="43.40613" lon="5.49735">
        <ele>726.41</ele>
        <time>2012-01-15T11:58:30Z</time>
      </trkpt>
      <trkpt lat="43.4061" lon="5.49738">
        <ele>728.34</ele>
        <time>2012-01-15T11:58:33Z</time>
      </trkpt>
      <trkpt lat="43.40609" lon="5.4974">
        <ele>728.34</ele>
        <time>2012-01-15T11:58:35Z</time>
      </trkpt>
      <trkpt lat="43.40604" lon="5.49756">
        <ele>727.86</ele>
        <time>2012-01-15T11:58:43Z</time>
      </trkpt>
      <trkpt lat="43.40604" lon="5.49757">
        <ele>727.86</ele>
        <time>2012-01-15T11:58:46Z</time>
      </trkpt>
      <trkpt lat="43.40597" lon="5.49774">
        <ele>724.49</ele>
        <time>2012-01-15T11:58:58Z</time>
      </trkpt>
      <trkpt lat="43.40595" lon="5.49775">
        <ele>727.37</ele>
        <time>2012-01-15T11:58:59Z</time>
      </trkpt>
      <trkpt lat="43.40584" lon="5.49795">
        <ele>723.05</ele>
        <time>2012-01-15T11:59:16Z</time>
      </trkpt>
      <trkpt lat="43.40581" lon="5.49797">
        <ele>723.05</ele>
        <time>2012-01-15T11:59:19Z</time>
      </trkpt>
      <trkpt lat="43.40562" lon="5.49812">
        <ele>726.41</ele>
        <time>2012-01-15T11:59:37Z</time>
      </trkpt>
      <trkpt lat="43.40561" lon="5.49814">
        <ele>730.26</ele>
        <time>2012-01-15T11:59:39Z</time>
      </trkpt>
      <trkpt lat="43.40559" lon="5.49819">
        <ele>727.86</ele>
        <time>2012-01-15T11:59:42Z</time>
      </trkpt>
      <trkpt lat="43.40558" lon="5.49821">
        <ele>729.3</ele>
        <time>2012-01-15T11:59:45Z</time>
      </trkpt>
      <trkpt lat="43.40554" lon="5.49824">
        <ele>728.82</ele>
        <time>2012-01-15T11:59:49Z</time>
      </trkpt>
      <trkpt lat="43.40549" lon="5.49828">
        <ele>729.3</ele>
        <time>2012-01-15T11:59:54Z</time>
      </trkpt>
      <trkpt lat="43.40547" lon="5.49836">
        <ele>732.18</ele>
        <time>2012-01-15T11:59:58Z</time>
      </trkpt>
      <trkpt lat="43.40546" lon="5.49837">
        <ele>732.18</ele>
        <time>2012-01-15T11:59:59Z</time>
      </trkpt>
      <trkpt lat="43.40545" lon="5.49839">
        <ele>731.7</ele>
        <time>2012-01-15T12:00:01Z</time>
      </trkpt>
      <trkpt lat="43.40543" lon="5.49845">
        <ele>731.22</ele>
        <time>2012-01-15T12:00:06Z</time>
      </trkpt>
      <trkpt lat="43.40541" lon="5.49849">
        <ele>729.3</ele>
        <time>2012-01-15T12:00:09Z</time>
      </trkpt>
      <trkpt lat="43.4054" lon="5.49853">
        <ele>732.66</ele>
        <time>2012-01-15T12:00:11Z</time>
      </trkpt>
      <trkpt lat="43.40539" lon="5.49855">
        <ele>729.3</ele>
        <time>2012-01-15T12:00:12Z</time>
      </trkpt>
      <trkpt lat="43.40538" lon="5.49862">
        <ele>732.66</ele>
        <time>2012-01-15T12:00:17Z</time>
      </trkpt>
      <trkpt lat="43.40537" lon="5.49863">
        <ele>731.7</ele>
        <time>2012-01-15T12:00:18Z</time>
      </trkpt>
      <trkpt lat="43.40531" lon="5.49866">
        <ele>733.14</ele>
        <time>2012-01-15T12:00:22Z</time>
      </trkpt>
      <trkpt lat="43.40529" lon="5.4987">
        <ele>731.22</ele>
        <time>2012-01-15T12:00:25Z</time>
      </trkpt>
      <trkpt lat="43.40526" lon="5.49878">
        <ele>733.14</ele>
        <time>2012-01-15T12:00:29Z</time>
      </trkpt>
      <trkpt lat="43.40523" lon="5.49883">
        <ele>731.22</ele>
        <time>2012-01-15T12:00:33Z</time>
      </trkpt>
      <trkpt lat="43.40519" lon="5.49885">
        <ele>730.74</ele>
        <time>2012-01-15T12:00:35Z</time>
      </trkpt>
      <trkpt lat="43.40512" lon="5.49916">
        <ele>728.82</ele>
        <time>2012-01-15T12:00:44Z</time>
      </trkpt>
      <trkpt lat="43.40507" lon="5.49934">
        <ele>729.3</ele>
        <time>2012-01-15T12:00:49Z</time>
      </trkpt>
      <trkpt lat="43.40508" lon="5.49953">
        <ele>727.37</ele>
        <time>2012-01-15T12:00:54Z</time>
      </trkpt>
      <trkpt lat="43.40506" lon="5.49959">
        <ele>728.34</ele>
        <time>2012-01-15T12:00:56Z</time>
      </trkpt>
      <trkpt lat="43.40505" lon="5.49966">
        <ele>724.49</ele>
        <time>2012-01-15T12:00:58Z</time>
      </trkpt>
      <trkpt lat="43.40503" lon="5.49982">
        <ele>727.37</ele>
        <time>2012-01-15T12:01:02Z</time>
      </trkpt>
      <trkpt lat="43.40503" lon="5.49994">
        <ele>724.01</ele>
        <time>2012-01-15T12:01:05Z</time>
      </trkpt>
      <trkpt lat="43.40504" lon="5.49998">
        <ele>727.37</ele>
        <time>2012-01-15T12:01:06Z</time>
      </trkpt>
      <trkpt lat="43.40505" lon="5.50008">
        <ele>723.05</ele>
        <time>2012-01-15T12:01:09Z</time>
      </trkpt>
      <trkpt lat="43.40506" lon="5.50012">
        <ele>723.05</ele>
        <time>2012-01-15T12:01:10Z</time>
      </trkpt>
      <trkpt lat="43.40506" lon="5.5002">
        <ele>721.13</ele>
        <time>2012-01-15T12:01:12Z</time>
      </trkpt>
      <trkpt lat="43.40504" lon="5.50028">
        <ele>724.01</ele>
        <time>2012-01-15T12:01:14Z</time>
      </trkpt>
      <trkpt lat="43.40503" lon="5.50032">
        <ele>720.65</ele>
        <time>2012-01-15T12:01:15Z</time>
      </trkpt>
      <trkpt lat="43.40502" lon="5.50041">
        <ele>717.76</ele>
        <time>2012-01-15T12:01:17Z</time>
      </trkpt>
      <trkpt lat="43.405" lon="5.50065">
        <ele>718.72</ele>
        <time>2012-01-15T12:01:23Z</time>
      </trkpt>
      <trkpt lat="43.40499" lon="5.50077">
        <ele>718.72</ele>
        <time>2012-01-15T12:01:26Z</time>
      </trkpt>
      <trkpt lat="43.40498" lon="5.50084">
        <ele>722.09</ele>
        <time>2012-01-15T12:01:28Z</time>
      </trkpt>
      <trkpt lat="43.40498" lon="5.50088">
        <ele>718.72</ele>
        <time>2012-01-15T12:01:29Z</time>
      </trkpt>
      <trkpt lat="43.40493" lon="5.50125">
        <ele>718.24</ele>
        <time>2012-01-15T12:01:40Z</time>
      </trkpt>
      <trkpt lat="43.40491" lon="5.50131">
        <ele>721.13</ele>
        <time>2012-01-15T12:01:42Z</time>
      </trkpt>
      <trkpt lat="43.40488" lon="5.50149">
        <ele>720.65</ele>
        <time>2012-01-15T12:01:50Z</time>
      </trkpt>
      <trkpt lat="43.40483" lon="5.50171">
        <ele>722.09</ele>
        <time>2012-01-15T12:02:03Z</time>
      </trkpt>
      <trkpt lat="43.40477" lon="5.50181">
        <ele>723.05</ele>
        <time>2012-01-15T12:02:11Z</time>
      </trkpt>
      <trkpt lat="43.40475" lon="5.50185">
        <ele>725.93</ele>
        <time>2012-01-15T12:02:14Z</time>
      </trkpt>
      <trkpt lat="43.40472" lon="5.50191">
        <ele>726.41</ele>
        <time>2012-01-15T12:02:19Z</time>
      </trkpt>
      <trkpt lat="43.40471" lon="5.50194">
        <ele>726.89</ele>
        <time>2012-01-15T12:02:22Z</time>
      </trkpt>
      <trkpt lat="43.40471" lon="5.50208">
        <ele>730.74</ele>
        <time>2012-01-15T12:02:31Z</time>
      </trkpt>
      <trkpt lat="43.40471" lon="5.5021">
        <ele>728.82</ele>
        <time>2012-01-15T12:02:32Z</time>
      </trkpt>
      <trkpt lat="43.40468" lon="5.50218">
        <ele>729.78</ele>
        <time>2012-01-15T12:02:36Z</time>
      </trkpt>
      <trkpt lat="43.40467" lon="5.50226">
        <ele>728.82</ele>
        <time>2012-01-15T12:02:39Z</time>
      </trkpt>
      <trkpt lat="43.40466" lon="5.50232">
        <ele>729.78</ele>
        <time>2012-01-15T12:02:41Z</time>
      </trkpt>
      <trkpt lat="43.40465" lon="5.50235">
        <ele>726.41</ele>
        <time>2012-01-15T12:02:42Z</time>
      </trkpt>
      <trkpt lat="43.40462" lon="5.50251">
        <ele>726.89</ele>
        <time>2012-01-15T12:02:47Z</time>
      </trkpt>
      <trkpt lat="43.40456" lon="5.50271">
        <ele>726.89</ele>
        <time>2012-01-15T12:02:53Z</time>
      </trkpt>
      <trkpt lat="43.40453" lon="5.50285">
        <ele>728.82</ele>
        <time>2012-01-15T12:02:57Z</time>
      </trkpt>
      <trkpt lat="43.40456" lon="5.5031">
        <ele>725.45</ele>
        <time>2012-01-15T12:03:05Z</time>
      </trkpt>
      <trkpt lat="43.40458" lon="5.50337">
        <ele>723.05</ele>
        <time>2012-01-15T12:03:15Z</time>
      </trkpt>
      <trkpt lat="43.40456" lon="5.50342">
        <ele>725.93</ele>
        <time>2012-01-15T12:03:17Z</time>
      </trkpt>
      <trkpt lat="43.40453" lon="5.50352">
        <ele>726.41</ele>
        <time>2012-01-15T12:03:21Z</time>
      </trkpt>
      <trkpt lat="43.40452" lon="5.50359">
        <ele>724.97</ele>
        <time>2012-01-15T12:03:23Z</time>
      </trkpt>
      <trkpt lat="43.40451" lon="5.50362">
        <ele>724.97</ele>
        <time>2012-01-15T12:03:24Z</time>
      </trkpt>
      <trkpt lat="43.40451" lon="5.50368">
        <ele>727.86</ele>
        <time>2012-01-15T12:03:26Z</time>
      </trkpt>
      <trkpt lat="43.40451" lon="5.50371">
        <ele>726.89</ele>
        <time>2012-01-15T12:03:27Z</time>
      </trkpt>
      <trkpt lat="43.40451" lon="5.50374">
        <ele>724.97</ele>
        <time>2012-01-15T12:03:28Z</time>
      </trkpt>
      <trkpt lat="43.40452" lon="5.5038">
        <ele>728.34</ele>
        <time>2012-01-15T12:03:32Z</time>
      </trkpt>
      <trkpt lat="43.40455" lon="5.50384">
        <ele>729.3</ele>
        <time>2012-01-15T12:03:39Z</time>
      </trkpt>
      <trkpt lat="43.40457" lon="5.5039">
        <ele>733.62</ele>
        <time>2012-01-15T12:03:49Z</time>
      </trkpt>
      <trkpt lat="43.40457" lon="5.5039">
        <ele>733.14</ele>
        <time>2012-01-15T12:03:50Z</time>
      </trkpt>
      <trkpt lat="43.40458" lon="5.50393">
        <ele>731.7</ele>
        <time>2012-01-15T12:03:54Z</time>
      </trkpt>
      <trkpt lat="43.40459" lon="5.50395">
        <ele>735.07</ele>
        <time>2012-01-15T12:03:56Z</time>
      </trkpt>
      <trkpt lat="43.40461" lon="5.504">
        <ele>735.55</ele>
        <time>2012-01-15T12:04:00Z</time>
      </trkpt>
      <trkpt lat="43.40463" lon="5.50409">
        <ele>734.58</ele>
        <time>2012-01-15T12:04:05Z</time>
      </trkpt>
      <trkpt lat="43.40464" lon="5.50414">
        <ele>734.58</ele>
        <time>2012-01-15T12:04:08Z</time>
      </trkpt>
      <trkpt lat="43.40464" lon="5.50416">
        <ele>735.07</ele>
        <time>2012-01-15T12:04:10Z</time>
      </trkpt>
      <trkpt lat="43.40463" lon="5.50421">
        <ele>732.18</ele>
        <time>2012-01-15T12:04:13Z</time>
      </trkpt>
      <trkpt lat="43.40465" lon="5.50424">
        <ele>731.7</ele>
        <time>2012-01-15T12:04:15Z</time>
      </trkpt>
      <trkpt lat="43.40465" lon="5.50431">
        <ele>733.14</ele>
        <time>2012-01-15T12:04:19Z</time>
      </trkpt>
      <trkpt lat="43.40468" lon="5.50438">
        <ele>732.18</ele>
        <time>2012-01-15T12:04:24Z</time>
      </trkpt>
      <trkpt lat="43.40468" lon="5.50446">
        <ele>729.3</ele>
        <time>2012-01-15T12:04:28Z</time>
      </trkpt>
      <trkpt lat="43.40469" lon="5.50445">
        <ele>730.74</ele>
        <time>2012-01-15T12:04:31Z</time>
      </trkpt>
      <trkpt lat="43.40466" lon="5.50467">
        <ele>728.82</ele>
        <time>2012-01-15T12:04:41Z</time>
      </trkpt>
      <trkpt lat="43.40463" lon="5.50477">
        <ele>727.37</ele>
        <time>2012-01-15T12:04:47Z</time>
      </trkpt>
      <trkpt lat="43.40464" lon="5.50494">
        <ele>729.3</ele>
        <time>2012-01-15T12:04:55Z</time>
      </trkpt>
      <trkpt lat="43.40463" lon="5.50497">
        <ele>727.37</ele>
        <time>2012-01-15T12:04:57Z</time>
      </trkpt>
      <trkpt lat="43.40463" lon="5.505">
        <ele>729.3</ele>
        <time>2012-01-15T12:04:59Z</time>
      </trkpt>
      <trkpt lat="43.4046" lon="5.50511">
        <ele>728.82</ele>
        <time>2012-01-15T12:05:05Z</time>
      </trkpt>
      <trkpt lat="43.40463" lon="5.50532">
        <ele>729.3</ele>
        <time>2012-01-15T12:05:16Z</time>
      </trkpt>
      <trkpt lat="43.40465" lon="5.50536">
        <ele>730.26</ele>
        <time>2012-01-15T12:05:19Z</time>
      </trkpt>
      <trkpt lat="43.40468" lon="5.50541">
        <ele>730.74</ele>
        <time>2012-01-15T12:05:23Z</time>
      </trkpt>
      <trkpt lat="43.40469" lon="5.50563">
        <ele>727.37</ele>
        <time>2012-01-15T12:05:35Z</time>
      </trkpt>
      <trkpt lat="43.40476" lon="5.50588">
        <ele>722.09</ele>
        <time>2012-01-15T12:05:45Z</time>
      </trkpt>
      <trkpt lat="43.40482" lon="5.50626">
        <ele>721.61</ele>
        <time>2012-01-15T12:05:57Z</time>
      </trkpt>
      <trkpt lat="43.40483" lon="5.50629">
        <ele>718.24</ele>
        <time>2012-01-15T12:05:58Z</time>
      </trkpt>
      <trkpt lat="43.40486" lon="5.5064">
        <ele>719.2</ele>
        <time>2012-01-15T12:06:03Z</time>
      </trkpt>
      <trkpt lat="43.40486" lon="5.50644">
        <ele>716.8</ele>
        <time>2012-01-15T12:06:05Z</time>
      </trkpt>
      <trkpt lat="43.40488" lon="5.50653">
        <ele>716.32</ele>
        <time>2012-01-15T12:06:09Z</time>
      </trkpt>
      <trkpt lat="43.40489" lon="5.5066">
        <ele>715.36</ele>
        <time>2012-01-15T12:06:11Z</time>
      </trkpt>
      <trkpt lat="43.40489" lon="5.50675">
        <ele>715.84</ele>
        <time>2012-01-15T12:06:16Z</time>
      </trkpt>
      <trkpt lat="43.40493" lon="5.50694">
        <ele>719.2</ele>
        <time>2012-01-15T12:06:22Z</time>
      </trkpt>
      <trkpt lat="43.40493" lon="5.50704">
        <ele>719.68</ele>
        <time>2012-01-15T12:06:27Z</time>
      </trkpt>
      <trkpt lat="43.40494" lon="5.50708">
        <ele>718.24</ele>
        <time>2012-01-15T12:06:30Z</time>
      </trkpt>
      <trkpt lat="43.40488" lon="5.50731">
        <ele>721.61</ele>
        <time>2012-01-15T12:06:47Z</time>
      </trkpt>
      <trkpt lat="43.40486" lon="5.50734">
        <ele>716.32</ele>
        <time>2012-01-15T12:06:50Z</time>
      </trkpt>
      <trkpt lat="43.40484" lon="5.50755">
        <ele>723.05</ele>
        <time>2012-01-15T12:07:02Z</time>
      </trkpt>
      <trkpt lat="43.40484" lon="5.50756">
        <ele>719.2</ele>
        <time>2012-01-15T12:07:03Z</time>
      </trkpt>
      <trkpt lat="43.40483" lon="5.50758">
        <ele>723.05</ele>
        <time>2012-01-15T12:07:05Z</time>
      </trkpt>
      <trkpt lat="43.40481" lon="5.50763">
        <ele>723.53</ele>
        <time>2012-01-15T12:07:09Z</time>
      </trkpt>
      <trkpt lat="43.40481" lon="5.50763">
        <ele>723.05</ele>
        <time>2012-01-15T12:07:11Z</time>
      </trkpt>
      <trkpt lat="43.40482" lon="5.50769">
        <ele>724.49</ele>
        <time>2012-01-15T12:07:16Z</time>
      </trkpt>
      <trkpt lat="43.40484" lon="5.50786">
        <ele>728.34</ele>
        <time>2012-01-15T12:07:27Z</time>
      </trkpt>
      <trkpt lat="43.40486" lon="5.50788">
        <ele>729.3</ele>
        <time>2012-01-15T12:07:30Z</time>
      </trkpt>
      <trkpt lat="43.40486" lon="5.50789">
        <ele>728.34</ele>
        <time>2012-01-15T12:07:31Z</time>
      </trkpt>
      <trkpt lat="43.40488" lon="5.508">
        <ele>730.26</ele>
        <time>2012-01-15T12:07:39Z</time>
      </trkpt>
      <trkpt lat="43.40487" lon="5.50813">
        <ele>732.18</ele>
        <time>2012-01-15T12:07:48Z</time>
      </trkpt>
      <trkpt lat="43.40487" lon="5.50815">
        <ele>732.18</ele>
        <time>2012-01-15T12:07:50Z</time>
      </trkpt>
      <trkpt lat="43.4048" lon="5.50828">
        <ele>733.62</ele>
        <time>2012-01-15T12:08:01Z</time>
      </trkpt>
      <trkpt lat="43.40478" lon="5.50834">
        <ele>735.55</ele>
        <time>2012-01-15T12:08:07Z</time>
      </trkpt>
      <trkpt lat="43.4048" lon="5.5084">
        <ele>737.95</ele>
        <time>2012-01-15T12:08:18Z</time>
      </trkpt>
      <trkpt lat="43.40481" lon="5.50842">
        <ele>739.39</ele>
        <time>2012-01-15T12:08:20Z</time>
      </trkpt>
      <trkpt lat="43.40482" lon="5.50857">
        <ele>740.83</ele>
        <time>2012-01-15T12:08:32Z</time>
      </trkpt>
      <trkpt lat="43.40482" lon="5.5087">
        <ele>744.68</ele>
        <time>2012-01-15T12:08:44Z</time>
      </trkpt>
      <trkpt lat="43.40481" lon="5.50874">
        <ele>742.76</ele>
        <time>2012-01-15T12:08:46Z</time>
      </trkpt>
      <trkpt lat="43.40485" lon="5.50885">
        <ele>743.24</ele>
        <time>2012-01-15T12:08:50Z</time>
      </trkpt>
      <trkpt lat="43.40486" lon="5.50893">
        <ele>741.31</ele>
        <time>2012-01-15T12:08:55Z</time>
      </trkpt>
      <trkpt lat="43.40487" lon="5.50897">
        <ele>744.2</ele>
        <time>2012-01-15T12:08:58Z</time>
      </trkpt>
      <trkpt lat="43.40485" lon="5.50917">
        <ele>744.2</ele>
        <time>2012-01-15T12:09:12Z</time>
      </trkpt>
      <trkpt lat="43.40484" lon="5.5092">
        <ele>745.16</ele>
        <time>2012-01-15T12:09:15Z</time>
      </trkpt>
      <trkpt lat="43.40485" lon="5.50929">
        <ele>745.64</ele>
        <time>2012-01-15T12:09:20Z</time>
      </trkpt>
      <trkpt lat="43.40489" lon="5.5094">
        <ele>747.56</ele>
        <time>2012-01-15T12:09:32Z</time>
      </trkpt>
      <trkpt lat="43.40489" lon="5.50961">
        <ele>744.2</ele>
        <time>2012-01-15T12:09:45Z</time>
      </trkpt>
      <trkpt lat="43.4049" lon="5.50963">
        <ele>748.04</ele>
        <time>2012-01-15T12:09:46Z</time>
      </trkpt>
      <trkpt lat="43.4049" lon="5.50965">
        <ele>747.56</ele>
        <time>2012-01-15T12:09:49Z</time>
      </trkpt>
      <trkpt lat="43.40493" lon="5.50997">
        <ele>748.04</ele>
        <time>2012-01-15T12:10:05Z</time>
      </trkpt>
      <trkpt lat="43.40495" lon="5.51003">
        <ele>748.52</ele>
        <time>2012-01-15T12:10:11Z</time>
      </trkpt>
      <trkpt lat="43.40496" lon="5.51005">
        <ele>749.49</ele>
        <time>2012-01-15T12:10:13Z</time>
      </trkpt>
      <trkpt lat="43.40498" lon="5.51009">
        <ele>748.52</ele>
        <time>2012-01-15T12:10:17Z</time>
      </trkpt>
      <trkpt lat="43.40499" lon="5.51017">
        <ele>749.97</ele>
        <time>2012-01-15T12:10:22Z</time>
      </trkpt>
      <trkpt lat="43.405" lon="5.51036">
        <ele>749</ele>
        <time>2012-01-15T12:10:36Z</time>
      </trkpt>
      <trkpt lat="43.40498" lon="5.51042">
        <ele>747.56</ele>
        <time>2012-01-15T12:10:40Z</time>
      </trkpt>
      <trkpt lat="43.40502" lon="5.51061">
        <ele>750.45</ele>
        <time>2012-01-15T12:10:51Z</time>
      </trkpt>
      <trkpt lat="43.40503" lon="5.51062">
        <ele>749.97</ele>
        <time>2012-01-15T12:10:53Z</time>
      </trkpt>
      <trkpt lat="43.40505" lon="5.51066">
        <ele>750.45</ele>
        <time>2012-01-15T12:10:57Z</time>
      </trkpt>
      <trkpt lat="43.40503" lon="5.51078">
        <ele>751.89</ele>
        <time>2012-01-15T12:11:05Z</time>
      </trkpt>
      <trkpt lat="43.405" lon="5.51087">
        <ele>749.49</ele>
        <time>2012-01-15T12:11:26Z</time>
      </trkpt>
      <trkpt lat="43.405" lon="5.51087">
        <ele>752.85</ele>
        <time>2012-01-15T12:11:27Z</time>
      </trkpt>
      <trkpt lat="43.40501" lon="5.51087">
        <ele>751.41</ele>
        <time>2012-01-15T12:11:30Z</time>
      </trkpt>
      <trkpt lat="43.40501" lon="5.51087">
        <ele>751.89</ele>
        <time>2012-01-15T12:11:31Z</time>
      </trkpt>
      <trkpt lat="43.40503" lon="5.51093">
        <ele>754.29</ele>
        <time>2012-01-15T12:11:35Z</time>
      </trkpt>
      <trkpt lat="43.40505" lon="5.51098">
        <ele>750.93</ele>
        <time>2012-01-15T12:11:38Z</time>
      </trkpt>
      <trkpt lat="43.40505" lon="5.511">
        <ele>753.81</ele>
        <time>2012-01-15T12:11:39Z</time>
      </trkpt>
      <trkpt lat="43.40503" lon="5.51104">
        <ele>756.69</ele>
        <time>2012-01-15T12:11:42Z</time>
      </trkpt>
      <trkpt lat="43.40502" lon="5.51105">
        <ele>756.21</ele>
        <time>2012-01-15T12:11:43Z</time>
      </trkpt>
      <trkpt lat="43.40504" lon="5.51111">
        <ele>758.14</ele>
        <time>2012-01-15T12:11:49Z</time>
      </trkpt>
      <trkpt lat="43.4051" lon="5.51131">
        <ele>758.62</ele>
        <time>2012-01-15T12:12:01Z</time>
      </trkpt>
      <trkpt lat="43.40511" lon="5.51137">
        <ele>761.02</ele>
        <time>2012-01-15T12:12:04Z</time>
      </trkpt>
      <trkpt lat="43.40511" lon="5.51138">
        <ele>758.62</ele>
        <time>2012-01-15T12:12:05Z</time>
      </trkpt>
      <trkpt lat="43.40508" lon="5.51148">
        <ele>760.54</ele>
        <time>2012-01-15T12:12:12Z</time>
      </trkpt>
      <trkpt lat="43.40509" lon="5.51159">
        <ele>763.9</ele>
        <time>2012-01-15T12:12:20Z</time>
      </trkpt>
      <trkpt lat="43.40509" lon="5.5116">
        <ele>764.39</ele>
        <time>2012-01-15T12:12:22Z</time>
      </trkpt>
      <trkpt lat="43.40512" lon="5.51162">
        <ele>761.98</ele>
        <time>2012-01-15T12:12:24Z</time>
      </trkpt>
      <trkpt lat="43.40512" lon="5.51163">
        <ele>765.35</ele>
        <time>2012-01-15T12:12:26Z</time>
      </trkpt>
      <trkpt lat="43.40513" lon="5.51164">
        <ele>764.39</ele>
        <time>2012-01-15T12:12:27Z</time>
      </trkpt>
      <trkpt lat="43.40515" lon="5.51166">
        <ele>763.9</ele>
        <time>2012-01-15T12:12:29Z</time>
      </trkpt>
      <trkpt lat="43.40515" lon="5.5117">
        <ele>762.46</ele>
        <time>2012-01-15T12:12:31Z</time>
      </trkpt>
      <trkpt lat="43.40516" lon="5.51173">
        <ele>763.9</ele>
        <time>2012-01-15T12:12:34Z</time>
      </trkpt>
      <trkpt lat="43.40517" lon="5.51174">
        <ele>764.39</ele>
        <time>2012-01-15T12:12:35Z</time>
      </trkpt>
      <trkpt lat="43.40524" lon="5.51181">
        <ele>764.87</ele>
        <time>2012-01-15T12:12:43Z</time>
      </trkpt>
      <trkpt lat="43.4053" lon="5.51189">
        <ele>765.83</ele>
        <time>2012-01-15T12:12:50Z</time>
      </trkpt>
      <trkpt lat="43.40533" lon="5.51196">
        <ele>767.27</ele>
        <time>2012-01-15T12:12:54Z</time>
      </trkpt>
      <trkpt lat="43.40533" lon="5.51197">
        <ele>767.27</ele>
        <time>2012-01-15T12:12:56Z</time>
      </trkpt>
      <trkpt lat="43.40534" lon="5.51204">
        <ele>768.71</ele>
        <time>2012-01-15T12:12:59Z</time>
      </trkpt>
      <trkpt lat="43.40534" lon="5.51205">
        <ele>767.75</ele>
        <time>2012-01-15T12:13:01Z</time>
      </trkpt>
      <trkpt lat="43.40533" lon="5.51213">
        <ele>771.11</ele>
        <time>2012-01-15T12:13:06Z</time>
      </trkpt>
      <trkpt lat="43.40532" lon="5.5122">
        <ele>771.11</ele>
        <time>2012-01-15T12:13:11Z</time>
      </trkpt>
      <trkpt lat="43.40534" lon="5.51224">
        <ele>769.19</ele>
        <time>2012-01-15T12:13:14Z</time>
      </trkpt>
      <trkpt lat="43.40535" lon="5.51227">
        <ele>771.6</ele>
        <time>2012-01-15T12:13:16Z</time>
      </trkpt>
      <trkpt lat="43.40537" lon="5.51229">
        <ele>769.19</ele>
        <time>2012-01-15T12:13:18Z</time>
      </trkpt>
      <trkpt lat="43.40537" lon="5.51231">
        <ele>773.04</ele>
        <time>2012-01-15T12:13:19Z</time>
      </trkpt>
      <trkpt lat="43.40538" lon="5.51232">
        <ele>773.04</ele>
        <time>2012-01-15T12:13:20Z</time>
      </trkpt>
      <trkpt lat="43.4054" lon="5.51235">
        <ele>769.67</ele>
        <time>2012-01-15T12:13:24Z</time>
      </trkpt>
      <trkpt lat="43.40544" lon="5.51241">
        <ele>772.08</ele>
        <time>2012-01-15T12:13:28Z</time>
      </trkpt>
      <trkpt lat="43.40552" lon="5.51253">
        <ele>770.63</ele>
        <time>2012-01-15T12:13:38Z</time>
      </trkpt>
      <trkpt lat="43.4056" lon="5.51261">
        <ele>773.04</ele>
        <time>2012-01-15T12:13:46Z</time>
      </trkpt>
      <trkpt lat="43.40567" lon="5.51271">
        <ele>773.52</ele>
        <time>2012-01-15T12:13:53Z</time>
      </trkpt>
      <trkpt lat="43.40571" lon="5.5128">
        <ele>770.63</ele>
        <time>2012-01-15T12:13:59Z</time>
      </trkpt>
      <trkpt lat="43.40567" lon="5.51281">
        <ele>775.44</ele>
        <time>2012-01-15T12:14:04Z</time>
      </trkpt>
      <trkpt lat="43.40562" lon="5.51281">
        <ele>774.96</ele>
        <time>2012-01-15T12:14:09Z</time>
      </trkpt>
      <trkpt lat="43.40558" lon="5.51279">
        <ele>776.4</ele>
        <time>2012-01-15T12:14:12Z</time>
      </trkpt>
      <trkpt lat="43.40553" lon="5.51276">
        <ele>778.81</ele>
        <time>2012-01-15T12:14:17Z</time>
      </trkpt>
      <trkpt lat="43.40553" lon="5.51276">
        <ele>774</ele>
        <time>2012-01-15T12:14:18Z</time>
      </trkpt>
      <trkpt lat="43.40552" lon="5.51276">
        <ele>774.96</ele>
        <time>2012-01-15T12:14:19Z</time>
      </trkpt>
      <trkpt lat="43.40551" lon="5.51276">
        <ele>775.92</ele>
        <time>2012-01-15T12:14:21Z</time>
      </trkpt>
      <trkpt lat="43.40549" lon="5.51276">
        <ele>774</ele>
        <time>2012-01-15T12:14:23Z</time>
      </trkpt>
      <trkpt lat="43.40547" lon="5.51276">
        <ele>775.44</ele>
        <time>2012-01-15T12:14:26Z</time>
      </trkpt>
      <trkpt lat="43.40544" lon="5.51277">
        <ele>775.92</ele>
        <time>2012-01-15T12:14:29Z</time>
      </trkpt>
      <trkpt lat="43.40539" lon="5.51281">
        <ele>779.29</ele>
        <time>2012-01-15T12:14:35Z</time>
      </trkpt>
      <trkpt lat="43.40536" lon="5.51284">
        <ele>778.32</ele>
        <time>2012-01-15T12:14:46Z</time>
      </trkpt>
      <trkpt lat="43.4054" lon="5.51278">
        <ele>781.69</ele>
        <time>2012-01-15T12:14:59Z</time>
      </trkpt>
      <trkpt lat="43.4054" lon="5.51278">
        <ele>777.36</ele>
        <time>2012-01-15T12:15:01Z</time>
      </trkpt>
      <trkpt lat="43.4054" lon="5.51278">
        <ele>777.36</ele>
        <time>2012-01-15T12:15:02Z</time>
      </trkpt>
      <trkpt lat="43.4054" lon="5.51278">
        <ele>777.36</ele>
        <time>2012-01-15T12:15:11Z</time>
      </trkpt>
      <trkpt lat="43.4054" lon="5.51279">
        <ele>778.81</ele>
        <time>2012-01-15T12:15:44Z</time>
      </trkpt>
      <trkpt lat="43.4054" lon="5.51279">
        <ele>779.29</ele>
        <time>2012-01-15T12:16:12Z</time>
      </trkpt>
      <trkpt lat="43.4054" lon="5.51279">
        <ele>778.81</ele>
        <time>2012-01-15T12:16:32Z</time>
      </trkpt>
      <trkpt lat="43.4054" lon="5.51279">
        <ele>779.29</ele>
        <time>2012-01-15T12:16:41Z</time>
      </trkpt>
      <trkpt lat="43.4054" lon="5.51279">
        <ele>778.81</ele>
        <time>2012-01-15T12:16:46Z</time>
      </trkpt>
      <trkpt lat="43.4054" lon="5.51279">
        <ele>780.25</ele>
        <time>2012-01-15T12:16:55Z</time>
      </trkpt>
      <trkpt lat="43.4054" lon="5.51279">
        <ele>777.36</ele>
        <time>2012-01-15T12:17:00Z</time>
      </trkpt>
      <trkpt lat="43.4054" lon="5.51279">
        <ele>776.4</ele>
        <time>2012-01-15T12:17:14Z</time>
      </trkpt>
      <trkpt lat="43.4054" lon="5.51279">
        <ele>779.77</ele>
        <time>2012-01-15T12:17:34Z</time>
      </trkpt>
      <trkpt lat="43.4054" lon="5.51279">
        <ele>776.4</ele>
        <time>2012-01-15T12:17:35Z</time>
      </trkpt>
      <trkpt lat="43.4054" lon="5.51279">
        <ele>778.32</ele>
        <time>2012-01-15T12:17:43Z</time>
      </trkpt>
      <trkpt lat="43.4054" lon="5.51279">
        <ele>779.77</ele>
        <time>2012-01-15T12:17:51Z</time>
      </trkpt>
      <trkpt lat="43.4054" lon="5.51279">
        <ele>776.88</ele>
        <time>2012-01-15T12:17:54Z</time>
      </trkpt>
      <trkpt lat="43.4054" lon="5.51279">
        <ele>777.36</ele>
        <time>2012-01-15T12:17:55Z</time>
      </trkpt>
      <trkpt lat="43.4054" lon="5.51279">
        <ele>777.84</ele>
        <time>2012-01-15T12:18:24Z</time>
      </trkpt>
      <trkpt lat="43.4054" lon="5.51279">
        <ele>777.36</ele>
        <time>2012-01-15T12:18:35Z</time>
      </trkpt>
      <trkpt lat="43.4054" lon="5.51279">
        <ele>780.73</ele>
        <time>2012-01-15T12:18:37Z</time>
      </trkpt>
      <trkpt lat="43.4054" lon="5.51279">
        <ele>779.29</ele>
        <time>2012-01-15T12:18:38Z</time>
      </trkpt>
      <trkpt lat="43.4054" lon="5.51279">
        <ele>775.92</ele>
        <time>2012-01-15T12:19:00Z</time>
      </trkpt>
      <trkpt lat="43.4054" lon="5.51279">
        <ele>780.25</ele>
        <time>2012-01-15T12:19:04Z</time>
      </trkpt>
      <trkpt lat="43.4054" lon="5.51279">
        <ele>779.77</ele>
        <time>2012-01-15T12:19:05Z</time>
      </trkpt>
      <trkpt lat="43.4054" lon="5.51279">
        <ele>777.36</ele>
        <time>2012-01-15T12:19:08Z</time>
      </trkpt>
      <trkpt lat="43.4054" lon="5.51279">
        <ele>776.4</ele>
        <time>2012-01-15T12:19:27Z</time>
      </trkpt>
      <trkpt lat="43.4054" lon="5.51279">
        <ele>775.92</ele>
        <time>2012-01-15T12:20:02Z</time>
      </trkpt>
      <trkpt lat="43.4054" lon="5.51279">
        <ele>779.77</ele>
        <time>2012-01-15T12:20:05Z</time>
      </trkpt>
      <trkpt lat="43.4054" lon="5.51279">
        <ele>776.4</ele>
        <time>2012-01-15T12:20:08Z</time>
      </trkpt>
      <trkpt lat="43.40539" lon="5.51279">
        <ele>780.25</ele>
        <time>2012-01-15T12:20:38Z</time>
      </trkpt>
      <trkpt lat="43.40539" lon="5.51279">
        <ele>775.44</ele>
        <time>2012-01-15T12:20:41Z</time>
      </trkpt>
      <trkpt lat="43.40539" lon="5.51279">
        <ele>779.29</ele>
        <time>2012-01-15T12:20:42Z</time>
      </trkpt>
      <trkpt lat="43.40539" lon="5.51279">
        <ele>776.4</ele>
        <time>2012-01-15T12:20:49Z</time>
      </trkpt>
      <trkpt lat="43.40539" lon="5.51279">
        <ele>779.77</ele>
        <time>2012-01-15T12:20:51Z</time>
      </trkpt>
      <trkpt lat="43.40539" lon="5.51279">
        <ele>774.96</ele>
        <time>2012-01-15T12:20:54Z</time>
      </trkpt>
      <trkpt lat="43.40539" lon="5.51279">
        <ele>778.32</ele>
        <time>2012-01-15T12:20:55Z</time>
      </trkpt>
      <trkpt lat="43.40539" lon="5.51279">
        <ele>779.29</ele>
        <time>2012-01-15T12:21:13Z</time>
      </trkpt>
      <trkpt lat="43.40539" lon="5.51279">
        <ele>775.92</ele>
        <time>2012-01-15T12:21:21Z</time>
      </trkpt>
      <trkpt lat="43.40539" lon="5.51279">
        <ele>780.25</ele>
        <time>2012-01-15T12:21:26Z</time>
      </trkpt>
      <trkpt lat="43.40539" lon="5.51279">
        <ele>774.48</ele>
        <time>2012-01-15T12:21:27Z</time>
      </trkpt>
      <trkpt lat="43.40539" lon="5.51279">
        <ele>780.25</ele>
        <time>2012-01-15T12:21:29Z</time>
      </trkpt>
      <trkpt lat="43.40539" lon="5.51279">
        <ele>776.88</ele>
        <time>2012-01-15T12:21:32Z</time>
      </trkpt>
      <trkpt lat="43.4054" lon="5.51279">
        <ele>781.69</ele>
        <time>2012-01-15T12:21:40Z</time>
      </trkpt>
      <trkpt lat="43.4054" lon="5.51279">
        <ele>777.84</ele>
        <time>2012-01-15T12:21:43Z</time>
      </trkpt>
      <trkpt lat="43.4054" lon="5.51279">
        <ele>778.32</ele>
        <time>2012-01-15T12:21:44Z</time>
      </trkpt>
      <trkpt lat="43.4054" lon="5.51279">
        <ele>774.48</ele>
        <time>2012-01-15T12:21:48Z</time>
      </trkpt>
      <trkpt lat="43.4054" lon="5.51279">
        <ele>780.73</ele>
        <time>2012-01-15T12:21:49Z</time>
      </trkpt>
      <trkpt lat="43.4054" lon="5.51279">
        <ele>779.29</ele>
        <time>2012-01-15T12:21:50Z</time>
      </trkpt>
      <trkpt lat="43.4054" lon="5.51279">
        <ele>781.69</ele>
        <time>2012-01-15T12:21:56Z</time>
      </trkpt>
      <trkpt lat="43.4054" lon="5.51279">
        <ele>777.36</ele>
        <time>2012-01-15T12:21:58Z</time>
      </trkpt>
      <trkpt lat="43.4054" lon="5.51279">
        <ele>777.84</ele>
        <time>2012-01-15T12:21:59Z</time>
      </trkpt>
      <trkpt lat="43.4054" lon="5.51279">
        <ele>781.69</ele>
        <time>2012-01-15T12:22:02Z</time>
      </trkpt>
      <trkpt lat="43.4054" lon="5.51279">
        <ele>782.17</ele>
        <time>2012-01-15T12:22:33Z</time>
      </trkpt>
      <trkpt lat="43.4054" lon="5.51279">
        <ele>780.25</ele>
        <time>2012-01-15T12:22:37Z</time>
      </trkpt>
      <trkpt lat="43.4054" lon="5.51279">
        <ele>776.4</ele>
        <time>2012-01-15T12:22:39Z</time>
      </trkpt>
      <trkpt lat="43.4054" lon="5.51279">
        <ele>779.77</ele>
        <time>2012-01-15T12:22:41Z</time>
      </trkpt>
      <trkpt lat="43.4054" lon="5.51279">
        <ele>776.4</ele>
        <time>2012-01-15T12:22:42Z</time>
      </trkpt>
      <trkpt lat="43.4054" lon="5.51279">
        <ele>780.73</ele>
        <time>2012-01-15T12:22:43Z</time>
      </trkpt>
      <trkpt lat="43.4054" lon="5.51279">
        <ele>782.17</ele>
        <time>2012-01-15T12:22:46Z</time>
      </trkpt>
      <trkpt lat="43.4054" lon="5.51279">
        <ele>776.88</ele>
        <time>2012-01-15T12:22:50Z</time>
      </trkpt>
      <trkpt lat="43.4054" lon="5.51279">
        <ele>776.88</ele>
        <time>2012-01-15T12:22:51Z</time>
      </trkpt>
      <trkpt lat="43.4054" lon="5.51279">
        <ele>778.32</ele>
        <time>2012-01-15T12:22:53Z</time>
      </trkpt>
      <trkpt lat="43.4054" lon="5.51279">
        <ele>774.96</ele>
        <time>2012-01-15T12:22:56Z</time>
      </trkpt>
      <trkpt lat="43.4054" lon="5.51279">
        <ele>777.84</ele>
        <time>2012-01-15T12:22:57Z</time>
      </trkpt>
      <trkpt lat="43.4054" lon="5.51279">
        <ele>780.25</ele>
        <time>2012-01-15T12:23:07Z</time>
      </trkpt>
      <trkpt lat="43.4054" lon="5.51279">
        <ele>776.4</ele>
        <time>2012-01-15T12:23:11Z</time>
      </trkpt>
      <trkpt lat="43.4054" lon="5.51279">
        <ele>781.69</ele>
        <time>2012-01-15T12:23:17Z</time>
      </trkpt>
      <trkpt lat="43.4054" lon="5.51279">
        <ele>775.92</ele>
        <time>2012-01-15T12:23:18Z</time>
      </trkpt>
      <trkpt lat="43.4054" lon="5.51279">
        <ele>775.44</ele>
        <time>2012-01-15T12:23:20Z</time>
      </trkpt>
      <trkpt lat="43.4054" lon="5.51279">
        <ele>779.29</ele>
        <time>2012-01-15T12:23:22Z</time>
      </trkpt>
      <trkpt lat="43.4054" lon="5.51279">
        <ele>776.4</ele>
        <time>2012-01-15T12:23:32Z</time>
      </trkpt>
      <trkpt lat="43.40539" lon="5.51279">
        <ele>778.32</ele>
        <time>2012-01-15T12:23:35Z</time>
      </trkpt>
      <trkpt lat="43.40539" lon="5.51279">
        <ele>782.17</ele>
        <time>2012-01-15T12:23:36Z</time>
      </trkpt>
      <trkpt lat="43.40539" lon="5.51279">
        <ele>777.36</ele>
        <time>2012-01-15T12:23:38Z</time>
      </trkpt>
      <trkpt lat="43.4054" lon="5.51279">
        <ele>778.32</ele>
        <time>2012-01-15T12:23:39Z</time>
      </trkpt>
      <trkpt lat="43.4054" lon="5.51279">
        <ele>777.84</ele>
        <time>2012-01-15T12:23:47Z</time>
      </trkpt>
      <trkpt lat="43.4054" lon="5.51279">
        <ele>778.81</ele>
        <time>2012-01-15T12:24:01Z</time>
      </trkpt>
      <trkpt lat="43.4054" lon="5.51279">
        <ele>777.84</ele>
        <time>2012-01-15T12:24:03Z</time>
      </trkpt>
      <trkpt lat="43.4054" lon="5.5128">
        <ele>782.17</ele>
        <time>2012-01-15T12:24:15Z</time>
      </trkpt>
      <trkpt lat="43.4054" lon="5.5128">
        <ele>776.88</ele>
        <time>2012-01-15T12:24:16Z</time>
      </trkpt>
      <trkpt lat="43.4054" lon="5.5128">
        <ele>781.69</ele>
        <time>2012-01-15T12:24:18Z</time>
      </trkpt>
      <trkpt lat="43.4054" lon="5.5128">
        <ele>776.88</ele>
        <time>2012-01-15T12:24:21Z</time>
      </trkpt>
      <trkpt lat="43.4054" lon="5.5128">
        <ele>781.21</ele>
        <time>2012-01-15T12:24:22Z</time>
      </trkpt>
      <trkpt lat="43.4054" lon="5.5128">
        <ele>776.4</ele>
        <time>2012-01-15T12:24:25Z</time>
      </trkpt>
      <trkpt lat="43.4054" lon="5.5128">
        <ele>782.65</ele>
        <time>2012-01-15T12:24:26Z</time>
      </trkpt>
      <trkpt lat="43.4054" lon="5.5128">
        <ele>777.36</ele>
        <time>2012-01-15T12:24:27Z</time>
      </trkpt>
      <trkpt lat="43.4054" lon="5.5128">
        <ele>775.92</ele>
        <time>2012-01-15T12:24:30Z</time>
      </trkpt>
      <trkpt lat="43.4054" lon="5.51279">
        <ele>779.29</ele>
        <time>2012-01-15T12:24:34Z</time>
      </trkpt>
      <trkpt lat="43.4054" lon="5.51279">
        <ele>776.4</ele>
        <time>2012-01-15T12:24:52Z</time>
      </trkpt>
      <trkpt lat="43.4054" lon="5.51278">
        <ele>782.17</ele>
        <time>2012-01-15T12:25:04Z</time>
      </trkpt>
      <trkpt lat="43.4054" lon="5.51278">
        <ele>779.29</ele>
        <time>2012-01-15T12:25:05Z</time>
      </trkpt>
      <trkpt lat="43.4054" lon="5.51278">
        <ele>776.4</ele>
        <time>2012-01-15T12:25:16Z</time>
      </trkpt>
      <trkpt lat="43.40539" lon="5.5128">
        <ele>779.77</ele>
        <time>2012-01-15T12:25:42Z</time>
      </trkpt>
      <trkpt lat="43.40539" lon="5.5128">
        <ele>779.29</ele>
        <time>2012-01-15T12:25:43Z</time>
      </trkpt>
      <trkpt lat="43.4054" lon="5.51283">
        <ele>776.88</ele>
        <time>2012-01-15T12:25:49Z</time>
      </trkpt>
      <trkpt lat="43.40539" lon="5.51288">
        <ele>776.88</ele>
        <time>2012-01-15T12:25:52Z</time>
      </trkpt>
      <trkpt lat="43.40537" lon="5.51291">
        <ele>779.77</ele>
        <time>2012-01-15T12:26:06Z</time>
      </trkpt>
      <trkpt lat="43.40537" lon="5.51291">
        <ele>776.4</ele>
        <time>2012-01-15T12:26:08Z</time>
      </trkpt>
      <trkpt lat="43.40537" lon="5.51291">
        <ele>775.44</ele>
        <time>2012-01-15T12:26:10Z</time>
      </trkpt>
      <trkpt lat="43.40537" lon="5.51291">
        <ele>778.81</ele>
        <time>2012-01-15T12:26:14Z</time>
      </trkpt>
      <trkpt lat="43.40537" lon="5.51291">
        <ele>778.81</ele>
        <time>2012-01-15T12:26:15Z</time>
      </trkpt>
      <trkpt lat="43.40536" lon="5.51292">
        <ele>775.44</ele>
        <time>2012-01-15T12:26:23Z</time>
      </trkpt>
      <trkpt lat="43.40535" lon="5.51292">
        <ele>775.44</ele>
        <time>2012-01-15T12:26:24Z</time>
      </trkpt>
      <trkpt lat="43.40534" lon="5.51293">
        <ele>778.81</ele>
        <time>2012-01-15T12:26:30Z</time>
      </trkpt>
      <trkpt lat="43.40534" lon="5.51293">
        <ele>775.44</ele>
        <time>2012-01-15T12:26:31Z</time>
      </trkpt>
      <trkpt lat="43.40535" lon="5.51294">
        <ele>774.96</ele>
        <time>2012-01-15T12:26:33Z</time>
      </trkpt>
      <trkpt lat="43.40535" lon="5.51294">
        <ele>775.92</ele>
        <time>2012-01-15T12:26:35Z</time>
      </trkpt>
      <trkpt lat="43.40534" lon="5.51295">
        <ele>774</ele>
        <time>2012-01-15T12:26:37Z</time>
      </trkpt>
      <trkpt lat="43.40527" lon="5.513">
        <ele>771.11</ele>
        <time>2012-01-15T12:26:44Z</time>
      </trkpt>
      <trkpt lat="43.40525" lon="5.513">
        <ele>771.11</ele>
        <time>2012-01-15T12:26:45Z</time>
      </trkpt>
      <trkpt lat="43.40523" lon="5.51305">
        <ele>768.23</ele>
        <time>2012-01-15T12:26:49Z</time>
      </trkpt>
      <trkpt lat="43.40523" lon="5.51306">
        <ele>770.15</ele>
        <time>2012-01-15T12:26:50Z</time>
      </trkpt>
      <trkpt lat="43.40523" lon="5.51309">
        <ele>769.19</ele>
        <time>2012-01-15T12:26:52Z</time>
      </trkpt>
      <trkpt lat="43.40517" lon="5.51318">
        <ele>766.79</ele>
        <time>2012-01-15T12:27:01Z</time>
      </trkpt>
      <trkpt lat="43.40515" lon="5.51317">
        <ele>762.46</ele>
        <time>2012-01-15T12:27:03Z</time>
      </trkpt>
      <trkpt lat="43.40514" lon="5.51317">
        <ele>765.83</ele>
        <time>2012-01-15T12:27:04Z</time>
      </trkpt>
      <trkpt lat="43.40514" lon="5.51315">
        <ele>764.39</ele>
        <time>2012-01-15T12:27:05Z</time>
      </trkpt>
      <trkpt lat="43.40513" lon="5.51311">
        <ele>765.83</ele>
        <time>2012-01-15T12:27:08Z</time>
      </trkpt>
      <trkpt lat="43.40511" lon="5.51311">
        <ele>762.46</ele>
        <time>2012-01-15T12:27:10Z</time>
      </trkpt>
      <trkpt lat="43.4051" lon="5.51313">
        <ele>761.98</ele>
        <time>2012-01-15T12:27:11Z</time>
      </trkpt>
      <trkpt lat="43.40507" lon="5.51315">
        <ele>761.02</ele>
        <time>2012-01-15T12:27:13Z</time>
      </trkpt>
      <trkpt lat="43.40503" lon="5.51323">
        <ele>765.35</ele>
        <time>2012-01-15T12:27:18Z</time>
      </trkpt>
      <trkpt lat="43.40501" lon="5.51329">
        <ele>763.42</ele>
        <time>2012-01-15T12:27:23Z</time>
      </trkpt>
      <trkpt lat="43.40499" lon="5.51329">
        <ele>761.5</ele>
        <time>2012-01-15T12:27:26Z</time>
      </trkpt>
      <trkpt lat="43.40496" lon="5.51331">
        <ele>756.69</ele>
        <time>2012-01-15T12:27:28Z</time>
      </trkpt>
      <trkpt lat="43.40494" lon="5.51332">
        <ele>759.1</ele>
        <time>2012-01-15T12:27:29Z</time>
      </trkpt>
      <trkpt lat="43.40493" lon="5.51333">
        <ele>754.29</ele>
        <time>2012-01-15T12:27:30Z</time>
      </trkpt>
      <trkpt lat="43.40492" lon="5.51334">
        <ele>757.66</ele>
        <time>2012-01-15T12:27:32Z</time>
      </trkpt>
      <trkpt lat="43.40492" lon="5.51334">
        <ele>756.21</ele>
        <time>2012-01-15T12:27:35Z</time>
      </trkpt>
      <trkpt lat="43.40492" lon="5.51334">
        <ele>755.25</ele>
        <time>2012-01-15T12:27:39Z</time>
      </trkpt>
      <trkpt lat="43.40491" lon="5.51334">
        <ele>754.29</ele>
        <time>2012-01-15T12:27:41Z</time>
      </trkpt>
      <trkpt lat="43.4048" lon="5.51337">
        <ele>749.49</ele>
        <time>2012-01-15T12:27:47Z</time>
      </trkpt>
      <trkpt lat="43.40475" lon="5.51343">
        <ele>753.33</ele>
        <time>2012-01-15T12:27:50Z</time>
      </trkpt>
      <trkpt lat="43.40473" lon="5.51346">
        <ele>753.81</ele>
        <time>2012-01-15T12:27:51Z</time>
      </trkpt>
      <trkpt lat="43.40472" lon="5.51362">
        <ele>754.77</ele>
        <time>2012-01-15T12:27:58Z</time>
      </trkpt>
      <trkpt lat="43.4047" lon="5.51364">
        <ele>757.18</ele>
        <time>2012-01-15T12:28:00Z</time>
      </trkpt>
      <trkpt lat="43.40469" lon="5.51367">
        <ele>755.25</ele>
        <time>2012-01-15T12:28:02Z</time>
      </trkpt>
      <trkpt lat="43.40466" lon="5.51373">
        <ele>753.33</ele>
        <time>2012-01-15T12:28:07Z</time>
      </trkpt>
      <trkpt lat="43.40465" lon="5.51376">
        <ele>754.29</ele>
        <time>2012-01-15T12:28:09Z</time>
      </trkpt>
      <trkpt lat="43.40463" lon="5.51379">
        <ele>750.93</ele>
        <time>2012-01-15T12:28:11Z</time>
      </trkpt>
      <trkpt lat="43.4046" lon="5.51384">
        <ele>749.49</ele>
        <time>2012-01-15T12:28:13Z</time>
      </trkpt>
      <trkpt lat="43.40459" lon="5.51388">
        <ele>748.52</ele>
        <time>2012-01-15T12:28:15Z</time>
      </trkpt>
      <trkpt lat="43.40458" lon="5.51391">
        <ele>752.85</ele>
        <time>2012-01-15T12:28:17Z</time>
      </trkpt>
      <trkpt lat="43.40457" lon="5.51399">
        <ele>749</ele>
        <time>2012-01-15T12:28:26Z</time>
      </trkpt>
      <trkpt lat="43.40457" lon="5.514">
        <ele>753.81</ele>
        <time>2012-01-15T12:28:27Z</time>
      </trkpt>
      <trkpt lat="43.40457" lon="5.51401">
        <ele>749.49</ele>
        <time>2012-01-15T12:28:28Z</time>
      </trkpt>
      <trkpt lat="43.40457" lon="5.51403">
        <ele>748.52</ele>
        <time>2012-01-15T12:28:29Z</time>
      </trkpt>
      <trkpt lat="43.4045" lon="5.51407">
        <ele>749.49</ele>
        <time>2012-01-15T12:28:33Z</time>
      </trkpt>
      <trkpt lat="43.40447" lon="5.51404">
        <ele>749.97</ele>
        <time>2012-01-15T12:28:36Z</time>
      </trkpt>
      <trkpt lat="43.40446" lon="5.51403">
        <ele>748.04</ele>
        <time>2012-01-15T12:28:38Z</time>
      </trkpt>
      <trkpt lat="43.40444" lon="5.51403">
        <ele>747.56</ele>
        <time>2012-01-15T12:28:39Z</time>
      </trkpt>
      <trkpt lat="43.4044" lon="5.51397">
        <ele>746.6</ele>
        <time>2012-01-15T12:28:44Z</time>
      </trkpt>
      <trkpt lat="43.4044" lon="5.51391">
        <ele>742.28</ele>
        <time>2012-01-15T12:28:51Z</time>
      </trkpt>
      <trkpt lat="43.4044" lon="5.51388">
        <ele>743.24</ele>
        <time>2012-01-15T12:28:54Z</time>
      </trkpt>
      <trkpt lat="43.40436" lon="5.51381">
        <ele>740.35</ele>
        <time>2012-01-15T12:29:01Z</time>
      </trkpt>
      <trkpt lat="43.40432" lon="5.51386">
        <ele>738.43</ele>
        <time>2012-01-15T12:29:04Z</time>
      </trkpt>
      <trkpt lat="43.40429" lon="5.51391">
        <ele>739.39</ele>
        <time>2012-01-15T12:29:06Z</time>
      </trkpt>
      <trkpt lat="43.40429" lon="5.51397">
        <ele>740.83</ele>
        <time>2012-01-15T12:29:09Z</time>
      </trkpt>
      <trkpt lat="43.40431" lon="5.51402">
        <ele>739.87</ele>
        <time>2012-01-15T12:29:15Z</time>
      </trkpt>
      <trkpt lat="43.40432" lon="5.51406">
        <ele>740.35</ele>
        <time>2012-01-15T12:29:18Z</time>
      </trkpt>
      <trkpt lat="43.4043" lon="5.51425">
        <ele>739.87</ele>
        <time>2012-01-15T12:29:30Z</time>
      </trkpt>
      <trkpt lat="43.40431" lon="5.51426">
        <ele>740.35</ele>
        <time>2012-01-15T12:29:33Z</time>
      </trkpt>
      <trkpt lat="43.40435" lon="5.51438">
        <ele>740.35</ele>
        <time>2012-01-15T12:29:48Z</time>
      </trkpt>
      <trkpt lat="43.40435" lon="5.51454">
        <ele>740.83</ele>
        <time>2012-01-15T12:29:57Z</time>
      </trkpt>
      <trkpt lat="43.40437" lon="5.51465">
        <ele>739.39</ele>
        <time>2012-01-15T12:30:03Z</time>
      </trkpt>
      <trkpt lat="43.40438" lon="5.51471">
        <ele>738.91</ele>
        <time>2012-01-15T12:30:07Z</time>
      </trkpt>
      <trkpt lat="43.40438" lon="5.51474">
        <ele>736.99</ele>
        <time>2012-01-15T12:30:09Z</time>
      </trkpt>
      <trkpt lat="43.40436" lon="5.51486">
        <ele>733.14</ele>
        <time>2012-01-15T12:30:22Z</time>
      </trkpt>
      <trkpt lat="43.40433" lon="5.51495">
        <ele>731.22</ele>
        <time>2012-01-15T12:30:28Z</time>
      </trkpt>
      <trkpt lat="43.40428" lon="5.515">
        <ele>729.78</ele>
        <time>2012-01-15T12:30:33Z</time>
      </trkpt>
      <trkpt lat="43.40423" lon="5.51507">
        <ele>725.93</ele>
        <time>2012-01-15T12:30:46Z</time>
      </trkpt>
      <trkpt lat="43.40421" lon="5.51514">
        <ele>725.45</ele>
        <time>2012-01-15T12:30:50Z</time>
      </trkpt>
      <trkpt lat="43.40425" lon="5.5152">
        <ele>724.49</ele>
        <time>2012-01-15T12:30:55Z</time>
      </trkpt>
      <trkpt lat="43.40426" lon="5.51521">
        <ele>724.97</ele>
        <time>2012-01-15T12:31:04Z</time>
      </trkpt>
      <trkpt lat="43.40427" lon="5.51523">
        <ele>723.53</ele>
        <time>2012-01-15T12:31:06Z</time>
      </trkpt>
      <trkpt lat="43.4043" lon="5.51526">
        <ele>722.09</ele>
        <time>2012-01-15T12:31:10Z</time>
      </trkpt>
      <trkpt lat="43.4043" lon="5.51528">
        <ele>722.09</ele>
        <time>2012-01-15T12:31:12Z</time>
      </trkpt>
      <trkpt lat="43.40431" lon="5.51532">
        <ele>718.24</ele>
        <time>2012-01-15T12:31:16Z</time>
      </trkpt>
      <trkpt lat="43.40433" lon="5.51535">
        <ele>717.28</ele>
        <time>2012-01-15T12:31:19Z</time>
      </trkpt>
      <trkpt lat="43.40433" lon="5.51544">
        <ele>713.92</ele>
        <time>2012-01-15T12:31:25Z</time>
      </trkpt>
      <trkpt lat="43.40425" lon="5.51558">
        <ele>716.32</ele>
        <time>2012-01-15T12:31:38Z</time>
      </trkpt>
      <trkpt lat="43.4042" lon="5.51576">
        <ele>715.36</ele>
        <time>2012-01-15T12:31:51Z</time>
      </trkpt>
      <trkpt lat="43.40421" lon="5.51583">
        <ele>713.44</ele>
        <time>2012-01-15T12:31:54Z</time>
      </trkpt>
      <trkpt lat="43.40418" lon="5.51589">
        <ele>712.47</ele>
        <time>2012-01-15T12:32:00Z</time>
      </trkpt>
      <trkpt lat="43.40416" lon="5.51592">
        <ele>712.47</ele>
        <time>2012-01-15T12:32:08Z</time>
      </trkpt>
      <trkpt lat="43.4041" lon="5.51595">
        <ele>709.11</ele>
        <time>2012-01-15T12:32:12Z</time>
      </trkpt>
      <trkpt lat="43.40411" lon="5.51602">
        <ele>707.19</ele>
        <time>2012-01-15T12:32:18Z</time>
      </trkpt>
      <trkpt lat="43.40413" lon="5.51606">
        <ele>706.23</ele>
        <time>2012-01-15T12:32:22Z</time>
      </trkpt>
      <trkpt lat="43.40413" lon="5.5162">
        <ele>704.3</ele>
        <time>2012-01-15T12:32:28Z</time>
      </trkpt>
      <trkpt lat="43.40411" lon="5.51626">
        <ele>707.67</ele>
        <time>2012-01-15T12:32:35Z</time>
      </trkpt>
      <trkpt lat="43.40406" lon="5.51634">
        <ele>706.71</ele>
        <time>2012-01-15T12:32:41Z</time>
      </trkpt>
      <trkpt lat="43.40408" lon="5.51644">
        <ele>705.26</ele>
        <time>2012-01-15T12:32:46Z</time>
      </trkpt>
      <trkpt lat="43.40407" lon="5.51649">
        <ele>703.82</ele>
        <time>2012-01-15T12:32:51Z</time>
      </trkpt>
      <trkpt lat="43.40408" lon="5.51653">
        <ele>703.34</ele>
        <time>2012-01-15T12:32:53Z</time>
      </trkpt>
      <trkpt lat="43.40407" lon="5.51662">
        <ele>702.86</ele>
        <time>2012-01-15T12:32:58Z</time>
      </trkpt>
      <trkpt lat="43.40405" lon="5.51677">
        <ele>702.86</ele>
        <time>2012-01-15T12:33:07Z</time>
      </trkpt>
      <trkpt lat="43.40399" lon="5.51682">
        <ele>702.86</ele>
        <time>2012-01-15T12:33:11Z</time>
      </trkpt>
      <trkpt lat="43.40393" lon="5.51694">
        <ele>699.98</ele>
        <time>2012-01-15T12:33:19Z</time>
      </trkpt>
      <trkpt lat="43.40391" lon="5.517">
        <ele>699.98</ele>
        <time>2012-01-15T12:33:24Z</time>
      </trkpt>
      <trkpt lat="43.40389" lon="5.51702">
        <ele>697.57</ele>
        <time>2012-01-15T12:33:27Z</time>
      </trkpt>
      <trkpt lat="43.40383" lon="5.5171">
        <ele>695.17</ele>
        <time>2012-01-15T12:33:33Z</time>
      </trkpt>
      <trkpt lat="43.40382" lon="5.51713">
        <ele>695.17</ele>
        <time>2012-01-15T12:33:34Z</time>
      </trkpt>
      <trkpt lat="43.40382" lon="5.51727">
        <ele>691.81</ele>
        <time>2012-01-15T12:33:42Z</time>
      </trkpt>
      <trkpt lat="43.4038" lon="5.5173">
        <ele>691.33</ele>
        <time>2012-01-15T12:33:44Z</time>
      </trkpt>
      <trkpt lat="43.40376" lon="5.51739">
        <ele>691.33</ele>
        <time>2012-01-15T12:33:50Z</time>
      </trkpt>
      <trkpt lat="43.40375" lon="5.51743">
        <ele>689.88</ele>
        <time>2012-01-15T12:33:52Z</time>
      </trkpt>
      <trkpt lat="43.40358" lon="5.51782">
        <ele>686.52</ele>
        <time>2012-01-15T12:34:02Z</time>
      </trkpt>
      <trkpt lat="43.40323" lon="5.51804">
        <ele>684.6</ele>
        <time>2012-01-15T12:34:15Z</time>
      </trkpt>
      <trkpt lat="43.40317" lon="5.51806">
        <ele>685.08</ele>
        <time>2012-01-15T12:34:17Z</time>
      </trkpt>
      <trkpt lat="43.40311" lon="5.5181">
        <ele>684.6</ele>
        <time>2012-01-15T12:34:21Z</time>
      </trkpt>
      <trkpt lat="43.40306" lon="5.51808">
        <ele>683.15</ele>
        <time>2012-01-15T12:34:24Z</time>
      </trkpt>
      <trkpt lat="43.4029" lon="5.51804">
        <ele>680.75</ele>
        <time>2012-01-15T12:34:32Z</time>
      </trkpt>
      <trkpt lat="43.40283" lon="5.51808">
        <ele>678.35</ele>
        <time>2012-01-15T12:34:37Z</time>
      </trkpt>
      <trkpt lat="43.40282" lon="5.5181">
        <ele>678.83</ele>
        <time>2012-01-15T12:34:38Z</time>
      </trkpt>
      <trkpt lat="43.40276" lon="5.51809">
        <ele>677.39</ele>
        <time>2012-01-15T12:34:43Z</time>
      </trkpt>
      <trkpt lat="43.40275" lon="5.51815">
        <ele>674.02</ele>
        <time>2012-01-15T12:34:51Z</time>
      </trkpt>
      <trkpt lat="43.4027" lon="5.51817">
        <ele>670.18</ele>
        <time>2012-01-15T12:34:57Z</time>
      </trkpt>
      <trkpt lat="43.40253" lon="5.5182">
        <ele>669.22</ele>
        <time>2012-01-15T12:35:10Z</time>
      </trkpt>
      <trkpt lat="43.40247" lon="5.51819">
        <ele>667.77</ele>
        <time>2012-01-15T12:35:14Z</time>
      </trkpt>
      <trkpt lat="43.40242" lon="5.5182">
        <ele>667.77</ele>
        <time>2012-01-15T12:35:17Z</time>
      </trkpt>
      <trkpt lat="43.40236" lon="5.51823">
        <ele>663.93</ele>
        <time>2012-01-15T12:35:21Z</time>
      </trkpt>
      <trkpt lat="43.40234" lon="5.51829">
        <ele>662.49</ele>
        <time>2012-01-15T12:35:24Z</time>
      </trkpt>
      <trkpt lat="43.40227" lon="5.51833">
        <ele>660.56</ele>
        <time>2012-01-15T12:35:29Z</time>
      </trkpt>
      <trkpt lat="43.40225" lon="5.51835">
        <ele>658.64</ele>
        <time>2012-01-15T12:35:31Z</time>
      </trkpt>
      <trkpt lat="43.40206" lon="5.5183">
        <ele>657.2</ele>
        <time>2012-01-15T12:35:39Z</time>
      </trkpt>
      <trkpt lat="43.40195" lon="5.51834">
        <ele>657.2</ele>
        <time>2012-01-15T12:35:43Z</time>
      </trkpt>
      <trkpt lat="43.40175" lon="5.51834">
        <ele>658.16</ele>
        <time>2012-01-15T12:35:51Z</time>
      </trkpt>
      <trkpt lat="43.40165" lon="5.51838">
        <ele>657.2</ele>
        <time>2012-01-15T12:35:56Z</time>
      </trkpt>
      <trkpt lat="43.40151" lon="5.51841">
        <ele>657.68</ele>
        <time>2012-01-15T12:36:03Z</time>
      </trkpt>
      <trkpt lat="43.40148" lon="5.51841">
        <ele>658.16</ele>
        <time>2012-01-15T12:36:05Z</time>
      </trkpt>
      <trkpt lat="43.40142" lon="5.51839">
        <ele>659.6</ele>
        <time>2012-01-15T12:36:08Z</time>
      </trkpt>
      <trkpt lat="43.40137" lon="5.51837">
        <ele>660.08</ele>
        <time>2012-01-15T12:36:10Z</time>
      </trkpt>
      <trkpt lat="43.40131" lon="5.51839">
        <ele>660.56</ele>
        <time>2012-01-15T12:36:14Z</time>
      </trkpt>
      <trkpt lat="43.40128" lon="5.51839">
        <ele>661.04</ele>
        <time>2012-01-15T12:36:15Z</time>
      </trkpt>
      <trkpt lat="43.40114" lon="5.51841">
        <ele>659.6</ele>
        <time>2012-01-15T12:36:25Z</time>
      </trkpt>
      <trkpt lat="43.40102" lon="5.51843">
        <ele>653.35</ele>
        <time>2012-01-15T12:36:34Z</time>
      </trkpt>
      <trkpt lat="43.40101" lon="5.51843">
        <ele>654.31</ele>
        <time>2012-01-15T12:36:35Z</time>
      </trkpt>
      <trkpt lat="43.40101" lon="5.51844">
        <ele>653.83</ele>
        <time>2012-01-15T12:36:36Z</time>
      </trkpt>
      <trkpt lat="43.40094" lon="5.51843">
        <ele>651.43</ele>
        <time>2012-01-15T12:36:44Z</time>
      </trkpt>
      <trkpt lat="43.40091" lon="5.51844">
        <ele>649.51</ele>
        <time>2012-01-15T12:36:47Z</time>
      </trkpt>
      <trkpt lat="43.40091" lon="5.51844">
        <ele>649.51</ele>
        <time>2012-01-15T12:36:48Z</time>
      </trkpt>
      <trkpt lat="43.40084" lon="5.5184">
        <ele>647.59</ele>
        <time>2012-01-15T12:36:58Z</time>
      </trkpt>
      <trkpt lat="43.40081" lon="5.51837">
        <ele>645.66</ele>
        <time>2012-01-15T12:37:01Z</time>
      </trkpt>
      <trkpt lat="43.40077" lon="5.51837">
        <ele>644.22</ele>
        <time>2012-01-15T12:37:05Z</time>
      </trkpt>
      <trkpt lat="43.40074" lon="5.51835">
        <ele>643.26</ele>
        <time>2012-01-15T12:37:09Z</time>
      </trkpt>
      <trkpt lat="43.4007" lon="5.5184">
        <ele>642.3</ele>
        <time>2012-01-15T12:37:13Z</time>
      </trkpt>
      <trkpt lat="43.40066" lon="5.5184">
        <ele>639.41</ele>
        <time>2012-01-15T12:37:19Z</time>
      </trkpt>
      <trkpt lat="43.4006" lon="5.51842">
        <ele>636.05</ele>
        <time>2012-01-15T12:37:25Z</time>
      </trkpt>
      <trkpt lat="43.40059" lon="5.51842">
        <ele>636.05</ele>
        <time>2012-01-15T12:37:26Z</time>
      </trkpt>
      <trkpt lat="43.40052" lon="5.51841">
        <ele>635.09</ele>
        <time>2012-01-15T12:37:30Z</time>
      </trkpt>
      <trkpt lat="43.40051" lon="5.51836">
        <ele>634.61</ele>
        <time>2012-01-15T12:37:39Z</time>
      </trkpt>
      <trkpt lat="43.40051" lon="5.51838">
        <ele>635.09</ele>
        <time>2012-01-15T12:37:49Z</time>
      </trkpt>
      <trkpt lat="43.4005" lon="5.51837">
        <ele>633.65</ele>
        <time>2012-01-15T12:38:19Z</time>
      </trkpt>
      <trkpt lat="43.40048" lon="5.51836">
        <ele>630.76</ele>
        <time>2012-01-15T12:38:32Z</time>
      </trkpt>
      <trkpt lat="43.40048" lon="5.51836">
        <ele>635.09</ele>
        <time>2012-01-15T12:38:45Z</time>
      </trkpt>
      <trkpt lat="43.40048" lon="5.51836">
        <ele>632.68</ele>
        <time>2012-01-15T12:38:46Z</time>
      </trkpt>
      <trkpt lat="43.40048" lon="5.51836">
        <ele>631.72</ele>
        <time>2012-01-15T12:38:50Z</time>
      </trkpt>
      <trkpt lat="43.40048" lon="5.51836">
        <ele>628.36</ele>
        <time>2012-01-15T12:38:54Z</time>
      </trkpt>
      <trkpt lat="43.40048" lon="5.51836">
        <ele>631.72</ele>
        <time>2012-01-15T12:38:55Z</time>
      </trkpt>
      <trkpt lat="43.40048" lon="5.51836">
        <ele>631.72</ele>
        <time>2012-01-15T12:39:05Z</time>
      </trkpt>
      <trkpt lat="43.40041" lon="5.51838">
        <ele>631.72</ele>
        <time>2012-01-15T12:39:08Z</time>
      </trkpt>
      <trkpt lat="43.40033" lon="5.51839">
        <ele>627.88</ele>
        <time>2012-01-15T12:39:11Z</time>
      </trkpt>
      <trkpt lat="43.40031" lon="5.51839">
        <ele>632.68</ele>
        <time>2012-01-15T12:39:12Z</time>
      </trkpt>
      <trkpt lat="43.40028" lon="5.51839">
        <ele>628.36</ele>
        <time>2012-01-15T12:39:13Z</time>
      </trkpt>
      <trkpt lat="43.40011" lon="5.51846">
        <ele>627.88</ele>
        <time>2012-01-15T12:39:22Z</time>
      </trkpt>
      <trkpt lat="43.40009" lon="5.51856">
        <ele>627.88</ele>
        <time>2012-01-15T12:39:31Z</time>
      </trkpt>
      <trkpt lat="43.40008" lon="5.51857">
        <ele>626.44</ele>
        <time>2012-01-15T12:39:32Z</time>
      </trkpt>
      <trkpt lat="43.40006" lon="5.5186">
        <ele>626.44</ele>
        <time>2012-01-15T12:39:35Z</time>
      </trkpt>
      <trkpt lat="43.40004" lon="5.5186">
        <ele>623.55</ele>
        <time>2012-01-15T12:39:37Z</time>
      </trkpt>
      <trkpt lat="43.39986" lon="5.51857">
        <ele>618.75</ele>
        <time>2012-01-15T12:39:50Z</time>
      </trkpt>
      <trkpt lat="43.39985" lon="5.51856">
        <ele>619.23</ele>
        <time>2012-01-15T12:39:51Z</time>
      </trkpt>
      <trkpt lat="43.39982" lon="5.51855">
        <ele>615.38</ele>
        <time>2012-01-15T12:39:54Z</time>
      </trkpt>
      <trkpt lat="43.39982" lon="5.51855">
        <ele>616.34</ele>
        <time>2012-01-15T12:39:55Z</time>
      </trkpt>
      <trkpt lat="43.39982" lon="5.51855">
        <ele>617.3</ele>
        <time>2012-01-15T12:39:59Z</time>
      </trkpt>
      <trkpt lat="43.39983" lon="5.51851">
        <ele>615.86</ele>
        <time>2012-01-15T12:40:03Z</time>
      </trkpt>
      <trkpt lat="43.39983" lon="5.51849">
        <ele>614.9</ele>
        <time>2012-01-15T12:40:05Z</time>
      </trkpt>
      <trkpt lat="43.39982" lon="5.51848">
        <ele>612.5</ele>
        <time>2012-01-15T12:40:07Z</time>
      </trkpt>
      <trkpt lat="43.39981" lon="5.51848">
        <ele>613.46</ele>
        <time>2012-01-15T12:40:08Z</time>
      </trkpt>
      <trkpt lat="43.39969" lon="5.51851">
        <ele>611.54</ele>
        <time>2012-01-15T12:40:18Z</time>
      </trkpt>
      <trkpt lat="43.39959" lon="5.51857">
        <ele>608.17</ele>
        <time>2012-01-15T12:40:25Z</time>
      </trkpt>
      <trkpt lat="43.39958" lon="5.51858">
        <ele>608.17</ele>
        <time>2012-01-15T12:40:26Z</time>
      </trkpt>
      <trkpt lat="43.39954" lon="5.51857">
        <ele>607.69</ele>
        <time>2012-01-15T12:40:35Z</time>
      </trkpt>
      <trkpt lat="43.39949" lon="5.51853">
        <ele>604.33</ele>
        <time>2012-01-15T12:40:41Z</time>
      </trkpt>
      <trkpt lat="43.39935" lon="5.51846">
        <ele>600.48</ele>
        <time>2012-01-15T12:40:49Z</time>
      </trkpt>
      <trkpt lat="43.3993" lon="5.51841">
        <ele>599.52</ele>
        <time>2012-01-15T12:40:54Z</time>
      </trkpt>
      <trkpt lat="43.39928" lon="5.51835">
        <ele>595.19</ele>
        <time>2012-01-15T12:41:09Z</time>
      </trkpt>
      <trkpt lat="43.39928" lon="5.51834">
        <ele>597.6</ele>
        <time>2012-01-15T12:41:14Z</time>
      </trkpt>
      <trkpt lat="43.3993" lon="5.51832">
        <ele>597.6</ele>
        <time>2012-01-15T12:41:22Z</time>
      </trkpt>
      <trkpt lat="43.39916" lon="5.51829">
        <ele>599.04</ele>
        <time>2012-01-15T12:41:29Z</time>
      </trkpt>
      <trkpt lat="43.39911" lon="5.51825">
        <ele>595.19</ele>
        <time>2012-01-15T12:41:35Z</time>
      </trkpt>
      <trkpt lat="43.39912" lon="5.51824">
        <ele>595.19</ele>
        <time>2012-01-15T12:41:46Z</time>
      </trkpt>
      <trkpt lat="43.39918" lon="5.51826">
        <ele>596.64</ele>
        <time>2012-01-15T12:41:53Z</time>
      </trkpt>
      <trkpt lat="43.39919" lon="5.51827">
        <ele>596.64</ele>
        <time>2012-01-15T12:41:54Z</time>
      </trkpt>
      <trkpt lat="43.39939" lon="5.51826">
        <ele>594.71</ele>
        <time>2012-01-15T12:42:07Z</time>
      </trkpt>
      <trkpt lat="43.39942" lon="5.51823">
        <ele>598.08</ele>
        <time>2012-01-15T12:42:10Z</time>
      </trkpt>
      <trkpt lat="43.39945" lon="5.51821">
        <ele>594.23</ele>
        <time>2012-01-15T12:42:12Z</time>
      </trkpt>
      <trkpt lat="43.39948" lon="5.51815">
        <ele>596.15</ele>
        <time>2012-01-15T12:42:16Z</time>
      </trkpt>
      <trkpt lat="43.39954" lon="5.51801">
        <ele>595.67</ele>
        <time>2012-01-15T12:42:26Z</time>
      </trkpt>
      <trkpt lat="43.39957" lon="5.51795">
        <ele>592.79</ele>
        <time>2012-01-15T12:42:30Z</time>
      </trkpt>
      <trkpt lat="43.39959" lon="5.51789">
        <ele>590.39</ele>
        <time>2012-01-15T12:42:35Z</time>
      </trkpt>
      <trkpt lat="43.39965" lon="5.51779">
        <ele>589.43</ele>
        <time>2012-01-15T12:42:43Z</time>
      </trkpt>
      <trkpt lat="43.39967" lon="5.51775">
        <ele>589.91</ele>
        <time>2012-01-15T12:42:47Z</time>
      </trkpt>
      <trkpt lat="43.39976" lon="5.51763">
        <ele>587.02</ele>
        <time>2012-01-15T12:42:53Z</time>
      </trkpt>
      <trkpt lat="43.40001" lon="5.51735">
        <ele>583.18</ele>
        <time>2012-01-15T12:43:03Z</time>
      </trkpt>
      <trkpt lat="43.40004" lon="5.51735">
        <ele>586.54</ele>
        <time>2012-01-15T12:43:04Z</time>
      </trkpt>
      <trkpt lat="43.40014" lon="5.51732">
        <ele>586.54</ele>
        <time>2012-01-15T12:43:07Z</time>
      </trkpt>
      <trkpt lat="43.40017" lon="5.51731">
        <ele>584.62</ele>
        <time>2012-01-15T12:43:08Z</time>
      </trkpt>
      <trkpt lat="43.40019" lon="5.5173">
        <ele>587.02</ele>
        <time>2012-01-15T12:43:09Z</time>
      </trkpt>
      <trkpt lat="43.40022" lon="5.51729">
        <ele>586.54</ele>
        <time>2012-01-15T12:43:10Z</time>
      </trkpt>
      <trkpt lat="43.40025" lon="5.51727">
        <ele>587.5</ele>
        <time>2012-01-15T12:43:11Z</time>
      </trkpt>
      <trkpt lat="43.40027" lon="5.51726">
        <ele>583.66</ele>
        <time>2012-01-15T12:43:12Z</time>
      </trkpt>
      <trkpt lat="43.4003" lon="5.51724">
        <ele>584.62</ele>
        <time>2012-01-15T12:43:13Z</time>
      </trkpt>
      <trkpt lat="43.40033" lon="5.51723">
        <ele>584.14</ele>
        <time>2012-01-15T12:43:14Z</time>
      </trkpt>
      <trkpt lat="43.40045" lon="5.51714">
        <ele>582.7</ele>
        <time>2012-01-15T12:43:18Z</time>
      </trkpt>
      <trkpt lat="43.40069" lon="5.51697">
        <ele>579.33</ele>
        <time>2012-01-15T12:43:26Z</time>
      </trkpt>
      <trkpt lat="43.40085" lon="5.51691">
        <ele>580.29</ele>
        <time>2012-01-15T12:43:31Z</time>
      </trkpt>
      <trkpt lat="43.40116" lon="5.51675">
        <ele>577.41</ele>
        <time>2012-01-15T12:43:41Z</time>
      </trkpt>
      <trkpt lat="43.40144" lon="5.51656">
        <ele>575.49</ele>
        <time>2012-01-15T12:43:50Z</time>
      </trkpt>
      <trkpt lat="43.40154" lon="5.51643">
        <ele>574.04</ele>
        <time>2012-01-15T12:43:54Z</time>
      </trkpt>
      <trkpt lat="43.4016" lon="5.51637">
        <ele>575.49</ele>
        <time>2012-01-15T12:43:56Z</time>
      </trkpt>
      <trkpt lat="43.40167" lon="5.51626">
        <ele>572.12</ele>
        <time>2012-01-15T12:43:59Z</time>
      </trkpt>
      <trkpt lat="43.40176" lon="5.5159">
        <ele>568.28</ele>
        <time>2012-01-15T12:44:07Z</time>
      </trkpt>
      <trkpt lat="43.40176" lon="5.51585">
        <ele>568.76</ele>
        <time>2012-01-15T12:44:08Z</time>
      </trkpt>
      <trkpt lat="43.40178" lon="5.51559">
        <ele>564.43</ele>
        <time>2012-01-15T12:44:13Z</time>
      </trkpt>
      <trkpt lat="43.40178" lon="5.5155">
        <ele>567.32</ele>
        <time>2012-01-15T12:44:15Z</time>
      </trkpt>
      <trkpt lat="43.40176" lon="5.51538">
        <ele>563.47</ele>
        <time>2012-01-15T12:44:17Z</time>
      </trkpt>
      <trkpt lat="43.40175" lon="5.51533">
        <ele>564.91</ele>
        <time>2012-01-15T12:44:18Z</time>
      </trkpt>
      <trkpt lat="43.40169" lon="5.51519">
        <ele>562.99</ele>
        <time>2012-01-15T12:44:21Z</time>
      </trkpt>
      <trkpt lat="43.40162" lon="5.51508">
        <ele>559.62</ele>
        <time>2012-01-15T12:44:24Z</time>
      </trkpt>
      <trkpt lat="43.40148" lon="5.51469">
        <ele>557.7</ele>
        <time>2012-01-15T12:44:34Z</time>
      </trkpt>
      <trkpt lat="43.40146" lon="5.51445">
        <ele>553.86</ele>
        <time>2012-01-15T12:44:39Z</time>
      </trkpt>
      <trkpt lat="43.40142" lon="5.5143">
        <ele>555.3</ele>
        <time>2012-01-15T12:44:42Z</time>
      </trkpt>
      <trkpt lat="43.40139" lon="5.51425">
        <ele>555.3</ele>
        <time>2012-01-15T12:44:43Z</time>
      </trkpt>
      <trkpt lat="43.40121" lon="5.51393">
        <ele>550.97</ele>
        <time>2012-01-15T12:44:51Z</time>
      </trkpt>
      <trkpt lat="43.40086" lon="5.51379">
        <ele>549.53</ele>
        <time>2012-01-15T12:45:01Z</time>
      </trkpt>
      <trkpt lat="43.4007" lon="5.51347">
        <ele>545.69</ele>
        <time>2012-01-15T12:45:10Z</time>
      </trkpt>
      <trkpt lat="43.40066" lon="5.51334">
        <ele>547.13</ele>
        <time>2012-01-15T12:45:13Z</time>
      </trkpt>
      <trkpt lat="43.40062" lon="5.51327">
        <ele>543.76</ele>
        <time>2012-01-15T12:45:15Z</time>
      </trkpt>
      <trkpt lat="43.40057" lon="5.51321">
        <ele>547.13</ele>
        <time>2012-01-15T12:45:17Z</time>
      </trkpt>
      <trkpt lat="43.4005" lon="5.51315">
        <ele>541.84</ele>
        <time>2012-01-15T12:45:19Z</time>
      </trkpt>
      <trkpt lat="43.40047" lon="5.51313">
        <ele>542.8</ele>
        <time>2012-01-15T12:45:20Z</time>
      </trkpt>
      <trkpt lat="43.4004" lon="5.51309">
        <ele>543.76</ele>
        <time>2012-01-15T12:45:22Z</time>
      </trkpt>
      <trkpt lat="43.40012" lon="5.513">
        <ele>540.4</ele>
        <time>2012-01-15T12:45:30Z</time>
      </trkpt>
      <trkpt lat="43.40005" lon="5.51299">
        <ele>538.48</ele>
        <time>2012-01-15T12:45:32Z</time>
      </trkpt>
      <trkpt lat="43.40001" lon="5.51298">
        <ele>537.99</ele>
        <time>2012-01-15T12:45:33Z</time>
      </trkpt>
      <trkpt lat="43.39998" lon="5.51295">
        <ele>538.48</ele>
        <time>2012-01-15T12:45:34Z</time>
      </trkpt>
      <trkpt lat="43.39994" lon="5.51292">
        <ele>538.96</ele>
        <time>2012-01-15T12:45:35Z</time>
      </trkpt>
      <trkpt lat="43.39991" lon="5.51288">
        <ele>536.07</ele>
        <time>2012-01-15T12:45:36Z</time>
      </trkpt>
      <trkpt lat="43.39989" lon="5.51284">
        <ele>535.11</ele>
        <time>2012-01-15T12:45:37Z</time>
      </trkpt>
      <trkpt lat="43.39986" lon="5.5128">
        <ele>536.55</ele>
        <time>2012-01-15T12:45:38Z</time>
      </trkpt>
      <trkpt lat="43.39979" lon="5.51265">
        <ele>533.19</ele>
        <time>2012-01-15T12:45:42Z</time>
      </trkpt>
      <trkpt lat="43.39975" lon="5.51256">
        <ele>535.59</ele>
        <time>2012-01-15T12:45:44Z</time>
      </trkpt>
      <trkpt lat="43.39973" lon="5.51252">
        <ele>533.19</ele>
        <time>2012-01-15T12:45:45Z</time>
      </trkpt>
      <trkpt lat="43.39965" lon="5.5123">
        <ele>528.86</ele>
        <time>2012-01-15T12:45:50Z</time>
      </trkpt>
      <trkpt lat="43.39962" lon="5.51226">
        <ele>530.3</ele>
        <time>2012-01-15T12:45:51Z</time>
      </trkpt>
      <trkpt lat="43.39959" lon="5.51223">
        <ele>532.23</ele>
        <time>2012-01-15T12:45:52Z</time>
      </trkpt>
      <trkpt lat="43.39944" lon="5.51203">
        <ele>528.38</ele>
        <time>2012-01-15T12:45:57Z</time>
      </trkpt>
      <trkpt lat="43.39929" lon="5.51177">
        <ele>526.46</ele>
        <time>2012-01-15T12:46:04Z</time>
      </trkpt>
      <trkpt lat="43.39922" lon="5.51169">
        <ele>529.34</ele>
        <time>2012-01-15T12:46:07Z</time>
      </trkpt>
      <trkpt lat="43.39905" lon="5.51161">
        <ele>525.5</ele>
        <time>2012-01-15T12:46:13Z</time>
      </trkpt>
      <trkpt lat="43.39895" lon="5.51162">
        <ele>528.86</ele>
        <time>2012-01-15T12:46:17Z</time>
      </trkpt>
      <trkpt lat="43.39875" lon="5.51161">
        <ele>530.79</ele>
        <time>2012-01-15T12:46:24Z</time>
      </trkpt>
      <trkpt lat="43.39858" lon="5.51118">
        <ele>528.86</ele>
        <time>2012-01-15T12:46:38Z</time>
      </trkpt>
      <trkpt lat="43.39846" lon="5.51065">
        <ele>525.02</ele>
        <time>2012-01-15T12:46:51Z</time>
      </trkpt>
      <trkpt lat="43.39837" lon="5.51022">
        <ele>525.02</ele>
        <time>2012-01-15T12:47:01Z</time>
      </trkpt>
      <trkpt lat="43.39816" lon="5.50978">
        <ele>524.54</ele>
        <time>2012-01-15T12:47:16Z</time>
      </trkpt>
      <trkpt lat="43.39798" lon="5.50955">
        <ele>521.17</ele>
        <time>2012-01-15T12:47:25Z</time>
      </trkpt>
      <trkpt lat="43.39791" lon="5.5095">
        <ele>522.61</ele>
        <time>2012-01-15T12:47:28Z</time>
      </trkpt>
      <trkpt lat="43.39762" lon="5.50921">
        <ele>521.17</ele>
        <time>2012-01-15T12:47:42Z</time>
      </trkpt>
      <trkpt lat="43.39752" lon="5.50899">
        <ele>520.21</ele>
        <time>2012-01-15T12:47:50Z</time>
      </trkpt>
      <trkpt lat="43.3975" lon="5.50896">
        <ele>519.73</ele>
        <time>2012-01-15T12:47:51Z</time>
      </trkpt>
      <trkpt lat="43.39724" lon="5.5085">
        <ele>520.21</ele>
        <time>2012-01-15T12:48:07Z</time>
      </trkpt>
      <trkpt lat="43.39721" lon="5.50839">
        <ele>521.65</ele>
        <time>2012-01-15T12:48:10Z</time>
      </trkpt>
      <trkpt lat="43.39718" lon="5.50832">
        <ele>520.69</ele>
        <time>2012-01-15T12:48:13Z</time>
      </trkpt>
      <trkpt lat="43.3971" lon="5.50825">
        <ele>522.13</ele>
        <time>2012-01-15T12:48:22Z</time>
      </trkpt>
      <trkpt lat="43.39703" lon="5.50821">
        <ele>521.17</ele>
        <time>2012-01-15T12:48:30Z</time>
      </trkpt>
      <trkpt lat="43.39697" lon="5.50816">
        <ele>523.58</ele>
        <time>2012-01-15T12:48:36Z</time>
      </trkpt>
      <trkpt lat="43.39689" lon="5.50812">
        <ele>525.02</ele>
        <time>2012-01-15T12:48:44Z</time>
      </trkpt>
      <trkpt lat="43.39684" lon="5.50813">
        <ele>525.98</ele>
        <time>2012-01-15T12:48:49Z</time>
      </trkpt>
      <trkpt lat="43.39684" lon="5.50813">
        <ele>525.02</ele>
        <time>2012-01-15T12:48:51Z</time>
      </trkpt>
      <trkpt lat="43.39682" lon="5.50814">
        <ele>526.46</ele>
        <time>2012-01-15T12:48:53Z</time>
      </trkpt>
      <trkpt lat="43.39671" lon="5.50818">
        <ele>528.86</ele>
        <time>2012-01-15T12:49:01Z</time>
      </trkpt>
      <trkpt lat="43.39669" lon="5.50819">
        <ele>527.42</ele>
        <time>2012-01-15T12:49:03Z</time>
      </trkpt>
      <trkpt lat="43.39664" lon="5.50822">
        <ele>526.94</ele>
        <time>2012-01-15T12:49:07Z</time>
      </trkpt>
      <trkpt lat="43.39661" lon="5.50825">
        <ele>528.86</ele>
        <time>2012-01-15T12:49:11Z</time>
      </trkpt>
      <trkpt lat="43.3966" lon="5.50825">
        <ele>529.34</ele>
        <time>2012-01-15T12:49:12Z</time>
      </trkpt>
      <trkpt lat="43.39648" lon="5.50828">
        <ele>531.75</ele>
        <time>2012-01-15T12:49:23Z</time>
      </trkpt>
      <trkpt lat="43.39637" lon="5.50829">
        <ele>531.75</ele>
        <time>2012-01-15T12:49:34Z</time>
      </trkpt>
      <trkpt lat="43.39623" lon="5.50826">
        <ele>533.19</ele>
        <time>2012-01-15T12:49:45Z</time>
      </trkpt>
      <trkpt lat="43.39619" lon="5.50826">
        <ele>536.55</ele>
        <time>2012-01-15T12:49:50Z</time>
      </trkpt>
      <trkpt lat="43.39618" lon="5.50827">
        <ele>533.67</ele>
        <time>2012-01-15T12:49:53Z</time>
      </trkpt>
      <trkpt lat="43.39617" lon="5.50826">
        <ele>537.03</ele>
        <time>2012-01-15T12:49:54Z</time>
      </trkpt>
      <trkpt lat="43.39615" lon="5.50826">
        <ele>537.03</ele>
        <time>2012-01-15T12:49:55Z</time>
      </trkpt>
      <trkpt lat="43.39613" lon="5.50826">
        <ele>537.51</ele>
        <time>2012-01-15T12:49:58Z</time>
      </trkpt>
      <trkpt lat="43.39607" lon="5.5082">
        <ele>540.88</ele>
        <time>2012-01-15T12:50:06Z</time>
      </trkpt>
      <trkpt lat="43.39605" lon="5.50819">
        <ele>537.99</ele>
        <time>2012-01-15T12:50:09Z</time>
      </trkpt>
      <trkpt lat="43.39599" lon="5.50809">
        <ele>540.4</ele>
        <time>2012-01-15T12:50:19Z</time>
      </trkpt>
      <trkpt lat="43.39598" lon="5.50807">
        <ele>538.96</ele>
        <time>2012-01-15T12:50:20Z</time>
      </trkpt>
      <trkpt lat="43.39596" lon="5.50805">
        <ele>539.92</ele>
        <time>2012-01-15T12:50:21Z</time>
      </trkpt>
      <trkpt lat="43.39595" lon="5.50802">
        <ele>540.4</ele>
        <time>2012-01-15T12:50:22Z</time>
      </trkpt>
      <trkpt lat="43.39594" lon="5.508">
        <ele>541.36</ele>
        <time>2012-01-15T12:50:23Z</time>
      </trkpt>
      <trkpt lat="43.39588" lon="5.5079">
        <ele>538.48</ele>
        <time>2012-01-15T12:50:31Z</time>
      </trkpt>
      <trkpt lat="43.39583" lon="5.50782">
        <ele>541.84</ele>
        <time>2012-01-15T12:50:40Z</time>
      </trkpt>
      <trkpt lat="43.39582" lon="5.5078">
        <ele>543.28</ele>
        <time>2012-01-15T12:50:42Z</time>
      </trkpt>
      <trkpt lat="43.39581" lon="5.50777">
        <ele>537.51</ele>
        <time>2012-01-15T12:50:44Z</time>
      </trkpt>
      <trkpt lat="43.39581" lon="5.50775">
        <ele>541.84</ele>
        <time>2012-01-15T12:50:46Z</time>
      </trkpt>
      <trkpt lat="43.39581" lon="5.50774">
        <ele>541.84</ele>
        <time>2012-01-15T12:50:47Z</time>
      </trkpt>
      <trkpt lat="43.39581" lon="5.50773">
        <ele>538.48</ele>
        <time>2012-01-15T12:50:55Z</time>
      </trkpt>
      <trkpt lat="43.39581" lon="5.50773">
        <ele>540.4</ele>
        <time>2012-01-15T12:50:58Z</time>
      </trkpt>
      <trkpt lat="43.39581" lon="5.50773">
        <ele>541.84</ele>
        <time>2012-01-15T12:51:03Z</time>
      </trkpt>
      <trkpt lat="43.39581" lon="5.50773">
        <ele>539.92</ele>
        <time>2012-01-15T12:51:06Z</time>
      </trkpt>
      <trkpt lat="43.39581" lon="5.50773">
        <ele>541.36</ele>
        <time>2012-01-15T12:51:17Z</time>
      </trkpt>
      <trkpt lat="43.39581" lon="5.50773">
        <ele>537.51</ele>
        <time>2012-01-15T12:51:19Z</time>
      </trkpt>
      <trkpt lat="43.39581" lon="5.50773">
        <ele>540.4</ele>
        <time>2012-01-15T12:51:28Z</time>
      </trkpt>
      <trkpt lat="43.39574" lon="5.50766">
        <ele>538.96</ele>
        <time>2012-01-15T12:51:37Z</time>
      </trkpt>
      <trkpt lat="43.39574" lon="5.50767">
        <ele>538.96</ele>
        <time>2012-01-15T12:51:40Z</time>
      </trkpt>
      <trkpt lat="43.39573" lon="5.50767">
        <ele>537.51</ele>
        <time>2012-01-15T12:51:42Z</time>
      </trkpt>
      <trkpt lat="43.39565" lon="5.50766">
        <ele>537.51</ele>
        <time>2012-01-15T12:51:46Z</time>
      </trkpt>
      <trkpt lat="43.39563" lon="5.50767">
        <ele>537.51</ele>
        <time>2012-01-15T12:51:52Z</time>
      </trkpt>
      <trkpt lat="43.39559" lon="5.50763">
        <ele>536.07</ele>
        <time>2012-01-15T12:51:55Z</time>
      </trkpt>
      <trkpt lat="43.39556" lon="5.50759">
        <ele>535.11</ele>
        <time>2012-01-15T12:51:57Z</time>
      </trkpt>
      <trkpt lat="43.39539" lon="5.50749">
        <ele>532.23</ele>
        <time>2012-01-15T12:52:09Z</time>
      </trkpt>
      <trkpt lat="43.39537" lon="5.50748">
        <ele>533.19</ele>
        <time>2012-01-15T12:52:10Z</time>
      </trkpt>
      <trkpt lat="43.39536" lon="5.50747">
        <ele>533.19</ele>
        <time>2012-01-15T12:52:11Z</time>
      </trkpt>
      <trkpt lat="43.39532" lon="5.50747">
        <ele>532.71</ele>
        <time>2012-01-15T12:52:15Z</time>
      </trkpt>
      <trkpt lat="43.39526" lon="5.50744">
        <ele>530.79</ele>
        <time>2012-01-15T12:52:19Z</time>
      </trkpt>
      <trkpt lat="43.39521" lon="5.50743">
        <ele>530.79</ele>
        <time>2012-01-15T12:52:23Z</time>
      </trkpt>
      <trkpt lat="43.39516" lon="5.50741">
        <ele>532.23</ele>
        <time>2012-01-15T12:52:26Z</time>
      </trkpt>
      <trkpt lat="43.39514" lon="5.50739">
        <ele>530.79</ele>
        <time>2012-01-15T12:52:28Z</time>
      </trkpt>
      <trkpt lat="43.39513" lon="5.50738">
        <ele>532.23</ele>
        <time>2012-01-15T12:52:31Z</time>
      </trkpt>
      <trkpt lat="43.39513" lon="5.50738">
        <ele>528.86</ele>
        <time>2012-01-15T12:52:32Z</time>
      </trkpt>
      <trkpt lat="43.39513" lon="5.50738">
        <ele>528.86</ele>
        <time>2012-01-15T12:52:33Z</time>
      </trkpt>
      <trkpt lat="43.39513" lon="5.50738">
        <ele>528.86</ele>
        <time>2012-01-15T12:52:39Z</time>
      </trkpt>
      <trkpt lat="43.39508" lon="5.50733">
        <ele>531.27</ele>
        <time>2012-01-15T12:52:44Z</time>
      </trkpt>
      <trkpt lat="43.39506" lon="5.50732">
        <ele>524.06</ele>
        <time>2012-01-15T12:52:46Z</time>
      </trkpt>
      <trkpt lat="43.39504" lon="5.50732">
        <ele>529.34</ele>
        <time>2012-01-15T12:52:48Z</time>
      </trkpt>
      <trkpt lat="43.39503" lon="5.50732">
        <ele>527.9</ele>
        <time>2012-01-15T12:52:49Z</time>
      </trkpt>
      <trkpt lat="43.39503" lon="5.50731">
        <ele>524.54</ele>
        <time>2012-01-15T12:52:50Z</time>
      </trkpt>
      <trkpt lat="43.39502" lon="5.50731">
        <ele>525.98</ele>
        <time>2012-01-15T12:52:51Z</time>
      </trkpt>
      <trkpt lat="43.395" lon="5.50731">
        <ele>529.34</ele>
        <time>2012-01-15T12:52:54Z</time>
      </trkpt>
      <trkpt lat="43.395" lon="5.50732">
        <ele>528.86</ele>
        <time>2012-01-15T12:52:55Z</time>
      </trkpt>
      <trkpt lat="43.39495" lon="5.50731">
        <ele>527.9</ele>
        <time>2012-01-15T12:53:07Z</time>
      </trkpt>
      <trkpt lat="43.39495" lon="5.50731">
        <ele>528.38</ele>
        <time>2012-01-15T12:53:11Z</time>
      </trkpt>
      <trkpt lat="43.39495" lon="5.50728">
        <ele>527.9</ele>
        <time>2012-01-15T12:53:14Z</time>
      </trkpt>
      <trkpt lat="43.39492" lon="5.50721">
        <ele>528.38</ele>
        <time>2012-01-15T12:53:17Z</time>
      </trkpt>
      <trkpt lat="43.3949" lon="5.50718">
        <ele>526.46</ele>
        <time>2012-01-15T12:53:21Z</time>
      </trkpt>
      <trkpt lat="43.3949" lon="5.50718">
        <ele>525.98</ele>
        <time>2012-01-15T12:53:23Z</time>
      </trkpt>
      <trkpt lat="43.39489" lon="5.50716">
        <ele>525.02</ele>
        <time>2012-01-15T12:53:25Z</time>
      </trkpt>
      <trkpt lat="43.39487" lon="5.50713">
        <ele>523.58</ele>
        <time>2012-01-15T12:53:28Z</time>
      </trkpt>
      <trkpt lat="43.39486" lon="5.5071">
        <ele>525.5</ele>
        <time>2012-01-15T12:53:30Z</time>
      </trkpt>
      <trkpt lat="43.39484" lon="5.5071">
        <ele>523.58</ele>
        <time>2012-01-15T12:53:32Z</time>
      </trkpt>
      <trkpt lat="43.39484" lon="5.5071">
        <ele>522.13</ele>
        <time>2012-01-15T12:53:33Z</time>
      </trkpt>
      <trkpt lat="43.39483" lon="5.50707">
        <ele>522.61</ele>
        <time>2012-01-15T12:53:39Z</time>
      </trkpt>
      <trkpt lat="43.39483" lon="5.50707">
        <ele>523.09</ele>
        <time>2012-01-15T12:53:40Z</time>
      </trkpt>
      <trkpt lat="43.39477" lon="5.50703">
        <ele>521.65</ele>
        <time>2012-01-15T12:53:46Z</time>
      </trkpt>
      <trkpt lat="43.39472" lon="5.50694">
        <ele>519.73</ele>
        <time>2012-01-15T12:53:51Z</time>
      </trkpt>
      <trkpt lat="43.39471" lon="5.50693">
        <ele>520.21</ele>
        <time>2012-01-15T12:53:53Z</time>
      </trkpt>
      <trkpt lat="43.39467" lon="5.50691">
        <ele>518.77</ele>
        <time>2012-01-15T12:53:57Z</time>
      </trkpt>
      <trkpt lat="43.39464" lon="5.50688">
        <ele>516.37</ele>
        <time>2012-01-15T12:54:10Z</time>
      </trkpt>
      <trkpt lat="43.3945" lon="5.50688">
        <ele>516.37</ele>
        <time>2012-01-15T12:54:27Z</time>
      </trkpt>
      <trkpt lat="43.39449" lon="5.5069">
        <ele>517.81</ele>
        <time>2012-01-15T12:54:35Z</time>
      </trkpt>
      <trkpt lat="43.39448" lon="5.50691">
        <ele>516.85</ele>
        <time>2012-01-15T12:54:38Z</time>
      </trkpt>
      <trkpt lat="43.39447" lon="5.50698">
        <ele>516.85</ele>
        <time>2012-01-15T12:54:44Z</time>
      </trkpt>
      <trkpt lat="43.39449" lon="5.507">
        <ele>514.44</ele>
        <time>2012-01-15T12:54:49Z</time>
      </trkpt>
      <trkpt lat="43.39447" lon="5.50703">
        <ele>515.4</ele>
        <time>2012-01-15T12:54:54Z</time>
      </trkpt>
      <trkpt lat="43.39446" lon="5.50705">
        <ele>512.04</ele>
        <time>2012-01-15T12:54:59Z</time>
      </trkpt>
      <trkpt lat="43.39446" lon="5.50706">
        <ele>511.56</ele>
        <time>2012-01-15T12:55:00Z</time>
      </trkpt>
      <trkpt lat="43.39448" lon="5.50708">
        <ele>513.48</ele>
        <time>2012-01-15T12:55:07Z</time>
      </trkpt>
      <trkpt lat="43.39448" lon="5.50713">
        <ele>512.52</ele>
        <time>2012-01-15T12:55:12Z</time>
      </trkpt>
      <trkpt lat="43.39448" lon="5.50716">
        <ele>512.04</ele>
        <time>2012-01-15T12:55:15Z</time>
      </trkpt>
      <trkpt lat="43.39446" lon="5.50718">
        <ele>511.08</ele>
        <time>2012-01-15T12:55:18Z</time>
      </trkpt>
      <trkpt lat="43.39446" lon="5.5072">
        <ele>507.71</ele>
        <time>2012-01-15T12:55:21Z</time>
      </trkpt>
      <trkpt lat="43.39446" lon="5.50721">
        <ele>508.19</ele>
        <time>2012-01-15T12:55:22Z</time>
      </trkpt>
      <trkpt lat="43.39446" lon="5.50724">
        <ele>507.23</ele>
        <time>2012-01-15T12:55:25Z</time>
      </trkpt>
      <trkpt lat="43.39449" lon="5.50728">
        <ele>505.31</ele>
        <time>2012-01-15T12:55:30Z</time>
      </trkpt>
      <trkpt lat="43.39441" lon="5.50731">
        <ele>504.35</ele>
        <time>2012-01-15T12:55:38Z</time>
      </trkpt>
      <trkpt lat="43.39441" lon="5.50732">
        <ele>504.35</ele>
        <time>2012-01-15T12:55:39Z</time>
      </trkpt>
      <trkpt lat="43.39436" lon="5.50733">
        <ele>504.83</ele>
        <time>2012-01-15T12:55:47Z</time>
      </trkpt>
      <trkpt lat="43.39435" lon="5.50732">
        <ele>503.87</ele>
        <time>2012-01-15T12:55:49Z</time>
      </trkpt>
      <trkpt lat="43.39437" lon="5.50735">
        <ele>505.31</ele>
        <time>2012-01-15T12:55:52Z</time>
      </trkpt>
      <trkpt lat="43.39437" lon="5.50737">
        <ele>505.31</ele>
        <time>2012-01-15T12:55:55Z</time>
      </trkpt>
      <trkpt lat="43.39434" lon="5.50738">
        <ele>505.79</ele>
        <time>2012-01-15T12:55:57Z</time>
      </trkpt>
      <trkpt lat="43.39426" lon="5.50743">
        <ele>505.79</ele>
        <time>2012-01-15T12:56:02Z</time>
      </trkpt>
      <trkpt lat="43.39424" lon="5.50744">
        <ele>503.87</ele>
        <time>2012-01-15T12:56:03Z</time>
      </trkpt>
      <trkpt lat="43.39418" lon="5.50745">
        <ele>501.95</ele>
        <time>2012-01-15T12:56:06Z</time>
      </trkpt>
      <trkpt lat="43.39413" lon="5.50749">
        <ele>501.95</ele>
        <time>2012-01-15T12:56:09Z</time>
      </trkpt>
      <trkpt lat="43.39405" lon="5.50753">
        <ele>499.06</ele>
        <time>2012-01-15T12:56:14Z</time>
      </trkpt>
      <trkpt lat="43.39398" lon="5.50751">
        <ele>498.1</ele>
        <time>2012-01-15T12:56:21Z</time>
      </trkpt>
      <trkpt lat="43.39388" lon="5.5074">
        <ele>494.26</ele>
        <time>2012-01-15T12:56:30Z</time>
      </trkpt>
      <trkpt lat="43.39382" lon="5.50738">
        <ele>496.66</ele>
        <time>2012-01-15T12:56:34Z</time>
      </trkpt>
      <trkpt lat="43.39381" lon="5.50738">
        <ele>493.29</ele>
        <time>2012-01-15T12:56:37Z</time>
      </trkpt>
      <trkpt lat="43.39379" lon="5.50738">
        <ele>493.29</ele>
        <time>2012-01-15T12:56:38Z</time>
      </trkpt>
      <trkpt lat="43.39361" lon="5.50725">
        <ele>491.85</ele>
        <time>2012-01-15T12:56:49Z</time>
      </trkpt>
      <trkpt lat="43.39357" lon="5.50722">
        <ele>492.33</ele>
        <time>2012-01-15T12:56:53Z</time>
      </trkpt>
      <trkpt lat="43.39348" lon="5.50707">
        <ele>489.45</ele>
        <time>2012-01-15T12:57:00Z</time>
      </trkpt>
      <trkpt lat="43.39347" lon="5.50705">
        <ele>488.01</ele>
        <time>2012-01-15T12:57:02Z</time>
      </trkpt>
      <trkpt lat="43.39346" lon="5.50703">
        <ele>487.53</ele>
        <time>2012-01-15T12:57:05Z</time>
      </trkpt>
      <trkpt lat="43.39341" lon="5.50698">
        <ele>488.01</ele>
        <time>2012-01-15T12:57:09Z</time>
      </trkpt>
      <trkpt lat="43.39336" lon="5.5069">
        <ele>487.53</ele>
        <time>2012-01-15T12:57:12Z</time>
      </trkpt>
      <trkpt lat="43.39322" lon="5.50669">
        <ele>484.64</ele>
        <time>2012-01-15T12:57:27Z</time>
      </trkpt>
      <trkpt lat="43.39317" lon="5.50658">
        <ele>486.56</ele>
        <time>2012-01-15T12:57:38Z</time>
      </trkpt>
      <trkpt lat="43.39314" lon="5.50653">
        <ele>483.2</ele>
        <time>2012-01-15T12:57:42Z</time>
      </trkpt>
      <trkpt lat="43.39314" lon="5.50654">
        <ele>485.6</ele>
        <time>2012-01-15T12:57:51Z</time>
      </trkpt>
      <trkpt lat="43.39314" lon="5.50651">
        <ele>480.8</ele>
        <time>2012-01-15T12:57:55Z</time>
      </trkpt>
      <trkpt lat="43.39314" lon="5.5065">
        <ele>485.12</ele>
        <time>2012-01-15T12:57:56Z</time>
      </trkpt>
      <trkpt lat="43.39314" lon="5.5065">
        <ele>481.28</ele>
        <time>2012-01-15T12:57:57Z</time>
      </trkpt>
      <trkpt lat="43.39314" lon="5.50649">
        <ele>482.72</ele>
        <time>2012-01-15T12:57:59Z</time>
      </trkpt>
      <trkpt lat="43.39313" lon="5.50646">
        <ele>486.08</ele>
        <time>2012-01-15T12:58:01Z</time>
      </trkpt>
      <trkpt lat="43.3931" lon="5.50645">
        <ele>480.8</ele>
        <time>2012-01-15T12:58:04Z</time>
      </trkpt>
      <trkpt lat="43.39309" lon="5.50643">
        <ele>481.28</ele>
        <time>2012-01-15T12:58:05Z</time>
      </trkpt>
      <trkpt lat="43.39308" lon="5.50641">
        <ele>484.64</ele>
        <time>2012-01-15T12:58:06Z</time>
      </trkpt>
      <trkpt lat="43.39303" lon="5.50632">
        <ele>479.84</ele>
        <time>2012-01-15T12:58:10Z</time>
      </trkpt>
      <trkpt lat="43.39302" lon="5.50631">
        <ele>480.32</ele>
        <time>2012-01-15T12:58:11Z</time>
      </trkpt>
      <trkpt lat="43.39297" lon="5.50626">
        <ele>481.76</ele>
        <time>2012-01-15T12:58:17Z</time>
      </trkpt>
      <trkpt lat="43.39284" lon="5.50602">
        <ele>482.24</ele>
        <time>2012-01-15T12:58:34Z</time>
      </trkpt>
      <trkpt lat="43.39268" lon="5.50591">
        <ele>481.76</ele>
        <time>2012-01-15T12:58:48Z</time>
      </trkpt>
      <trkpt lat="43.39267" lon="5.50593">
        <ele>481.76</ele>
        <time>2012-01-15T12:58:50Z</time>
      </trkpt>
      <trkpt lat="43.39258" lon="5.50588">
        <ele>481.76</ele>
        <time>2012-01-15T12:58:58Z</time>
      </trkpt>
      <trkpt lat="43.39245" lon="5.50588">
        <ele>482.24</ele>
        <time>2012-01-15T12:59:07Z</time>
      </trkpt>
      <trkpt lat="43.39243" lon="5.50584">
        <ele>484.16</ele>
        <time>2012-01-15T12:59:15Z</time>
      </trkpt>
      <trkpt lat="43.39242" lon="5.50584">
        <ele>482.24</ele>
        <time>2012-01-15T12:59:17Z</time>
      </trkpt>
      <trkpt lat="43.39238" lon="5.50584">
        <ele>482.24</ele>
        <time>2012-01-15T12:59:29Z</time>
      </trkpt>
      <trkpt lat="43.39234" lon="5.50588">
        <ele>482.72</ele>
        <time>2012-01-15T12:59:34Z</time>
      </trkpt>
      <trkpt lat="43.39222" lon="5.50578">
        <ele>480.8</ele>
        <time>2012-01-15T12:59:43Z</time>
      </trkpt>
      <trkpt lat="43.3922" lon="5.50563">
        <ele>479.84</ele>
        <time>2012-01-15T12:59:51Z</time>
      </trkpt>
      <trkpt lat="43.39217" lon="5.50555">
        <ele>482.72</ele>
        <time>2012-01-15T12:59:58Z</time>
      </trkpt>
      <trkpt lat="43.39216" lon="5.50546">
        <ele>482.24</ele>
        <time>2012-01-15T13:00:02Z</time>
      </trkpt>
      <trkpt lat="43.39213" lon="5.50539">
        <ele>481.28</ele>
        <time>2012-01-15T13:00:07Z</time>
      </trkpt>
      <trkpt lat="43.39207" lon="5.50527">
        <ele>478.87</ele>
        <time>2012-01-15T13:00:16Z</time>
      </trkpt>
      <trkpt lat="43.39204" lon="5.50529">
        <ele>477.91</ele>
        <time>2012-01-15T13:00:18Z</time>
      </trkpt>
      <trkpt lat="43.39195" lon="5.50529">
        <ele>478.39</ele>
        <time>2012-01-15T13:00:23Z</time>
      </trkpt>
      <trkpt lat="43.39189" lon="5.5053">
        <ele>474.07</ele>
        <time>2012-01-15T13:00:28Z</time>
      </trkpt>
      <trkpt lat="43.39189" lon="5.5053">
        <ele>474.07</ele>
        <time>2012-01-15T13:00:29Z</time>
      </trkpt>
      <trkpt lat="43.3918" lon="5.50526">
        <ele>469.26</ele>
        <time>2012-01-15T13:00:36Z</time>
      </trkpt>
      <trkpt lat="43.39171" lon="5.50524">
        <ele>468.78</ele>
        <time>2012-01-15T13:00:40Z</time>
      </trkpt>
      <trkpt lat="43.39159" lon="5.50519">
        <ele>466.38</ele>
        <time>2012-01-15T13:00:45Z</time>
      </trkpt>
      <trkpt lat="43.39142" lon="5.50513">
        <ele>461.09</ele>
        <time>2012-01-15T13:00:53Z</time>
      </trkpt>
      <trkpt lat="43.39135" lon="5.50508">
        <ele>464.45</ele>
        <time>2012-01-15T13:00:56Z</time>
      </trkpt>
      <trkpt lat="43.39127" lon="5.50502">
        <ele>461.09</ele>
        <time>2012-01-15T13:00:59Z</time>
      </trkpt>
      <trkpt lat="43.39095" lon="5.50498">
        <ele>457.72</ele>
        <time>2012-01-15T13:01:11Z</time>
      </trkpt>
      <trkpt lat="43.39093" lon="5.50499">
        <ele>457.24</ele>
        <time>2012-01-15T13:01:12Z</time>
      </trkpt>
      <trkpt lat="43.39087" lon="5.50499">
        <ele>456.28</ele>
        <time>2012-01-15T13:01:14Z</time>
      </trkpt>
      <trkpt lat="43.39074" lon="5.50492">
        <ele>454.84</ele>
        <time>2012-01-15T13:01:19Z</time>
      </trkpt>
      <trkpt lat="43.39055" lon="5.50481">
        <ele>451.48</ele>
        <time>2012-01-15T13:01:26Z</time>
      </trkpt>
      <trkpt lat="43.39044" lon="5.50482">
        <ele>446.67</ele>
        <time>2012-01-15T13:01:30Z</time>
      </trkpt>
      <trkpt lat="43.39039" lon="5.50482">
        <ele>450.03</ele>
        <time>2012-01-15T13:01:32Z</time>
      </trkpt>
      <trkpt lat="43.39037" lon="5.50481">
        <ele>446.67</ele>
        <time>2012-01-15T13:01:33Z</time>
      </trkpt>
      <trkpt lat="43.39023" lon="5.50469">
        <ele>446.67</ele>
        <time>2012-01-15T13:01:39Z</time>
      </trkpt>
      <trkpt lat="43.39005" lon="5.50453">
        <ele>442.82</ele>
        <time>2012-01-15T13:01:46Z</time>
      </trkpt>
      <trkpt lat="43.39004" lon="5.50456">
        <ele>444.75</ele>
        <time>2012-01-15T13:01:49Z</time>
      </trkpt>
      <trkpt lat="43.39003" lon="5.50457">
        <ele>442.82</ele>
        <time>2012-01-15T13:01:50Z</time>
      </trkpt>
      <trkpt lat="43.39" lon="5.50462">
        <ele>441.38</ele>
        <time>2012-01-15T13:01:56Z</time>
      </trkpt>
      <trkpt lat="43.39" lon="5.50462">
        <ele>442.34</ele>
        <time>2012-01-15T13:02:00Z</time>
      </trkpt>
      <trkpt lat="43.38997" lon="5.5047">
        <ele>440.9</ele>
        <time>2012-01-15T13:02:05Z</time>
      </trkpt>
      <trkpt lat="43.38988" lon="5.50474">
        <ele>438.98</ele>
        <time>2012-01-15T13:02:10Z</time>
      </trkpt>
      <trkpt lat="43.38973" lon="5.50467">
        <ele>437.06</ele>
        <time>2012-01-15T13:02:15Z</time>
      </trkpt>
      <trkpt lat="43.38937" lon="5.50437">
        <ele>436.58</ele>
        <time>2012-01-15T13:02:30Z</time>
      </trkpt>
      <trkpt lat="43.38932" lon="5.50432">
        <ele>435.13</ele>
        <time>2012-01-15T13:02:32Z</time>
      </trkpt>
      <trkpt lat="43.38906" lon="5.50413">
        <ele>434.17</ele>
        <time>2012-01-15T13:02:43Z</time>
      </trkpt>
      <trkpt lat="43.38882" lon="5.50381">
        <ele>433.69</ele>
        <time>2012-01-15T13:02:56Z</time>
      </trkpt>
      <trkpt lat="43.38873" lon="5.5037">
        <ele>432.73</ele>
        <time>2012-01-15T13:03:01Z</time>
      </trkpt>
      <trkpt lat="43.38865" lon="5.50361">
        <ele>432.73</ele>
        <time>2012-01-15T13:03:05Z</time>
      </trkpt>
      <trkpt lat="43.38839" lon="5.50322">
        <ele>431.29</ele>
        <time>2012-01-15T13:03:18Z</time>
      </trkpt>
      <trkpt lat="43.3883" lon="5.50306">
        <ele>427.92</ele>
        <time>2012-01-15T13:03:23Z</time>
      </trkpt>
      <trkpt lat="43.38825" lon="5.50295">
        <ele>429.85</ele>
        <time>2012-01-15T13:03:26Z</time>
      </trkpt>
      <trkpt lat="43.38819" lon="5.50279">
        <ele>426</ele>
        <time>2012-01-15T13:03:31Z</time>
      </trkpt>
      <trkpt lat="43.38801" lon="5.50234">
        <ele>424.08</ele>
        <time>2012-01-15T13:03:43Z</time>
      </trkpt>
      <trkpt lat="43.38783" lon="5.50194">
        <ele>419.75</ele>
        <time>2012-01-15T13:03:53Z</time>
      </trkpt>
      <trkpt lat="43.38767" lon="5.50163">
        <ele>418.79</ele>
        <time>2012-01-15T13:04:01Z</time>
      </trkpt>
      <trkpt lat="43.38758" lon="5.50142">
        <ele>419.75</ele>
        <time>2012-01-15T13:04:06Z</time>
      </trkpt>
      <trkpt lat="43.38756" lon="5.50137">
        <ele>419.75</ele>
        <time>2012-01-15T13:04:07Z</time>
      </trkpt>
      <trkpt lat="43.38752" lon="5.50129">
        <ele>417.83</ele>
        <time>2012-01-15T13:04:09Z</time>
      </trkpt>
      <trkpt lat="43.38746" lon="5.50123">
        <ele>414.95</ele>
        <time>2012-01-15T13:04:11Z</time>
      </trkpt>
      <trkpt lat="43.38726" lon="5.50092">
        <ele>413.5</ele>
        <time>2012-01-15T13:04:20Z</time>
      </trkpt>
      <trkpt lat="43.38705" lon="5.50061">
        <ele>412.54</ele>
        <time>2012-01-15T13:04:30Z</time>
      </trkpt>
      <trkpt lat="43.38697" lon="5.50051">
        <ele>411.1</ele>
        <time>2012-01-15T13:04:34Z</time>
      </trkpt>
      <trkpt lat="43.38693" lon="5.50046">
        <ele>412.06</ele>
        <time>2012-01-15T13:04:36Z</time>
      </trkpt>
      <trkpt lat="43.38678" lon="5.50033">
        <ele>410.14</ele>
        <time>2012-01-15T13:04:42Z</time>
      </trkpt>
      <trkpt lat="43.38647" lon="5.50019">
        <ele>406.77</ele>
        <time>2012-01-15T13:04:52Z</time>
      </trkpt>
      <trkpt lat="43.38615" lon="5.50016">
        <ele>403.41</ele>
        <time>2012-01-15T13:05:02Z</time>
      </trkpt>
      <trkpt lat="43.38612" lon="5.50016">
        <ele>403.41</ele>
        <time>2012-01-15T13:05:03Z</time>
      </trkpt>
      <trkpt lat="43.38589" lon="5.50024">
        <ele>400.05</ele>
        <time>2012-01-15T13:05:10Z</time>
      </trkpt>
      <trkpt lat="43.38587" lon="5.50028">
        <ele>400.05</ele>
        <time>2012-01-15T13:05:11Z</time>
      </trkpt>
      <trkpt lat="43.38586" lon="5.50033">
        <ele>399.57</ele>
        <time>2012-01-15T13:05:12Z</time>
      </trkpt>
      <trkpt lat="43.38584" lon="5.50037">
        <ele>400.53</ele>
        <time>2012-01-15T13:05:13Z</time>
      </trkpt>
      <trkpt lat="43.38582" lon="5.5004">
        <ele>399.57</ele>
        <time>2012-01-15T13:05:14Z</time>
      </trkpt>
      <trkpt lat="43.38579" lon="5.50044">
        <ele>399.08</ele>
        <time>2012-01-15T13:05:15Z</time>
      </trkpt>
      <trkpt lat="43.38577" lon="5.50047">
        <ele>399.08</ele>
        <time>2012-01-15T13:05:16Z</time>
      </trkpt>
      <trkpt lat="43.38575" lon="5.5005">
        <ele>399.08</ele>
        <time>2012-01-15T13:05:17Z</time>
      </trkpt>
      <trkpt lat="43.38573" lon="5.50053">
        <ele>399.08</ele>
        <time>2012-01-15T13:05:18Z</time>
      </trkpt>
      <trkpt lat="43.38566" lon="5.5007">
        <ele>397.16</ele>
        <time>2012-01-15T13:05:22Z</time>
      </trkpt>
      <trkpt lat="43.38556" lon="5.50095">
        <ele>397.16</ele>
        <time>2012-01-15T13:05:28Z</time>
      </trkpt>
      <trkpt lat="43.38552" lon="5.50103">
        <ele>394.76</ele>
        <time>2012-01-15T13:05:30Z</time>
      </trkpt>
      <trkpt lat="43.38509" lon="5.50143">
        <ele>392.84</ele>
        <time>2012-01-15T13:05:46Z</time>
      </trkpt>
      <trkpt lat="43.38498" lon="5.50142">
        <ele>394.28</ele>
        <time>2012-01-15T13:05:50Z</time>
      </trkpt>
      <trkpt lat="43.3849" lon="5.50141">
        <ele>394.28</ele>
        <time>2012-01-15T13:05:53Z</time>
      </trkpt>
      <trkpt lat="43.38487" lon="5.50141">
        <ele>392.84</ele>
        <time>2012-01-15T13:05:54Z</time>
      </trkpt>
      <trkpt lat="43.38485" lon="5.50141">
        <ele>393.32</ele>
        <time>2012-01-15T13:05:55Z</time>
      </trkpt>
      <trkpt lat="43.38483" lon="5.50141">
        <ele>393.32</ele>
        <time>2012-01-15T13:05:56Z</time>
      </trkpt>
      <trkpt lat="43.38481" lon="5.50142">
        <ele>392.84</ele>
        <time>2012-01-15T13:05:57Z</time>
      </trkpt>
      <trkpt lat="43.38478" lon="5.50142">
        <ele>392.36</ele>
        <time>2012-01-15T13:05:58Z</time>
      </trkpt>
      <trkpt lat="43.38475" lon="5.50143">
        <ele>392.36</ele>
        <time>2012-01-15T13:05:59Z</time>
      </trkpt>
      <trkpt lat="43.38473" lon="5.50144">
        <ele>393.32</ele>
        <time>2012-01-15T13:06:00Z</time>
      </trkpt>
      <trkpt lat="43.3847" lon="5.50145">
        <ele>392.36</ele>
        <time>2012-01-15T13:06:01Z</time>
      </trkpt>
      <trkpt lat="43.38438" lon="5.50151">
        <ele>393.32</ele>
        <time>2012-01-15T13:06:14Z</time>
      </trkpt>
      <trkpt lat="43.3843" lon="5.5015">
        <ele>391.39</ele>
        <time>2012-01-15T13:06:17Z</time>
      </trkpt>
      <trkpt lat="43.38392" lon="5.50152">
        <ele>388.51</ele>
        <time>2012-01-15T13:06:30Z</time>
      </trkpt>
      <trkpt lat="43.38369" lon="5.50166">
        <ele>387.55</ele>
        <time>2012-01-15T13:06:38Z</time>
      </trkpt>
      <trkpt lat="43.38316" lon="5.50159">
        <ele>385.63</ele>
        <time>2012-01-15T13:06:56Z</time>
      </trkpt>
      <trkpt lat="43.38271" lon="5.50132">
        <ele>385.15</ele>
        <time>2012-01-15T13:07:12Z</time>
      </trkpt>
      <trkpt lat="43.38221" lon="5.50118">
        <ele>381.78</ele>
        <time>2012-01-15T13:07:28Z</time>
      </trkpt>
      <trkpt lat="43.38171" lon="5.50079">
        <ele>377.94</ele>
        <time>2012-01-15T13:07:45Z</time>
      </trkpt>
      <trkpt lat="43.38116" lon="5.5005">
        <ele>375.53</ele>
        <time>2012-01-15T13:08:01Z</time>
      </trkpt>
      <trkpt lat="43.38104" lon="5.50042">
        <ele>375.05</ele>
        <time>2012-01-15T13:08:05Z</time>
      </trkpt>
      <trkpt lat="43.38067" lon="5.5003">
        <ele>372.65</ele>
        <time>2012-01-15T13:08:17Z</time>
      </trkpt>
      <trkpt lat="43.38019" lon="5.50008">
        <ele>370.73</ele>
        <time>2012-01-15T13:08:34Z</time>
      </trkpt>
      <trkpt lat="43.37977" lon="5.49998">
        <ele>366.88</ele>
        <time>2012-01-15T13:08:47Z</time>
      </trkpt>
      <trkpt lat="43.37949" lon="5.49992">
        <ele>363.04</ele>
        <time>2012-01-15T13:08:56Z</time>
      </trkpt>
      <trkpt lat="43.37909" lon="5.49992">
        <ele>359.67</ele>
        <time>2012-01-15T13:09:08Z</time>
      </trkpt>
      <trkpt lat="43.37874" lon="5.50028">
        <ele>356.79</ele>
        <time>2012-01-15T13:09:21Z</time>
      </trkpt>
      <trkpt lat="43.37849" lon="5.50053">
        <ele>353.42</ele>
        <time>2012-01-15T13:09:31Z</time>
      </trkpt>
      <trkpt lat="43.37831" lon="5.50061">
        <ele>352.46</ele>
        <time>2012-01-15T13:09:39Z</time>
      </trkpt>
      <trkpt lat="43.37807" lon="5.50074">
        <ele>349.1</ele>
        <time>2012-01-15T13:09:48Z</time>
      </trkpt>
      <trkpt lat="43.37766" lon="5.50077">
        <ele>348.13</ele>
        <time>2012-01-15T13:10:02Z</time>
      </trkpt>
      <trkpt lat="43.37739" lon="5.50083">
        <ele>344.29</ele>
        <time>2012-01-15T13:10:11Z</time>
      </trkpt>
      <trkpt lat="43.37696" lon="5.50068">
        <ele>339.96</ele>
        <time>2012-01-15T13:10:25Z</time>
      </trkpt>
      <trkpt lat="43.37631" lon="5.50034">
        <ele>337.56</ele>
        <time>2012-01-15T13:10:46Z</time>
      </trkpt>
      <trkpt lat="43.37628" lon="5.50032">
        <ele>337.56</ele>
        <time>2012-01-15T13:10:47Z</time>
      </trkpt>
      <trkpt lat="43.37581" lon="5.50001">
        <ele>338.04</ele>
        <time>2012-01-15T13:11:04Z</time>
      </trkpt>
      <trkpt lat="43.3756" lon="5.49951">
        <ele>335.64</ele>
        <time>2012-01-15T13:11:18Z</time>
      </trkpt>
      <trkpt lat="43.37544" lon="5.49915">
        <ele>335.16</ele>
        <time>2012-01-15T13:11:29Z</time>
      </trkpt>
      <trkpt lat="43.37519" lon="5.49871">
        <ele>335.64</ele>
        <time>2012-01-15T13:11:44Z</time>
      </trkpt>
      <trkpt lat="43.37502" lon="5.49855">
        <ele>334.68</ele>
        <time>2012-01-15T13:11:57Z</time>
      </trkpt>
      <trkpt lat="43.375" lon="5.49854">
        <ele>334.68</ele>
        <time>2012-01-15T13:11:58Z</time>
      </trkpt>
      <trkpt lat="43.37499" lon="5.49853">
        <ele>335.64</ele>
        <time>2012-01-15T13:11:59Z</time>
      </trkpt>
      <trkpt lat="43.37488" lon="5.49855">
        <ele>335.64</ele>
        <time>2012-01-15T13:12:12Z</time>
      </trkpt>
      <trkpt lat="43.37481" lon="5.49851">
        <ele>335.64</ele>
        <time>2012-01-15T13:12:16Z</time>
      </trkpt>
      <trkpt lat="43.37454" lon="5.4984">
        <ele>335.64</ele>
        <time>2012-01-15T13:12:34Z</time>
      </trkpt>
      <trkpt lat="43.37436" lon="5.49835">
        <ele>332.27</ele>
        <time>2012-01-15T13:12:47Z</time>
      </trkpt>
      <trkpt lat="43.37432" lon="5.49832">
        <ele>333.23</ele>
        <time>2012-01-15T13:12:51Z</time>
      </trkpt>
      <trkpt lat="43.37426" lon="5.49831">
        <ele>332.27</ele>
        <time>2012-01-15T13:12:56Z</time>
      </trkpt>
      <trkpt lat="43.37425" lon="5.49832">
        <ele>332.75</ele>
        <time>2012-01-15T13:13:01Z</time>
      </trkpt>
      <trkpt lat="43.37415" lon="5.49835">
        <ele>331.79</ele>
        <time>2012-01-15T13:13:09Z</time>
      </trkpt>
      <trkpt lat="43.37399" lon="5.49831">
        <ele>329.39</ele>
        <time>2012-01-15T13:13:20Z</time>
      </trkpt>
      <trkpt lat="43.3739" lon="5.49826">
        <ele>326.99</ele>
        <time>2012-01-15T13:13:30Z</time>
      </trkpt>
      <trkpt lat="43.37383" lon="5.49822">
        <ele>325.06</ele>
        <time>2012-01-15T13:13:34Z</time>
      </trkpt>
      <trkpt lat="43.37378" lon="5.49822">
        <ele>326.5</ele>
        <time>2012-01-15T13:13:37Z</time>
      </trkpt>
      <trkpt lat="43.37377" lon="5.49822">
        <ele>325.06</ele>
        <time>2012-01-15T13:13:39Z</time>
      </trkpt>
      <trkpt lat="43.37377" lon="5.49822">
        <ele>324.58</ele>
        <time>2012-01-15T13:13:40Z</time>
      </trkpt>
      <trkpt lat="43.37359" lon="5.4982">
        <ele>321.7</ele>
        <time>2012-01-15T13:13:52Z</time>
      </trkpt>
      <trkpt lat="43.3735" lon="5.49814">
        <ele>320.74</ele>
        <time>2012-01-15T13:13:57Z</time>
      </trkpt>
      <trkpt lat="43.37334" lon="5.49815">
        <ele>320.26</ele>
        <time>2012-01-15T13:14:10Z</time>
      </trkpt>
      <trkpt lat="43.3733" lon="5.49816">
        <ele>317.85</ele>
        <time>2012-01-15T13:14:18Z</time>
      </trkpt>
      <trkpt lat="43.37304" lon="5.49814">
        <ele>316.89</ele>
        <time>2012-01-15T13:14:30Z</time>
      </trkpt>
      <trkpt lat="43.373" lon="5.49812">
        <ele>314.97</ele>
        <time>2012-01-15T13:14:35Z</time>
      </trkpt>
      <trkpt lat="43.37291" lon="5.49806">
        <ele>314.49</ele>
        <time>2012-01-15T13:14:40Z</time>
      </trkpt>
      <trkpt lat="43.37277" lon="5.49804">
        <ele>314.97</ele>
        <time>2012-01-15T13:14:53Z</time>
      </trkpt>
      <trkpt lat="43.37265" lon="5.49794">
        <ele>314.49</ele>
        <time>2012-01-15T13:15:02Z</time>
      </trkpt>
      <trkpt lat="43.37255" lon="5.49786">
        <ele>314.01</ele>
        <time>2012-01-15T13:15:08Z</time>
      </trkpt>
      <trkpt lat="43.37251" lon="5.49781">
        <ele>312.09</ele>
        <time>2012-01-15T13:15:15Z</time>
      </trkpt>
      <trkpt lat="43.37242" lon="5.49774">
        <ele>312.57</ele>
        <time>2012-01-15T13:15:21Z</time>
      </trkpt>
      <trkpt lat="43.37239" lon="5.49774">
        <ele>310.16</ele>
        <time>2012-01-15T13:15:24Z</time>
      </trkpt>
      <trkpt lat="43.37237" lon="5.49773">
        <ele>311.6</ele>
        <time>2012-01-15T13:15:27Z</time>
      </trkpt>
      <trkpt lat="43.37235" lon="5.49773">
        <ele>310.64</ele>
        <time>2012-01-15T13:15:29Z</time>
      </trkpt>
      <trkpt lat="43.37234" lon="5.49773">
        <ele>305.84</ele>
        <time>2012-01-15T13:15:30Z</time>
      </trkpt>
      <trkpt lat="43.37234" lon="5.49773">
        <ele>311.12</ele>
        <time>2012-01-15T13:15:31Z</time>
      </trkpt>
      <trkpt lat="43.37234" lon="5.49775">
        <ele>311.12</ele>
        <time>2012-01-15T13:15:33Z</time>
      </trkpt>
      <trkpt lat="43.37229" lon="5.49779">
        <ele>312.57</ele>
        <time>2012-01-15T13:15:37Z</time>
      </trkpt>
      <trkpt lat="43.37228" lon="5.4978">
        <ele>310.64</ele>
        <time>2012-01-15T13:15:39Z</time>
      </trkpt>
      <trkpt lat="43.37225" lon="5.49779">
        <ele>313.05</ele>
        <time>2012-01-15T13:15:41Z</time>
      </trkpt>
      <trkpt lat="43.3722" lon="5.4978">
        <ele>311.12</ele>
        <time>2012-01-15T13:15:44Z</time>
      </trkpt>
      <trkpt lat="43.37217" lon="5.49784">
        <ele>311.6</ele>
        <time>2012-01-15T13:15:48Z</time>
      </trkpt>
      <trkpt lat="43.37209" lon="5.49795">
        <ele>313.05</ele>
        <time>2012-01-15T13:15:58Z</time>
      </trkpt>
      <trkpt lat="43.37188" lon="5.49793">
        <ele>314.01</ele>
        <time>2012-01-15T13:16:12Z</time>
      </trkpt>
      <trkpt lat="43.37185" lon="5.49791">
        <ele>313.05</ele>
        <time>2012-01-15T13:16:14Z</time>
      </trkpt>
      <trkpt lat="43.37185" lon="5.49791">
        <ele>314.01</ele>
        <time>2012-01-15T13:16:16Z</time>
      </trkpt>
      <trkpt lat="43.37178" lon="5.49791">
        <ele>314.01</ele>
        <time>2012-01-15T13:16:22Z</time>
      </trkpt>
      <trkpt lat="43.37173" lon="5.49791">
        <ele>315.93</ele>
        <time>2012-01-15T13:16:26Z</time>
      </trkpt>
      <trkpt lat="43.37169" lon="5.4979">
        <ele>315.45</ele>
        <time>2012-01-15T13:16:31Z</time>
      </trkpt>
      <trkpt lat="43.37163" lon="5.49787">
        <ele>316.41</ele>
        <time>2012-01-15T13:16:35Z</time>
      </trkpt>
      <trkpt lat="43.37156" lon="5.49791">
        <ele>318.81</ele>
        <time>2012-01-15T13:16:41Z</time>
      </trkpt>
      <trkpt lat="43.37148" lon="5.49791">
        <ele>318.33</ele>
        <time>2012-01-15T13:16:50Z</time>
      </trkpt>
      <trkpt lat="43.37143" lon="5.49785">
        <ele>317.85</ele>
        <time>2012-01-15T13:16:54Z</time>
      </trkpt>
      <trkpt lat="43.37135" lon="5.49775">
        <ele>320.74</ele>
        <time>2012-01-15T13:17:03Z</time>
      </trkpt>
      <trkpt lat="43.37127" lon="5.49768">
        <ele>319.3</ele>
        <time>2012-01-15T13:17:12Z</time>
      </trkpt>
      <trkpt lat="43.37123" lon="5.49763">
        <ele>320.26</ele>
        <time>2012-01-15T13:17:16Z</time>
      </trkpt>
      <trkpt lat="43.37115" lon="5.49753">
        <ele>321.7</ele>
        <time>2012-01-15T13:17:25Z</time>
      </trkpt>
      <trkpt lat="43.37103" lon="5.4975">
        <ele>321.7</ele>
        <time>2012-01-15T13:17:32Z</time>
      </trkpt>
      <trkpt lat="43.37087" lon="5.49745">
        <ele>320.26</ele>
        <time>2012-01-15T13:17:46Z</time>
      </trkpt>
      <trkpt lat="43.37079" lon="5.49742">
        <ele>318.81</ele>
        <time>2012-01-15T13:17:51Z</time>
      </trkpt>
      <trkpt lat="43.37077" lon="5.49742">
        <ele>320.74</ele>
        <time>2012-01-15T13:17:54Z</time>
      </trkpt>
      <trkpt lat="43.37072" lon="5.49739">
        <ele>318.81</ele>
        <time>2012-01-15T13:17:57Z</time>
      </trkpt>
      <trkpt lat="43.37068" lon="5.49738">
        <ele>320.26</ele>
        <time>2012-01-15T13:17:59Z</time>
      </trkpt>
      <trkpt lat="43.37066" lon="5.49737">
        <ele>317.85</ele>
        <time>2012-01-15T13:18:01Z</time>
      </trkpt>
      <trkpt lat="43.3706" lon="5.49738">
        <ele>316.89</ele>
        <time>2012-01-15T13:18:06Z</time>
      </trkpt>
      <trkpt lat="43.37058" lon="5.49738">
        <ele>316.89</ele>
        <time>2012-01-15T13:18:07Z</time>
      </trkpt>
      <trkpt lat="43.37054" lon="5.49737">
        <ele>315.45</ele>
        <time>2012-01-15T13:18:10Z</time>
      </trkpt>
      <trkpt lat="43.37052" lon="5.49737">
        <ele>314.01</ele>
        <time>2012-01-15T13:18:12Z</time>
      </trkpt>
      <trkpt lat="43.3705" lon="5.49737">
        <ele>317.85</ele>
        <time>2012-01-15T13:18:13Z</time>
      </trkpt>
      <trkpt lat="43.37048" lon="5.49737">
        <ele>315.93</ele>
        <time>2012-01-15T13:18:14Z</time>
      </trkpt>
      <trkpt lat="43.37039" lon="5.49735">
        <ele>314.01</ele>
        <time>2012-01-15T13:18:22Z</time>
      </trkpt>
      <trkpt lat="43.37027" lon="5.49736">
        <ele>306.32</ele>
        <time>2012-01-15T13:18:32Z</time>
      </trkpt>
      <trkpt lat="43.37026" lon="5.49736">
        <ele>311.12</ele>
        <time>2012-01-15T13:18:33Z</time>
      </trkpt>
      <trkpt lat="43.37024" lon="5.49736">
        <ele>314.01</ele>
        <time>2012-01-15T13:18:34Z</time>
      </trkpt>
      <trkpt lat="43.37023" lon="5.49735">
        <ele>312.09</ele>
        <time>2012-01-15T13:18:35Z</time>
      </trkpt>
      <trkpt lat="43.37009" lon="5.49732">
        <ele>308.72</ele>
        <time>2012-01-15T13:18:45Z</time>
      </trkpt>
      <trkpt lat="43.37001" lon="5.49731">
        <ele>311.12</ele>
        <time>2012-01-15T13:18:49Z</time>
      </trkpt>
      <trkpt lat="43.36984" lon="5.49749">
        <ele>308.24</ele>
        <time>2012-01-15T13:19:03Z</time>
      </trkpt>
      <trkpt lat="43.36984" lon="5.49751">
        <ele>306.8</ele>
        <time>2012-01-15T13:19:07Z</time>
      </trkpt>
      <trkpt lat="43.3697" lon="5.49768">
        <ele>305.36</ele>
        <time>2012-01-15T13:19:16Z</time>
      </trkpt>
      <trkpt lat="43.36966" lon="5.49774">
        <ele>305.36</ele>
        <time>2012-01-15T13:19:24Z</time>
      </trkpt>
      <trkpt lat="43.36963" lon="5.49777">
        <ele>302.47</ele>
        <time>2012-01-15T13:19:27Z</time>
      </trkpt>
      <trkpt lat="43.36944" lon="5.49787">
        <ele>301.03</ele>
        <time>2012-01-15T13:19:39Z</time>
      </trkpt>
      <trkpt lat="43.36944" lon="5.49787">
        <ele>300.07</ele>
        <time>2012-01-15T13:19:43Z</time>
      </trkpt>
      <trkpt lat="43.36931" lon="5.49788">
        <ele>300.07</ele>
        <time>2012-01-15T13:19:53Z</time>
      </trkpt>
      <trkpt lat="43.36919" lon="5.49787">
        <ele>297.67</ele>
        <time>2012-01-15T13:20:00Z</time>
      </trkpt>
      <trkpt lat="43.36918" lon="5.49788">
        <ele>298.63</ele>
        <time>2012-01-15T13:20:02Z</time>
      </trkpt>
      <trkpt lat="43.36905" lon="5.49783">
        <ele>294.78</ele>
        <time>2012-01-15T13:20:08Z</time>
      </trkpt>
      <trkpt lat="43.36897" lon="5.4978">
        <ele>294.3</ele>
        <time>2012-01-15T13:20:14Z</time>
      </trkpt>
      <trkpt lat="43.36892" lon="5.49777">
        <ele>290.94</ele>
        <time>2012-01-15T13:20:22Z</time>
      </trkpt>
      <trkpt lat="43.3689" lon="5.49777">
        <ele>293.82</ele>
        <time>2012-01-15T13:20:25Z</time>
      </trkpt>
      <trkpt lat="43.36881" lon="5.49762">
        <ele>290.94</ele>
        <time>2012-01-15T13:20:32Z</time>
      </trkpt>
      <trkpt lat="43.36875" lon="5.49751">
        <ele>291.42</ele>
        <time>2012-01-15T13:20:36Z</time>
      </trkpt>
      <trkpt lat="43.36873" lon="5.49726">
        <ele>289.97</ele>
        <time>2012-01-15T13:20:51Z</time>
      </trkpt>
      <trkpt lat="43.36873" lon="5.49725">
        <ele>288.53</ele>
        <time>2012-01-15T13:20:57Z</time>
      </trkpt>
      <trkpt lat="43.36867" lon="5.49716">
        <ele>286.13</ele>
        <time>2012-01-15T13:21:02Z</time>
      </trkpt>
      <trkpt lat="43.36857" lon="5.49702">
        <ele>284.69</ele>
        <time>2012-01-15T13:21:08Z</time>
      </trkpt>
      <trkpt lat="43.36856" lon="5.49697">
        <ele>284.69</ele>
        <time>2012-01-15T13:21:13Z</time>
      </trkpt>
      <trkpt lat="43.36851" lon="5.49684">
        <ele>283.25</ele>
        <time>2012-01-15T13:21:22Z</time>
      </trkpt>
      <trkpt lat="43.36831" lon="5.49677">
        <ele>282.28</ele>
        <time>2012-01-15T13:21:36Z</time>
      </trkpt>
      <trkpt lat="43.36825" lon="5.49675">
        <ele>281.32</ele>
        <time>2012-01-15T13:21:43Z</time>
      </trkpt>
      <trkpt lat="43.36809" lon="5.49683">
        <ele>280.36</ele>
        <time>2012-01-15T13:21:56Z</time>
      </trkpt>
      <trkpt lat="43.3679" lon="5.49692">
        <ele>278.92</ele>
        <time>2012-01-15T13:22:09Z</time>
      </trkpt>
      <trkpt lat="43.36787" lon="5.49694">
        <ele>278.44</ele>
        <time>2012-01-15T13:22:13Z</time>
      </trkpt>
      <trkpt lat="43.36768" lon="5.49708">
        <ele>279.4</ele>
        <time>2012-01-15T13:22:27Z</time>
      </trkpt>
      <trkpt lat="43.36764" lon="5.49712">
        <ele>278.92</ele>
        <time>2012-01-15T13:22:33Z</time>
      </trkpt>
      <trkpt lat="43.36752" lon="5.49718">
        <ele>277</ele>
        <time>2012-01-15T13:22:42Z</time>
      </trkpt>
      <trkpt lat="43.3673" lon="5.49718">
        <ele>277.48</ele>
        <time>2012-01-15T13:22:57Z</time>
      </trkpt>
      <trkpt lat="43.36717" lon="5.49718">
        <ele>277.96</ele>
        <time>2012-01-15T13:23:10Z</time>
      </trkpt>
      <trkpt lat="43.36707" lon="5.49717">
        <ele>277.96</ele>
        <time>2012-01-15T13:23:18Z</time>
      </trkpt>
      <trkpt lat="43.36698" lon="5.49713">
        <ele>274.59</ele>
        <time>2012-01-15T13:23:24Z</time>
      </trkpt>
      <trkpt lat="43.36696" lon="5.49712">
        <ele>277</ele>
        <time>2012-01-15T13:23:26Z</time>
      </trkpt>
      <trkpt lat="43.36689" lon="5.4971">
        <ele>277.96</ele>
        <time>2012-01-15T13:23:32Z</time>
      </trkpt>
      <trkpt lat="43.36675" lon="5.49704">
        <ele>276.52</ele>
        <time>2012-01-15T13:23:45Z</time>
      </trkpt>
      <trkpt lat="43.36664" lon="5.49696">
        <ele>274.11</ele>
        <time>2012-01-15T13:23:55Z</time>
      </trkpt>
      <trkpt lat="43.36655" lon="5.4969">
        <ele>273.63</ele>
        <time>2012-01-15T13:24:02Z</time>
      </trkpt>
      <trkpt lat="43.3665" lon="5.4969">
        <ele>272.19</ele>
        <time>2012-01-15T13:24:06Z</time>
      </trkpt>
      <trkpt lat="43.36646" lon="5.49692">
        <ele>269.79</ele>
        <time>2012-01-15T13:24:12Z</time>
      </trkpt>
      <trkpt lat="43.36644" lon="5.49693">
        <ele>269.79</ele>
        <time>2012-01-15T13:24:16Z</time>
      </trkpt>
      <trkpt lat="43.3664" lon="5.49694">
        <ele>265.46</ele>
        <time>2012-01-15T13:24:19Z</time>
      </trkpt>
      <trkpt lat="43.36638" lon="5.49693">
        <ele>265.94</ele>
        <time>2012-01-15T13:24:20Z</time>
      </trkpt>
      <trkpt lat="43.36633" lon="5.49689">
        <ele>269.79</ele>
        <time>2012-01-15T13:24:23Z</time>
      </trkpt>
      <trkpt lat="43.36629" lon="5.4968">
        <ele>266.42</ele>
        <time>2012-01-15T13:24:30Z</time>
      </trkpt>
      <trkpt lat="43.36612" lon="5.49674">
        <ele>263.54</ele>
        <time>2012-01-15T13:24:40Z</time>
      </trkpt>
      <trkpt lat="43.36609" lon="5.49674">
        <ele>263.06</ele>
        <time>2012-01-15T13:24:42Z</time>
      </trkpt>
      <trkpt lat="43.36599" lon="5.49664">
        <ele>259.69</ele>
        <time>2012-01-15T13:24:56Z</time>
      </trkpt>
      <trkpt lat="43.36593" lon="5.49652">
        <ele>259.21</ele>
        <time>2012-01-15T13:25:01Z</time>
      </trkpt>
      <trkpt lat="43.36588" lon="5.49637">
        <ele>257.29</ele>
        <time>2012-01-15T13:25:12Z</time>
      </trkpt>
      <trkpt lat="43.36575" lon="5.49619">
        <ele>254.89</ele>
        <time>2012-01-15T13:25:27Z</time>
      </trkpt>
      <trkpt lat="43.36572" lon="5.49617">
        <ele>254.41</ele>
        <time>2012-01-15T13:25:32Z</time>
      </trkpt>
      <trkpt lat="43.36562" lon="5.49611">
        <ele>250.56</ele>
        <time>2012-01-15T13:25:47Z</time>
      </trkpt>
      <trkpt lat="43.36561" lon="5.4961">
        <ele>250.08</ele>
        <time>2012-01-15T13:25:48Z</time>
      </trkpt>
      <trkpt lat="43.36559" lon="5.49607">
        <ele>250.08</ele>
        <time>2012-01-15T13:25:50Z</time>
      </trkpt>
      <trkpt lat="43.36556" lon="5.496">
        <ele>246.23</ele>
        <time>2012-01-15T13:25:54Z</time>
      </trkpt>
      <trkpt lat="43.36555" lon="5.49599">
        <ele>246.72</ele>
        <time>2012-01-15T13:25:55Z</time>
      </trkpt>
      <trkpt lat="43.36555" lon="5.49598">
        <ele>247.68</ele>
        <time>2012-01-15T13:25:56Z</time>
      </trkpt>
      <trkpt lat="43.36547" lon="5.49584">
        <ele>244.31</ele>
        <time>2012-01-15T13:26:08Z</time>
      </trkpt>
      <trkpt lat="43.36544" lon="5.49582">
        <ele>245.27</ele>
        <time>2012-01-15T13:26:12Z</time>
      </trkpt>
      <trkpt lat="43.36534" lon="5.49567">
        <ele>240.47</ele>
        <time>2012-01-15T13:26:25Z</time>
      </trkpt>
      <trkpt lat="43.3653" lon="5.49561">
        <ele>241.91</ele>
        <time>2012-01-15T13:26:28Z</time>
      </trkpt>
      <trkpt lat="43.3652" lon="5.49554">
        <ele>238.54</ele>
        <time>2012-01-15T13:26:38Z</time>
      </trkpt>
      <trkpt lat="43.36513" lon="5.49542">
        <ele>237.1</ele>
        <time>2012-01-15T13:26:44Z</time>
      </trkpt>
      <trkpt lat="43.3651" lon="5.49536">
        <ele>235.18</ele>
        <time>2012-01-15T13:26:47Z</time>
      </trkpt>
      <trkpt lat="43.36509" lon="5.49532">
        <ele>236.14</ele>
        <time>2012-01-15T13:26:51Z</time>
      </trkpt>
      <trkpt lat="43.36508" lon="5.49531">
        <ele>234.22</ele>
        <time>2012-01-15T13:26:53Z</time>
      </trkpt>
      <trkpt lat="43.36505" lon="5.49506">
        <ele>230.85</ele>
        <time>2012-01-15T13:27:05Z</time>
      </trkpt>
      <trkpt lat="43.36504" lon="5.49504">
        <ele>233.26</ele>
        <time>2012-01-15T13:27:08Z</time>
      </trkpt>
      <trkpt lat="43.36504" lon="5.49501">
        <ele>229.89</ele>
        <time>2012-01-15T13:27:11Z</time>
      </trkpt>
      <trkpt lat="43.36502" lon="5.49491">
        <ele>232.3</ele>
        <time>2012-01-15T13:27:15Z</time>
      </trkpt>
      <trkpt lat="43.365" lon="5.49487">
        <ele>227.49</ele>
        <time>2012-01-15T13:27:22Z</time>
      </trkpt>
      <trkpt lat="43.36499" lon="5.49486">
        <ele>229.41</ele>
        <time>2012-01-15T13:27:23Z</time>
      </trkpt>
      <trkpt lat="43.36498" lon="5.49483">
        <ele>226.53</ele>
        <time>2012-01-15T13:27:26Z</time>
      </trkpt>
      <trkpt lat="43.36488" lon="5.49459">
        <ele>223.64</ele>
        <time>2012-01-15T13:27:39Z</time>
      </trkpt>
      <trkpt lat="43.36488" lon="5.49458">
        <ele>223.16</ele>
        <time>2012-01-15T13:27:41Z</time>
      </trkpt>
      <trkpt lat="43.36485" lon="5.49454">
        <ele>222.2</ele>
        <time>2012-01-15T13:27:45Z</time>
      </trkpt>
      <trkpt lat="43.36481" lon="5.4945">
        <ele>220.28</ele>
        <time>2012-01-15T13:27:50Z</time>
      </trkpt>
      <trkpt lat="43.3648" lon="5.49446">
        <ele>219.8</ele>
        <time>2012-01-15T13:27:52Z</time>
      </trkpt>
      <trkpt lat="43.3648" lon="5.49434">
        <ele>217.4</ele>
        <time>2012-01-15T13:28:01Z</time>
      </trkpt>
      <trkpt lat="43.36478" lon="5.49422">
        <ele>214.99</ele>
        <time>2012-01-15T13:28:10Z</time>
      </trkpt>
      <trkpt lat="43.36478" lon="5.49413">
        <ele>212.11</ele>
        <time>2012-01-15T13:28:22Z</time>
      </trkpt>
      <trkpt lat="43.36474" lon="5.49401">
        <ele>208.74</ele>
        <time>2012-01-15T13:28:30Z</time>
      </trkpt>
      <trkpt lat="43.36472" lon="5.49395">
        <ele>210.19</ele>
        <time>2012-01-15T13:28:33Z</time>
      </trkpt>
      <trkpt lat="43.36469" lon="5.49387">
        <ele>206.82</ele>
        <time>2012-01-15T13:28:39Z</time>
      </trkpt>
      <trkpt lat="43.36466" lon="5.49385">
        <ele>205.38</ele>
        <time>2012-01-15T13:28:45Z</time>
      </trkpt>
      <trkpt lat="43.36463" lon="5.49376">
        <ele>201.53</ele>
        <time>2012-01-15T13:28:57Z</time>
      </trkpt>
      <trkpt lat="43.36462" lon="5.49371">
        <ele>200.57</ele>
        <time>2012-01-15T13:29:01Z</time>
      </trkpt>
      <trkpt lat="43.36461" lon="5.49365">
        <ele>198.17</ele>
        <time>2012-01-15T13:29:04Z</time>
      </trkpt>
      <trkpt lat="43.36458" lon="5.49356">
        <ele>197.21</ele>
        <time>2012-01-15T13:29:09Z</time>
      </trkpt>
      <trkpt lat="43.36457" lon="5.49353">
        <ele>196.25</ele>
        <time>2012-01-15T13:29:11Z</time>
      </trkpt>
      <trkpt lat="43.36456" lon="5.4935">
        <ele>192.88</ele>
        <time>2012-01-15T13:29:14Z</time>
      </trkpt>
      <trkpt lat="43.36458" lon="5.49344">
        <ele>193.84</ele>
        <time>2012-01-15T13:29:24Z</time>
      </trkpt>
      <trkpt lat="43.36465" lon="5.49335">
        <ele>192.88</ele>
        <time>2012-01-15T13:29:29Z</time>
      </trkpt>
      <trkpt lat="43.36463" lon="5.49332">
        <ele>191.44</ele>
        <time>2012-01-15T13:29:31Z</time>
      </trkpt>
      <trkpt lat="43.36463" lon="5.49325">
        <ele>190.48</ele>
        <time>2012-01-15T13:29:35Z</time>
      </trkpt>
      <trkpt lat="43.36463" lon="5.49322">
        <ele>189.52</ele>
        <time>2012-01-15T13:29:38Z</time>
      </trkpt>
      <trkpt lat="43.36452" lon="5.49312">
        <ele>190</ele>
        <time>2012-01-15T13:29:47Z</time>
      </trkpt>
      <trkpt lat="43.3645" lon="5.49312">
        <ele>186.63</ele>
        <time>2012-01-15T13:29:49Z</time>
      </trkpt>
      <trkpt lat="43.36449" lon="5.49313">
        <ele>185.19</ele>
        <time>2012-01-15T13:29:51Z</time>
      </trkpt>
      <trkpt lat="43.36441" lon="5.49315">
        <ele>187.59</ele>
        <time>2012-01-15T13:29:56Z</time>
      </trkpt>
      <trkpt lat="43.3643" lon="5.4931">
        <ele>186.15</ele>
        <time>2012-01-15T13:30:08Z</time>
      </trkpt>
      <trkpt lat="43.36418" lon="5.49315">
        <ele>185.67</ele>
        <time>2012-01-15T13:30:17Z</time>
      </trkpt>
      <trkpt lat="43.36407" lon="5.49315">
        <ele>185.67</ele>
        <time>2012-01-15T13:30:28Z</time>
      </trkpt>
      <trkpt lat="43.36403" lon="5.49316">
        <ele>184.71</ele>
        <time>2012-01-15T13:30:30Z</time>
      </trkpt>
      <trkpt lat="43.3639" lon="5.4932">
        <ele>181.83</ele>
        <time>2012-01-15T13:30:39Z</time>
      </trkpt>
      <trkpt lat="43.36389" lon="5.4932">
        <ele>186.63</ele>
        <time>2012-01-15T13:30:40Z</time>
      </trkpt>
      <trkpt lat="43.36388" lon="5.49321">
        <ele>181.83</ele>
        <time>2012-01-15T13:30:41Z</time>
      </trkpt>
      <trkpt lat="43.36381" lon="5.49328">
        <ele>179.9</ele>
        <time>2012-01-15T13:30:46Z</time>
      </trkpt>
      <trkpt lat="43.3638" lon="5.49329">
        <ele>185.19</ele>
        <time>2012-01-15T13:30:47Z</time>
      </trkpt>
      <trkpt lat="43.36379" lon="5.4933">
        <ele>184.71</ele>
        <time>2012-01-15T13:30:48Z</time>
      </trkpt>
      <trkpt lat="43.3637" lon="5.49335">
        <ele>184.23</ele>
        <time>2012-01-15T13:30:59Z</time>
      </trkpt>
      <trkpt lat="43.3637" lon="5.49335">
        <ele>183.75</ele>
        <time>2012-01-15T13:31:00Z</time>
      </trkpt>
      <trkpt lat="43.36358" lon="5.4934">
        <ele>185.19</ele>
        <time>2012-01-15T13:31:08Z</time>
      </trkpt>
      <trkpt lat="43.36355" lon="5.49341">
        <ele>183.27</ele>
        <time>2012-01-15T13:31:11Z</time>
      </trkpt>
      <trkpt lat="43.36343" lon="5.49342">
        <ele>183.27</ele>
        <time>2012-01-15T13:31:20Z</time>
      </trkpt>
      <trkpt lat="43.36335" lon="5.49342">
        <ele>183.27</ele>
        <time>2012-01-15T13:31:24Z</time>
      </trkpt>
      <trkpt lat="43.36332" lon="5.49343">
        <ele>181.35</ele>
        <time>2012-01-15T13:31:28Z</time>
      </trkpt>
      <trkpt lat="43.36329" lon="5.49343">
        <ele>183.75</ele>
        <time>2012-01-15T13:31:30Z</time>
      </trkpt>
      <trkpt lat="43.3632" lon="5.4934">
        <ele>182.79</ele>
        <time>2012-01-15T13:31:39Z</time>
      </trkpt>
      <trkpt lat="43.36313" lon="5.49342">
        <ele>180.87</ele>
        <time>2012-01-15T13:31:42Z</time>
      </trkpt>
      <trkpt lat="43.36312" lon="5.49342">
        <ele>181.35</ele>
        <time>2012-01-15T13:31:43Z</time>
      </trkpt>
      <trkpt lat="43.36309" lon="5.49342">
        <ele>181.35</ele>
        <time>2012-01-15T13:31:46Z</time>
      </trkpt>
      <trkpt lat="43.36291" lon="5.49341">
        <ele>181.83</ele>
        <time>2012-01-15T13:31:58Z</time>
      </trkpt>
      <trkpt lat="43.36289" lon="5.49338">
        <ele>178.46</ele>
        <time>2012-01-15T13:32:01Z</time>
      </trkpt>
      <trkpt lat="43.36278" lon="5.49333">
        <ele>176.54</ele>
        <time>2012-01-15T13:32:12Z</time>
      </trkpt>
      <trkpt lat="43.36265" lon="5.49335">
        <ele>176.54</ele>
        <time>2012-01-15T13:32:23Z</time>
      </trkpt>
      <trkpt lat="43.36247" lon="5.49343">
        <ele>176.06</ele>
        <time>2012-01-15T13:32:35Z</time>
      </trkpt>
      <trkpt lat="43.36244" lon="5.49345">
        <ele>175.58</ele>
        <time>2012-01-15T13:32:37Z</time>
      </trkpt>
      <trkpt lat="43.36242" lon="5.49349">
        <ele>174.62</ele>
        <time>2012-01-15T13:32:40Z</time>
      </trkpt>
      <trkpt lat="43.36233" lon="5.49352">
        <ele>175.58</ele>
        <time>2012-01-15T13:32:46Z</time>
      </trkpt>
      <trkpt lat="43.36223" lon="5.49358">
        <ele>175.1</ele>
        <time>2012-01-15T13:32:55Z</time>
      </trkpt>
      <trkpt lat="43.3621" lon="5.49362">
        <ele>171.73</ele>
        <time>2012-01-15T13:33:05Z</time>
      </trkpt>
      <trkpt lat="43.36207" lon="5.49361">
        <ele>172.21</ele>
        <time>2012-01-15T13:33:08Z</time>
      </trkpt>
      <trkpt lat="43.36202" lon="5.4936">
        <ele>172.21</ele>
        <time>2012-01-15T13:33:11Z</time>
      </trkpt>
      <trkpt lat="43.36197" lon="5.49362">
        <ele>170.77</ele>
        <time>2012-01-15T13:33:16Z</time>
      </trkpt>
      <trkpt lat="43.36188" lon="5.49364">
        <ele>170.77</ele>
        <time>2012-01-15T13:33:23Z</time>
      </trkpt>
      <trkpt lat="43.36185" lon="5.49365">
        <ele>169.33</ele>
        <time>2012-01-15T13:33:26Z</time>
      </trkpt>
      <trkpt lat="43.36177" lon="5.49367">
        <ele>169.81</ele>
        <time>2012-01-15T13:33:32Z</time>
      </trkpt>
      <trkpt lat="43.36175" lon="5.49369">
        <ele>169.81</ele>
        <time>2012-01-15T13:33:34Z</time>
      </trkpt>
      <trkpt lat="43.36167" lon="5.49367">
        <ele>168.37</ele>
        <time>2012-01-15T13:33:40Z</time>
      </trkpt>
      <trkpt lat="43.36165" lon="5.49362">
        <ele>169.33</ele>
        <time>2012-01-15T13:33:44Z</time>
      </trkpt>
      <trkpt lat="43.36162" lon="5.49355">
        <ele>169.81</ele>
        <time>2012-01-15T13:34:06Z</time>
      </trkpt>
    </trkseg>
  </trk>
</gpx>